<?xml version="1.0" encoding="UTF-8" standalone="no" ?>
<gpx xmlns="http://www.topografix.com/GPX/1/1" xmlns:xsi="http://www.w3.org/2001/XMLSchema-instance" xsi:schemaLocation="http://www.topografix.com/GPX/1/1 http://www.topografix.com/GPX/1/1/gpx.xsd" version="1.1" creator="VisuGPX - https://www.visugpx.com">
  <metadata>
    <name>Cirque d\'archiane</name>
    <desc><![CDATA[cirque d\'archiane avec plateau du Vercors, tête du peyssé et bergerie du jardin du roi.]]></desc>
  </metadata>
  <trk>
    <name><![CDATA[09-SEP-12 19:20:21]]></name>
    <trkseg>
      <trkpt lat="44.74518" lon="5.50714">
        <ele>783.61</ele>
        <time>2012-09-09T15:40:31Z</time>
      </trkpt>
      <trkpt lat="44.74518" lon="5.50712">
        <ele>784.09</ele>
        <time>2012-09-09T15:40:15Z</time>
      </trkpt>
      <trkpt lat="44.74513" lon="5.50712">
        <ele>783.61</ele>
        <time>2012-09-09T15:39:57Z</time>
      </trkpt>
      <trkpt lat="44.74501" lon="5.50715">
        <ele>784.09</ele>
        <time>2012-09-09T15:39:37Z</time>
      </trkpt>
      <trkpt lat="44.745" lon="5.50694">
        <ele>780.25</ele>
        <time>2012-09-09T15:39:19Z</time>
      </trkpt>
      <trkpt lat="44.74503" lon="5.50688">
        <ele>778.81</ele>
        <time>2012-09-09T15:39:13Z</time>
      </trkpt>
      <trkpt lat="44.74507" lon="5.5068">
        <ele>777.36</ele>
        <time>2012-09-09T15:39:05Z</time>
      </trkpt>
      <trkpt lat="44.74507" lon="5.50678">
        <ele>776.88</ele>
        <time>2012-09-09T15:39:03Z</time>
      </trkpt>
      <trkpt lat="44.7452" lon="5.50661">
        <ele>773.04</ele>
        <time>2012-09-09T15:38:42Z</time>
      </trkpt>
      <trkpt lat="44.7452" lon="5.50657">
        <ele>772.08</ele>
        <time>2012-09-09T15:38:39Z</time>
      </trkpt>
      <trkpt lat="44.74517" lon="5.50656">
        <ele>772.08</ele>
        <time>2012-09-09T15:38:35Z</time>
      </trkpt>
      <trkpt lat="44.74508" lon="5.50658">
        <ele>772.56</ele>
        <time>2012-09-09T15:38:27Z</time>
      </trkpt>
      <trkpt lat="44.74498" lon="5.5066">
        <ele>771.11</ele>
        <time>2012-09-09T15:38:18Z</time>
      </trkpt>
      <trkpt lat="44.74477" lon="5.50671">
        <ele>768.71</ele>
        <time>2012-09-09T15:37:56Z</time>
      </trkpt>
      <trkpt lat="44.74471" lon="5.50677">
        <ele>767.75</ele>
        <time>2012-09-09T15:37:50Z</time>
      </trkpt>
      <trkpt lat="44.74469" lon="5.5068">
        <ele>767.75</ele>
        <time>2012-09-09T15:37:47Z</time>
      </trkpt>
      <trkpt lat="44.74453" lon="5.50708">
        <ele>767.75</ele>
        <time>2012-09-09T15:37:24Z</time>
      </trkpt>
      <trkpt lat="44.74441" lon="5.50737">
        <ele>765.83</ele>
        <time>2012-09-09T15:37:02Z</time>
      </trkpt>
      <trkpt lat="44.74424" lon="5.5077">
        <ele>767.27</ele>
        <time>2012-09-09T15:36:36Z</time>
      </trkpt>
      <trkpt lat="44.74398" lon="5.50798">
        <ele>768.71</ele>
        <time>2012-09-09T15:36:09Z</time>
      </trkpt>
      <trkpt lat="44.74392" lon="5.50804">
        <ele>768.71</ele>
        <time>2012-09-09T15:36:03Z</time>
      </trkpt>
      <trkpt lat="44.74374" lon="5.50815">
        <ele>769.67</ele>
        <time>2012-09-09T15:35:47Z</time>
      </trkpt>
      <trkpt lat="44.74348" lon="5.50828">
        <ele>768.23</ele>
        <time>2012-09-09T15:35:24Z</time>
      </trkpt>
      <trkpt lat="44.74318" lon="5.50832">
        <ele>766.79</ele>
        <time>2012-09-09T15:34:58Z</time>
      </trkpt>
      <trkpt lat="44.74309" lon="5.50831">
        <ele>765.83</ele>
        <time>2012-09-09T15:34:49Z</time>
      </trkpt>
      <trkpt lat="44.74284" lon="5.50842">
        <ele>764.39</ele>
        <time>2012-09-09T15:34:24Z</time>
      </trkpt>
      <trkpt lat="44.74261" lon="5.50853">
        <ele>762.46</ele>
        <time>2012-09-09T15:34:02Z</time>
      </trkpt>
      <trkpt lat="44.74245" lon="5.5086">
        <ele>761.02</ele>
        <time>2012-09-09T15:33:45Z</time>
      </trkpt>
      <trkpt lat="44.74242" lon="5.50863">
        <ele>760.54</ele>
        <time>2012-09-09T15:33:41Z</time>
      </trkpt>
      <trkpt lat="44.74226" lon="5.50872">
        <ele>761.02</ele>
        <time>2012-09-09T15:33:24Z</time>
      </trkpt>
      <trkpt lat="44.74224" lon="5.50872">
        <ele>761.02</ele>
        <time>2012-09-09T15:33:22Z</time>
      </trkpt>
      <trkpt lat="44.74223" lon="5.50872">
        <ele>761.02</ele>
        <time>2012-09-09T15:33:19Z</time>
      </trkpt>
      <trkpt lat="44.74206" lon="5.50888">
        <ele>759.1</ele>
        <time>2012-09-09T15:32:58Z</time>
      </trkpt>
      <trkpt lat="44.74198" lon="5.50896">
        <ele>760.06</ele>
        <time>2012-09-09T15:32:47Z</time>
      </trkpt>
      <trkpt lat="44.74193" lon="5.50903">
        <ele>760.06</ele>
        <time>2012-09-09T15:32:38Z</time>
      </trkpt>
      <trkpt lat="44.7418" lon="5.50915">
        <ele>759.1</ele>
        <time>2012-09-09T15:32:21Z</time>
      </trkpt>
      <trkpt lat="44.74178" lon="5.50915">
        <ele>759.1</ele>
        <time>2012-09-09T15:32:17Z</time>
      </trkpt>
      <trkpt lat="44.74174" lon="5.50919">
        <ele>758.62</ele>
        <time>2012-09-09T15:32:01Z</time>
      </trkpt>
      <trkpt lat="44.74165" lon="5.50932">
        <ele>759.1</ele>
        <time>2012-09-09T15:31:42Z</time>
      </trkpt>
      <trkpt lat="44.7416" lon="5.50942">
        <ele>760.54</ele>
        <time>2012-09-09T15:31:33Z</time>
      </trkpt>
      <trkpt lat="44.7416" lon="5.50945">
        <ele>760.06</ele>
        <time>2012-09-09T15:31:30Z</time>
      </trkpt>
      <trkpt lat="44.74157" lon="5.50951">
        <ele>761.02</ele>
        <time>2012-09-09T15:31:23Z</time>
      </trkpt>
      <trkpt lat="44.74146" lon="5.50962">
        <ele>765.35</ele>
        <time>2012-09-09T15:31:02Z</time>
      </trkpt>
      <trkpt lat="44.74135" lon="5.50978">
        <ele>766.31</ele>
        <time>2012-09-09T15:30:39Z</time>
      </trkpt>
      <trkpt lat="44.74127" lon="5.5098">
        <ele>767.27</ele>
        <time>2012-09-09T15:30:25Z</time>
      </trkpt>
      <trkpt lat="44.74117" lon="5.50989">
        <ele>772.08</ele>
        <time>2012-09-09T15:30:09Z</time>
      </trkpt>
      <trkpt lat="44.74115" lon="5.5099">
        <ele>772.56</ele>
        <time>2012-09-09T15:30:07Z</time>
      </trkpt>
      <trkpt lat="44.74108" lon="5.5101">
        <ele>778.32</ele>
        <time>2012-09-09T15:29:45Z</time>
      </trkpt>
      <trkpt lat="44.74096" lon="5.51009">
        <ele>781.69</ele>
        <time>2012-09-09T15:29:32Z</time>
      </trkpt>
      <trkpt lat="44.74089" lon="5.51005">
        <ele>783.13</ele>
        <time>2012-09-09T15:29:23Z</time>
      </trkpt>
      <trkpt lat="44.74071" lon="5.51002">
        <ele>786.02</ele>
        <time>2012-09-09T15:29:03Z</time>
      </trkpt>
      <trkpt lat="44.74062" lon="5.51003">
        <ele>786.98</ele>
        <time>2012-09-09T15:28:54Z</time>
      </trkpt>
      <trkpt lat="44.74044" lon="5.51014">
        <ele>789.38</ele>
        <time>2012-09-09T15:28:33Z</time>
      </trkpt>
      <trkpt lat="44.7403" lon="5.51023">
        <ele>791.3</ele>
        <time>2012-09-09T15:28:14Z</time>
      </trkpt>
      <trkpt lat="44.74018" lon="5.51034">
        <ele>790.82</ele>
        <time>2012-09-09T15:27:55Z</time>
      </trkpt>
      <trkpt lat="44.74004" lon="5.51055">
        <ele>797.07</ele>
        <time>2012-09-09T15:27:33Z</time>
      </trkpt>
      <trkpt lat="44.74003" lon="5.51066">
        <ele>799.47</ele>
        <time>2012-09-09T15:27:23Z</time>
      </trkpt>
      <trkpt lat="44.74003" lon="5.51091">
        <ele>799.95</ele>
        <time>2012-09-09T15:27:03Z</time>
      </trkpt>
      <trkpt lat="44.74007" lon="5.51115">
        <ele>797.55</ele>
        <time>2012-09-09T15:26:43Z</time>
      </trkpt>
      <trkpt lat="44.74006" lon="5.51126">
        <ele>797.07</ele>
        <time>2012-09-09T15:26:35Z</time>
      </trkpt>
      <trkpt lat="44.74007" lon="5.51126">
        <ele>796.59</ele>
        <time>2012-09-09T15:26:33Z</time>
      </trkpt>
      <trkpt lat="44.74007" lon="5.51138">
        <ele>795.63</ele>
        <time>2012-09-09T15:26:12Z</time>
      </trkpt>
      <trkpt lat="44.74007" lon="5.5114">
        <ele>796.59</ele>
        <time>2012-09-09T15:26:09Z</time>
      </trkpt>
      <trkpt lat="44.73992" lon="5.51131">
        <ele>798.03</ele>
        <time>2012-09-09T15:25:46Z</time>
      </trkpt>
      <trkpt lat="44.73975" lon="5.51123">
        <ele>796.11</ele>
        <time>2012-09-09T15:25:26Z</time>
      </trkpt>
      <trkpt lat="44.73965" lon="5.51112">
        <ele>796.11</ele>
        <time>2012-09-09T15:25:11Z</time>
      </trkpt>
      <trkpt lat="44.7396" lon="5.51111">
        <ele>797.07</ele>
        <time>2012-09-09T15:25:03Z</time>
      </trkpt>
      <trkpt lat="44.73945" lon="5.51123">
        <ele>801.88</ele>
        <time>2012-09-09T15:24:41Z</time>
      </trkpt>
      <trkpt lat="44.73943" lon="5.51126">
        <ele>801.88</ele>
        <time>2012-09-09T15:24:38Z</time>
      </trkpt>
      <trkpt lat="44.73941" lon="5.51132">
        <ele>802.36</ele>
        <time>2012-09-09T15:24:33Z</time>
      </trkpt>
      <trkpt lat="44.7394" lon="5.51137">
        <ele>802.36</ele>
        <time>2012-09-09T15:24:29Z</time>
      </trkpt>
      <trkpt lat="44.73932" lon="5.51145">
        <ele>804.76</ele>
        <time>2012-09-09T15:24:12Z</time>
      </trkpt>
      <trkpt lat="44.7392" lon="5.5114">
        <ele>811.01</ele>
        <time>2012-09-09T15:23:54Z</time>
      </trkpt>
      <trkpt lat="44.73907" lon="5.51142">
        <ele>814.37</ele>
        <time>2012-09-09T15:23:36Z</time>
      </trkpt>
      <trkpt lat="44.73899" lon="5.51147">
        <ele>812.93</ele>
        <time>2012-09-09T15:23:20Z</time>
      </trkpt>
      <trkpt lat="44.73886" lon="5.51163">
        <ele>814.85</ele>
        <time>2012-09-09T15:22:59Z</time>
      </trkpt>
      <trkpt lat="44.73874" lon="5.51174">
        <ele>817.26</ele>
        <time>2012-09-09T15:22:44Z</time>
      </trkpt>
      <trkpt lat="44.73864" lon="5.51181">
        <ele>820.14</ele>
        <time>2012-09-09T15:22:32Z</time>
      </trkpt>
      <trkpt lat="44.73857" lon="5.51184">
        <ele>820.62</ele>
        <time>2012-09-09T15:22:23Z</time>
      </trkpt>
      <trkpt lat="44.73848" lon="5.5119">
        <ele>821.1</ele>
        <time>2012-09-09T15:22:13Z</time>
      </trkpt>
      <trkpt lat="44.73827" lon="5.51203">
        <ele>822.06</ele>
        <time>2012-09-09T15:21:50Z</time>
      </trkpt>
      <trkpt lat="44.73819" lon="5.51209">
        <ele>823.99</ele>
        <time>2012-09-09T15:21:41Z</time>
      </trkpt>
      <trkpt lat="44.73806" lon="5.51228">
        <ele>826.39</ele>
        <time>2012-09-09T15:21:20Z</time>
      </trkpt>
      <trkpt lat="44.73798" lon="5.51241">
        <ele>828.79</ele>
        <time>2012-09-09T15:21:07Z</time>
      </trkpt>
      <trkpt lat="44.73785" lon="5.51264">
        <ele>829.76</ele>
        <time>2012-09-09T15:20:46Z</time>
      </trkpt>
      <trkpt lat="44.73783" lon="5.51266">
        <ele>830.24</ele>
        <time>2012-09-09T15:20:43Z</time>
      </trkpt>
      <trkpt lat="44.73772" lon="5.51283">
        <ele>830.72</ele>
        <time>2012-09-09T15:20:23Z</time>
      </trkpt>
      <trkpt lat="44.73761" lon="5.51296">
        <ele>837.93</ele>
        <time>2012-09-09T15:20:08Z</time>
      </trkpt>
      <trkpt lat="44.73747" lon="5.51316">
        <ele>845.14</ele>
        <time>2012-09-09T15:19:47Z</time>
      </trkpt>
      <trkpt lat="44.73742" lon="5.51323">
        <ele>847.06</ele>
        <time>2012-09-09T15:19:38Z</time>
      </trkpt>
      <trkpt lat="44.73731" lon="5.51334">
        <ele>850.9</ele>
        <time>2012-09-09T15:19:25Z</time>
      </trkpt>
      <trkpt lat="44.73725" lon="5.51348">
        <ele>851.38</ele>
        <time>2012-09-09T15:19:12Z</time>
      </trkpt>
      <trkpt lat="44.73722" lon="5.51352">
        <ele>850.9</ele>
        <time>2012-09-09T15:19:08Z</time>
      </trkpt>
      <trkpt lat="44.73716" lon="5.51365">
        <ele>849.94</ele>
        <time>2012-09-09T15:18:57Z</time>
      </trkpt>
      <trkpt lat="44.73709" lon="5.51375">
        <ele>848.98</ele>
        <time>2012-09-09T15:18:46Z</time>
      </trkpt>
      <trkpt lat="44.73698" lon="5.51384">
        <ele>848.02</ele>
        <time>2012-09-09T15:18:26Z</time>
      </trkpt>
      <trkpt lat="44.73689" lon="5.51396">
        <ele>852.83</ele>
        <time>2012-09-09T15:18:11Z</time>
      </trkpt>
      <trkpt lat="44.73687" lon="5.51403">
        <ele>850.9</ele>
        <time>2012-09-09T15:17:58Z</time>
      </trkpt>
      <trkpt lat="44.73688" lon="5.51421">
        <ele>848.98</ele>
        <time>2012-09-09T15:17:38Z</time>
      </trkpt>
      <trkpt lat="44.73688" lon="5.51436">
        <ele>850.9</ele>
        <time>2012-09-09T15:17:17Z</time>
      </trkpt>
      <trkpt lat="44.73669" lon="5.51434">
        <ele>857.15</ele>
        <time>2012-09-09T15:16:57Z</time>
      </trkpt>
      <trkpt lat="44.73661" lon="5.51431">
        <ele>859.08</ele>
        <time>2012-09-09T15:16:45Z</time>
      </trkpt>
      <trkpt lat="44.73656" lon="5.51436">
        <ele>862.44</ele>
        <time>2012-09-09T15:16:31Z</time>
      </trkpt>
      <trkpt lat="44.73646" lon="5.51441">
        <ele>867.73</ele>
        <time>2012-09-09T15:16:11Z</time>
      </trkpt>
      <trkpt lat="44.73636" lon="5.51446">
        <ele>871.57</ele>
        <time>2012-09-09T15:15:55Z</time>
      </trkpt>
      <trkpt lat="44.73629" lon="5.51454">
        <ele>872.05</ele>
        <time>2012-09-09T15:15:37Z</time>
      </trkpt>
      <trkpt lat="44.73624" lon="5.51453">
        <ele>870.61</ele>
        <time>2012-09-09T15:15:16Z</time>
      </trkpt>
      <trkpt lat="44.73609" lon="5.51462">
        <ele>873.5</ele>
        <time>2012-09-09T15:14:54Z</time>
      </trkpt>
      <trkpt lat="44.73593" lon="5.5147">
        <ele>875.42</ele>
        <time>2012-09-09T15:14:34Z</time>
      </trkpt>
      <trkpt lat="44.73583" lon="5.51483">
        <ele>880.22</ele>
        <time>2012-09-09T15:14:18Z</time>
      </trkpt>
      <trkpt lat="44.73572" lon="5.51499">
        <ele>887.43</ele>
        <time>2012-09-09T15:14:00Z</time>
      </trkpt>
      <trkpt lat="44.73561" lon="5.51518">
        <ele>894.16</ele>
        <time>2012-09-09T15:13:39Z</time>
      </trkpt>
      <trkpt lat="44.7356" lon="5.51524">
        <ele>895.61</ele>
        <time>2012-09-09T15:13:33Z</time>
      </trkpt>
      <trkpt lat="44.73551" lon="5.51545">
        <ele>896.09</ele>
        <time>2012-09-09T15:13:13Z</time>
      </trkpt>
      <trkpt lat="44.73545" lon="5.5156">
        <ele>900.89</ele>
        <time>2012-09-09T15:12:54Z</time>
      </trkpt>
      <trkpt lat="44.7354" lon="5.51574">
        <ele>902.33</ele>
        <time>2012-09-09T15:12:37Z</time>
      </trkpt>
      <trkpt lat="44.7354" lon="5.51591">
        <ele>900.89</ele>
        <time>2012-09-09T15:12:17Z</time>
      </trkpt>
      <trkpt lat="44.73541" lon="5.51597">
        <ele>902.33</ele>
        <time>2012-09-09T15:12:01Z</time>
      </trkpt>
      <trkpt lat="44.73543" lon="5.51606">
        <ele>901.37</ele>
        <time>2012-09-09T15:11:42Z</time>
      </trkpt>
      <trkpt lat="44.73541" lon="5.51621">
        <ele>900.41</ele>
        <time>2012-09-09T15:11:23Z</time>
      </trkpt>
      <trkpt lat="44.7354" lon="5.5163">
        <ele>902.82</ele>
        <time>2012-09-09T15:11:05Z</time>
      </trkpt>
      <trkpt lat="44.73556" lon="5.51623">
        <ele>909.06</ele>
        <time>2012-09-09T15:10:43Z</time>
      </trkpt>
      <trkpt lat="44.73572" lon="5.51612">
        <ele>911.47</ele>
        <time>2012-09-09T15:10:21Z</time>
      </trkpt>
      <trkpt lat="44.73584" lon="5.51607">
        <ele>914.35</ele>
        <time>2012-09-09T15:10:05Z</time>
      </trkpt>
      <trkpt lat="44.73598" lon="5.51603">
        <ele>914.83</ele>
        <time>2012-09-09T15:09:47Z</time>
      </trkpt>
      <trkpt lat="44.73597" lon="5.51615">
        <ele>930.21</ele>
        <time>2012-09-09T15:09:28Z</time>
      </trkpt>
      <trkpt lat="44.73584" lon="5.51643">
        <ele>940.79</ele>
        <time>2012-09-09T15:09:07Z</time>
      </trkpt>
      <trkpt lat="44.73579" lon="5.51658">
        <ele>936.94</ele>
        <time>2012-09-09T15:08:48Z</time>
      </trkpt>
      <trkpt lat="44.73572" lon="5.51681">
        <ele>941.75</ele>
        <time>2012-09-09T15:08:29Z</time>
      </trkpt>
      <trkpt lat="44.73563" lon="5.51705">
        <ele>950.88</ele>
        <time>2012-09-09T15:08:07Z</time>
      </trkpt>
      <trkpt lat="44.73552" lon="5.51729">
        <ele>964.34</ele>
        <time>2012-09-09T15:07:48Z</time>
      </trkpt>
      <trkpt lat="44.73546" lon="5.5174">
        <ele>967.22</ele>
        <time>2012-09-09T15:07:37Z</time>
      </trkpt>
      <trkpt lat="44.73537" lon="5.51753">
        <ele>972.03</ele>
        <time>2012-09-09T15:07:20Z</time>
      </trkpt>
      <trkpt lat="44.73525" lon="5.51766">
        <ele>978.28</ele>
        <time>2012-09-09T15:07:01Z</time>
      </trkpt>
      <trkpt lat="44.73523" lon="5.51769">
        <ele>979.24</ele>
        <time>2012-09-09T15:06:58Z</time>
      </trkpt>
      <trkpt lat="44.73511" lon="5.51784">
        <ele>985.49</ele>
        <time>2012-09-09T15:06:39Z</time>
      </trkpt>
      <trkpt lat="44.735" lon="5.51798">
        <ele>990.3</ele>
        <time>2012-09-09T15:06:19Z</time>
      </trkpt>
      <trkpt lat="44.73491" lon="5.51814">
        <ele>996.06</ele>
        <time>2012-09-09T15:06:01Z</time>
      </trkpt>
      <trkpt lat="44.73481" lon="5.51824">
        <ele>997.51</ele>
        <time>2012-09-09T15:05:43Z</time>
      </trkpt>
      <trkpt lat="44.73474" lon="5.51841">
        <ele>1000.39</ele>
        <time>2012-09-09T15:05:27Z</time>
      </trkpt>
      <trkpt lat="44.73466" lon="5.51855">
        <ele>1003.27</ele>
        <time>2012-09-09T15:05:10Z</time>
      </trkpt>
      <trkpt lat="44.73456" lon="5.51868">
        <ele>1004.72</ele>
        <time>2012-09-09T15:04:52Z</time>
      </trkpt>
      <trkpt lat="44.73451" lon="5.51884">
        <ele>1007.12</ele>
        <time>2012-09-09T15:04:34Z</time>
      </trkpt>
      <trkpt lat="44.73444" lon="5.51898">
        <ele>1006.16</ele>
        <time>2012-09-09T15:04:14Z</time>
      </trkpt>
      <trkpt lat="44.73438" lon="5.5191">
        <ele>1006.64</ele>
        <time>2012-09-09T15:03:56Z</time>
      </trkpt>
      <trkpt lat="44.73431" lon="5.51925">
        <ele>1007.12</ele>
        <time>2012-09-09T15:03:39Z</time>
      </trkpt>
      <trkpt lat="44.73427" lon="5.51939">
        <ele>1008.56</ele>
        <time>2012-09-09T15:03:22Z</time>
      </trkpt>
      <trkpt lat="44.73422" lon="5.51956">
        <ele>1010.96</ele>
        <time>2012-09-09T15:03:04Z</time>
      </trkpt>
      <trkpt lat="44.7342" lon="5.51974">
        <ele>1011.93</ele>
        <time>2012-09-09T15:02:45Z</time>
      </trkpt>
      <trkpt lat="44.73422" lon="5.51997">
        <ele>1012.41</ele>
        <time>2012-09-09T15:02:22Z</time>
      </trkpt>
      <trkpt lat="44.73422" lon="5.52022">
        <ele>1012.89</ele>
        <time>2012-09-09T15:02:01Z</time>
      </trkpt>
      <trkpt lat="44.7342" lon="5.52044">
        <ele>1010</ele>
        <time>2012-09-09T15:01:41Z</time>
      </trkpt>
      <trkpt lat="44.7342" lon="5.52064">
        <ele>1010</ele>
        <time>2012-09-09T15:01:23Z</time>
      </trkpt>
      <trkpt lat="44.73418" lon="5.52082">
        <ele>1005.2</ele>
        <time>2012-09-09T15:01:02Z</time>
      </trkpt>
      <trkpt lat="44.73411" lon="5.52098">
        <ele>1005.2</ele>
        <time>2012-09-09T15:00:43Z</time>
      </trkpt>
      <trkpt lat="44.73403" lon="5.52111">
        <ele>1004.23</ele>
        <time>2012-09-09T15:00:29Z</time>
      </trkpt>
      <trkpt lat="44.7339" lon="5.52118">
        <ele>1000.87</ele>
        <time>2012-09-09T15:00:14Z</time>
      </trkpt>
      <trkpt lat="44.73367" lon="5.52149">
        <ele>1066.24</ele>
        <time>2012-09-09T14:59:56Z</time>
      </trkpt>
      <trkpt lat="44.73356" lon="5.52162">
        <ele>1066.72</ele>
        <time>2012-09-09T14:59:35Z</time>
      </trkpt>
      <trkpt lat="44.73347" lon="5.52171">
        <ele>1066.72</ele>
        <time>2012-09-09T14:59:19Z</time>
      </trkpt>
      <trkpt lat="44.7334" lon="5.5218">
        <ele>1067.2</ele>
        <time>2012-09-09T14:59:01Z</time>
      </trkpt>
      <trkpt lat="44.73334" lon="5.52188">
        <ele>1067.2</ele>
        <time>2012-09-09T14:58:43Z</time>
      </trkpt>
      <trkpt lat="44.73326" lon="5.52204">
        <ele>1086.43</ele>
        <time>2012-09-09T14:58:25Z</time>
      </trkpt>
      <trkpt lat="44.7332" lon="5.52216">
        <ele>1087.39</ele>
        <time>2012-09-09T14:58:08Z</time>
      </trkpt>
      <trkpt lat="44.73317" lon="5.52232">
        <ele>1086.43</ele>
        <time>2012-09-09T14:57:48Z</time>
      </trkpt>
      <trkpt lat="44.73313" lon="5.52252">
        <ele>1086.91</ele>
        <time>2012-09-09T14:57:28Z</time>
      </trkpt>
      <trkpt lat="44.73311" lon="5.52263">
        <ele>1086.91</ele>
        <time>2012-09-09T14:57:19Z</time>
      </trkpt>
      <trkpt lat="44.73306" lon="5.52291">
        <ele>1088.83</ele>
        <time>2012-09-09T14:56:59Z</time>
      </trkpt>
      <trkpt lat="44.73302" lon="5.52314">
        <ele>1090.27</ele>
        <time>2012-09-09T14:56:39Z</time>
      </trkpt>
      <trkpt lat="44.73301" lon="5.52317">
        <ele>1091.23</ele>
        <time>2012-09-09T14:56:35Z</time>
      </trkpt>
      <trkpt lat="44.73297" lon="5.52335">
        <ele>1092.68</ele>
        <time>2012-09-09T14:56:17Z</time>
      </trkpt>
      <trkpt lat="44.73289" lon="5.52356">
        <ele>1094.6</ele>
        <time>2012-09-09T14:55:58Z</time>
      </trkpt>
      <trkpt lat="44.73278" lon="5.52373">
        <ele>1096.04</ele>
        <time>2012-09-09T14:55:40Z</time>
      </trkpt>
      <trkpt lat="44.73268" lon="5.52385">
        <ele>1098.44</ele>
        <time>2012-09-09T14:55:23Z</time>
      </trkpt>
      <trkpt lat="44.7325" lon="5.524">
        <ele>1098.92</ele>
        <time>2012-09-09T14:55:01Z</time>
      </trkpt>
      <trkpt lat="44.73244" lon="5.52405">
        <ele>1098.92</ele>
        <time>2012-09-09T14:54:55Z</time>
      </trkpt>
      <trkpt lat="44.7324" lon="5.52413">
        <ele>1098.92</ele>
        <time>2012-09-09T14:54:47Z</time>
      </trkpt>
      <trkpt lat="44.73233" lon="5.52423">
        <ele>1098.44</ele>
        <time>2012-09-09T14:54:38Z</time>
      </trkpt>
      <trkpt lat="44.73222" lon="5.52447">
        <ele>1099.89</ele>
        <time>2012-09-09T14:54:18Z</time>
      </trkpt>
      <trkpt lat="44.73216" lon="5.52471">
        <ele>1099.89</ele>
        <time>2012-09-09T14:54:00Z</time>
      </trkpt>
      <trkpt lat="44.73204" lon="5.52505">
        <ele>1100.85</ele>
        <time>2012-09-09T14:53:35Z</time>
      </trkpt>
      <trkpt lat="44.73199" lon="5.52511">
        <ele>1100.85</ele>
        <time>2012-09-09T14:53:29Z</time>
      </trkpt>
      <trkpt lat="44.73195" lon="5.52523">
        <ele>1099.89</ele>
        <time>2012-09-09T14:53:21Z</time>
      </trkpt>
      <trkpt lat="44.73192" lon="5.52527">
        <ele>1099.4</ele>
        <time>2012-09-09T14:53:18Z</time>
      </trkpt>
      <trkpt lat="44.7319" lon="5.52533">
        <ele>1099.4</ele>
        <time>2012-09-09T14:53:13Z</time>
      </trkpt>
      <trkpt lat="44.7318" lon="5.52559">
        <ele>1099.89</ele>
        <time>2012-09-09T14:52:53Z</time>
      </trkpt>
      <trkpt lat="44.73179" lon="5.52564">
        <ele>1099.89</ele>
        <time>2012-09-09T14:52:49Z</time>
      </trkpt>
      <trkpt lat="44.73179" lon="5.52566">
        <ele>1099.89</ele>
        <time>2012-09-09T14:52:48Z</time>
      </trkpt>
      <trkpt lat="44.73173" lon="5.52594">
        <ele>1099.4</ele>
        <time>2012-09-09T14:52:27Z</time>
      </trkpt>
      <trkpt lat="44.7317" lon="5.52602">
        <ele>1098.92</ele>
        <time>2012-09-09T14:52:22Z</time>
      </trkpt>
      <trkpt lat="44.73166" lon="5.52618">
        <ele>1100.37</ele>
        <time>2012-09-09T14:52:10Z</time>
      </trkpt>
      <trkpt lat="44.73161" lon="5.52639">
        <ele>1101.33</ele>
        <time>2012-09-09T14:51:52Z</time>
      </trkpt>
      <trkpt lat="44.73159" lon="5.52648">
        <ele>1101.33</ele>
        <time>2012-09-09T14:51:45Z</time>
      </trkpt>
      <trkpt lat="44.73157" lon="5.52663">
        <ele>1102.29</ele>
        <time>2012-09-09T14:51:35Z</time>
      </trkpt>
      <trkpt lat="44.73159" lon="5.52689">
        <ele>1106.13</ele>
        <time>2012-09-09T14:51:16Z</time>
      </trkpt>
      <trkpt lat="44.73159" lon="5.52698">
        <ele>1105.65</ele>
        <time>2012-09-09T14:51:08Z</time>
      </trkpt>
      <trkpt lat="44.73156" lon="5.52725">
        <ele>1097.48</ele>
        <time>2012-09-09T14:50:46Z</time>
      </trkpt>
      <trkpt lat="44.73152" lon="5.52738">
        <ele>1096.52</ele>
        <time>2012-09-09T14:50:36Z</time>
      </trkpt>
      <trkpt lat="44.7314" lon="5.52752">
        <ele>1091.23</ele>
        <time>2012-09-09T14:50:17Z</time>
      </trkpt>
      <trkpt lat="44.73126" lon="5.52764">
        <ele>1098.92</ele>
        <time>2012-09-09T14:50:03Z</time>
      </trkpt>
      <trkpt lat="44.73123" lon="5.52764">
        <ele>1097.96</ele>
        <time>2012-09-09T14:50:01Z</time>
      </trkpt>
      <trkpt lat="44.73104" lon="5.52777">
        <ele>1096.52</ele>
        <time>2012-09-09T14:49:41Z</time>
      </trkpt>
      <trkpt lat="44.73098" lon="5.52786">
        <ele>1095.56</ele>
        <time>2012-09-09T14:49:33Z</time>
      </trkpt>
      <trkpt lat="44.73096" lon="5.5279">
        <ele>1095.56</ele>
        <time>2012-09-09T14:49:30Z</time>
      </trkpt>
      <trkpt lat="44.73087" lon="5.52803">
        <ele>1093.16</ele>
        <time>2012-09-09T14:49:16Z</time>
      </trkpt>
      <trkpt lat="44.73076" lon="5.52814">
        <ele>1093.16</ele>
        <time>2012-09-09T14:49:04Z</time>
      </trkpt>
      <trkpt lat="44.73075" lon="5.5282">
        <ele>1093.64</ele>
        <time>2012-09-09T14:49:00Z</time>
      </trkpt>
      <trkpt lat="44.73067" lon="5.5284">
        <ele>1093.64</ele>
        <time>2012-09-09T14:48:40Z</time>
      </trkpt>
      <trkpt lat="44.73062" lon="5.5286">
        <ele>1093.64</ele>
        <time>2012-09-09T14:48:21Z</time>
      </trkpt>
      <trkpt lat="44.73061" lon="5.52874">
        <ele>1097</ele>
        <time>2012-09-09T14:48:01Z</time>
      </trkpt>
      <trkpt lat="44.73061" lon="5.52895">
        <ele>1104.69</ele>
        <time>2012-09-09T14:47:45Z</time>
      </trkpt>
      <trkpt lat="44.73069" lon="5.52911">
        <ele>1106.13</ele>
        <time>2012-09-09T14:47:25Z</time>
      </trkpt>
      <trkpt lat="44.73071" lon="5.52915">
        <ele>1108.06</ele>
        <time>2012-09-09T14:47:21Z</time>
      </trkpt>
      <trkpt lat="44.73068" lon="5.52921">
        <ele>1111.42</ele>
        <time>2012-09-09T14:47:12Z</time>
      </trkpt>
      <trkpt lat="44.7307" lon="5.52929">
        <ele>1111.9</ele>
        <time>2012-09-09T14:47:06Z</time>
      </trkpt>
      <trkpt lat="44.73071" lon="5.52955">
        <ele>1109.02</ele>
        <time>2012-09-09T14:46:45Z</time>
      </trkpt>
      <trkpt lat="44.73067" lon="5.52976">
        <ele>1104.69</ele>
        <time>2012-09-09T14:46:27Z</time>
      </trkpt>
      <trkpt lat="44.73066" lon="5.52982">
        <ele>1104.69</ele>
        <time>2012-09-09T14:46:23Z</time>
      </trkpt>
      <trkpt lat="44.73065" lon="5.52985">
        <ele>1104.21</ele>
        <time>2012-09-09T14:46:20Z</time>
      </trkpt>
      <trkpt lat="44.73063" lon="5.5299">
        <ele>1104.21</ele>
        <time>2012-09-09T14:46:11Z</time>
      </trkpt>
      <trkpt lat="44.73063" lon="5.52996">
        <ele>1104.21</ele>
        <time>2012-09-09T14:46:07Z</time>
      </trkpt>
      <trkpt lat="44.73053" lon="5.53021">
        <ele>1104.69</ele>
        <time>2012-09-09T14:45:46Z</time>
      </trkpt>
      <trkpt lat="44.73052" lon="5.53031">
        <ele>1107.58</ele>
        <time>2012-09-09T14:45:31Z</time>
      </trkpt>
      <trkpt lat="44.7305" lon="5.53038">
        <ele>1111.42</ele>
        <time>2012-09-09T14:45:17Z</time>
      </trkpt>
      <trkpt lat="44.73048" lon="5.53048">
        <ele>1112.86</ele>
        <time>2012-09-09T14:45:01Z</time>
      </trkpt>
      <trkpt lat="44.7305" lon="5.53047">
        <ele>1112.86</ele>
        <time>2012-09-09T14:44:59Z</time>
      </trkpt>
      <trkpt lat="44.73063" lon="5.5304">
        <ele>1114.31</ele>
        <time>2012-09-09T14:44:41Z</time>
      </trkpt>
      <trkpt lat="44.73073" lon="5.53037">
        <ele>1115.75</ele>
        <time>2012-09-09T14:44:30Z</time>
      </trkpt>
      <trkpt lat="44.73076" lon="5.53032">
        <ele>1116.71</ele>
        <time>2012-09-09T14:44:24Z</time>
      </trkpt>
      <trkpt lat="44.73084" lon="5.53018">
        <ele>1121.03</ele>
        <time>2012-09-09T14:44:09Z</time>
      </trkpt>
      <trkpt lat="44.73088" lon="5.53008">
        <ele>1121.52</ele>
        <time>2012-09-09T14:43:50Z</time>
      </trkpt>
      <trkpt lat="44.73094" lon="5.52999">
        <ele>1122.96</ele>
        <time>2012-09-09T14:43:42Z</time>
      </trkpt>
      <trkpt lat="44.73107" lon="5.52973">
        <ele>1126.32</ele>
        <time>2012-09-09T14:43:22Z</time>
      </trkpt>
      <trkpt lat="44.7311" lon="5.52968">
        <ele>1127.76</ele>
        <time>2012-09-09T14:43:15Z</time>
      </trkpt>
      <trkpt lat="44.73122" lon="5.52943">
        <ele>1133.05</ele>
        <time>2012-09-09T14:42:57Z</time>
      </trkpt>
      <trkpt lat="44.7313" lon="5.52938">
        <ele>1133.53</ele>
        <time>2012-09-09T14:42:49Z</time>
      </trkpt>
      <trkpt lat="44.73132" lon="5.52937">
        <ele>1133.05</ele>
        <time>2012-09-09T14:42:47Z</time>
      </trkpt>
      <trkpt lat="44.73138" lon="5.52933">
        <ele>1132.57</ele>
        <time>2012-09-09T14:42:41Z</time>
      </trkpt>
      <trkpt lat="44.73141" lon="5.52928">
        <ele>1131.61</ele>
        <time>2012-09-09T14:42:35Z</time>
      </trkpt>
      <trkpt lat="44.73141" lon="5.52927">
        <ele>1131.61</ele>
        <time>2012-09-09T14:42:34Z</time>
      </trkpt>
      <trkpt lat="44.73154" lon="5.52909">
        <ele>1131.13</ele>
        <time>2012-09-09T14:42:16Z</time>
      </trkpt>
      <trkpt lat="44.73158" lon="5.52906">
        <ele>1131.13</ele>
        <time>2012-09-09T14:42:12Z</time>
      </trkpt>
      <trkpt lat="44.73166" lon="5.52888">
        <ele>1136.9</ele>
        <time>2012-09-09T14:41:54Z</time>
      </trkpt>
      <trkpt lat="44.73173" lon="5.52878">
        <ele>1139.3</ele>
        <time>2012-09-09T14:41:40Z</time>
      </trkpt>
      <trkpt lat="44.73182" lon="5.52868">
        <ele>1139.78</ele>
        <time>2012-09-09T14:41:25Z</time>
      </trkpt>
      <trkpt lat="44.73189" lon="5.52859">
        <ele>1139.78</ele>
        <time>2012-09-09T14:41:06Z</time>
      </trkpt>
      <trkpt lat="44.73195" lon="5.52852">
        <ele>1139.78</ele>
        <time>2012-09-09T14:40:50Z</time>
      </trkpt>
      <trkpt lat="44.73194" lon="5.52855">
        <ele>1146.99</ele>
        <time>2012-09-09T14:40:26Z</time>
      </trkpt>
      <trkpt lat="44.73187" lon="5.52881">
        <ele>1158.05</ele>
        <time>2012-09-09T14:40:05Z</time>
      </trkpt>
      <trkpt lat="44.73179" lon="5.52903">
        <ele>1157.56</ele>
        <time>2012-09-09T14:39:45Z</time>
      </trkpt>
      <trkpt lat="44.73172" lon="5.52928">
        <ele>1158.53</ele>
        <time>2012-09-09T14:39:25Z</time>
      </trkpt>
      <trkpt lat="44.73169" lon="5.5295">
        <ele>1154.68</ele>
        <time>2012-09-09T14:39:06Z</time>
      </trkpt>
      <trkpt lat="44.73167" lon="5.52957">
        <ele>1154.68</ele>
        <time>2012-09-09T14:39:01Z</time>
      </trkpt>
      <trkpt lat="44.73156" lon="5.52986">
        <ele>1154.68</ele>
        <time>2012-09-09T14:38:35Z</time>
      </trkpt>
      <trkpt lat="44.73153" lon="5.52992">
        <ele>1154.68</ele>
        <time>2012-09-09T14:38:30Z</time>
      </trkpt>
      <trkpt lat="44.73153" lon="5.52998">
        <ele>1154.68</ele>
        <time>2012-09-09T14:38:25Z</time>
      </trkpt>
      <trkpt lat="44.73148" lon="5.53016">
        <ele>1153.72</ele>
        <time>2012-09-09T14:38:12Z</time>
      </trkpt>
      <trkpt lat="44.73148" lon="5.53019">
        <ele>1153.72</ele>
        <time>2012-09-09T14:38:10Z</time>
      </trkpt>
      <trkpt lat="44.73146" lon="5.53023">
        <ele>1154.68</ele>
        <time>2012-09-09T14:38:07Z</time>
      </trkpt>
      <trkpt lat="44.73142" lon="5.53046">
        <ele>1154.68</ele>
        <time>2012-09-09T14:37:50Z</time>
      </trkpt>
      <trkpt lat="44.7314" lon="5.5305">
        <ele>1154.68</ele>
        <time>2012-09-09T14:37:46Z</time>
      </trkpt>
      <trkpt lat="44.73137" lon="5.53062">
        <ele>1156.12</ele>
        <time>2012-09-09T14:37:37Z</time>
      </trkpt>
      <trkpt lat="44.73136" lon="5.53066">
        <ele>1159.01</ele>
        <time>2012-09-09T14:37:30Z</time>
      </trkpt>
      <trkpt lat="44.73137" lon="5.53092">
        <ele>1167.18</ele>
        <time>2012-09-09T14:37:07Z</time>
      </trkpt>
      <trkpt lat="44.73135" lon="5.53118">
        <ele>1167.18</ele>
        <time>2012-09-09T14:36:47Z</time>
      </trkpt>
      <trkpt lat="44.73133" lon="5.53143">
        <ele>1163.81</ele>
        <time>2012-09-09T14:36:26Z</time>
      </trkpt>
      <trkpt lat="44.73132" lon="5.53152">
        <ele>1162.85</ele>
        <time>2012-09-09T14:36:15Z</time>
      </trkpt>
      <trkpt lat="44.73133" lon="5.53153">
        <ele>1163.81</ele>
        <time>2012-09-09T14:36:13Z</time>
      </trkpt>
      <trkpt lat="44.73138" lon="5.53147">
        <ele>1164.77</ele>
        <time>2012-09-09T14:36:05Z</time>
      </trkpt>
      <trkpt lat="44.73151" lon="5.5313">
        <ele>1166.22</ele>
        <time>2012-09-09T14:35:46Z</time>
      </trkpt>
      <trkpt lat="44.73164" lon="5.53117">
        <ele>1170.06</ele>
        <time>2012-09-09T14:35:26Z</time>
      </trkpt>
      <trkpt lat="44.73173" lon="5.53104">
        <ele>1171.02</ele>
        <time>2012-09-09T14:35:09Z</time>
      </trkpt>
      <trkpt lat="44.73176" lon="5.531">
        <ele>1171.02</ele>
        <time>2012-09-09T14:35:03Z</time>
      </trkpt>
      <trkpt lat="44.73187" lon="5.53083">
        <ele>1172.95</ele>
        <time>2012-09-09T14:34:44Z</time>
      </trkpt>
      <trkpt lat="44.73199" lon="5.53065">
        <ele>1175.35</ele>
        <time>2012-09-09T14:34:28Z</time>
      </trkpt>
      <trkpt lat="44.73201" lon="5.53056">
        <ele>1178.23</ele>
        <time>2012-09-09T14:34:19Z</time>
      </trkpt>
      <trkpt lat="44.73205" lon="5.53052">
        <ele>1179.19</ele>
        <time>2012-09-09T14:34:15Z</time>
      </trkpt>
      <trkpt lat="44.73209" lon="5.53041">
        <ele>1181.12</ele>
        <time>2012-09-09T14:34:07Z</time>
      </trkpt>
      <trkpt lat="44.73213" lon="5.53039">
        <ele>1182.08</ele>
        <time>2012-09-09T14:34:02Z</time>
      </trkpt>
      <trkpt lat="44.73215" lon="5.53034">
        <ele>1183.04</ele>
        <time>2012-09-09T14:33:58Z</time>
      </trkpt>
      <trkpt lat="44.73219" lon="5.53029">
        <ele>1183.04</ele>
        <time>2012-09-09T14:33:53Z</time>
      </trkpt>
      <trkpt lat="44.73223" lon="5.53022">
        <ele>1184.96</ele>
        <time>2012-09-09T14:33:36Z</time>
      </trkpt>
      <trkpt lat="44.73222" lon="5.53022">
        <ele>1184.48</ele>
        <time>2012-09-09T14:33:12Z</time>
      </trkpt>
      <trkpt lat="44.73213" lon="5.53033">
        <ele>1182.08</ele>
        <time>2012-09-09T14:32:53Z</time>
      </trkpt>
      <trkpt lat="44.73209" lon="5.5304">
        <ele>1181.12</ele>
        <time>2012-09-09T14:32:46Z</time>
      </trkpt>
      <trkpt lat="44.73208" lon="5.53044">
        <ele>1180.64</ele>
        <time>2012-09-09T14:32:41Z</time>
      </trkpt>
      <trkpt lat="44.73198" lon="5.5306">
        <ele>1176.31</ele>
        <time>2012-09-09T14:32:23Z</time>
      </trkpt>
      <trkpt lat="44.7319" lon="5.53074">
        <ele>1175.35</ele>
        <time>2012-09-09T14:32:07Z</time>
      </trkpt>
      <trkpt lat="44.73183" lon="5.5309">
        <ele>1172.95</ele>
        <time>2012-09-09T14:31:46Z</time>
      </trkpt>
      <trkpt lat="44.73182" lon="5.53092">
        <ele>1173.43</ele>
        <time>2012-09-09T14:31:44Z</time>
      </trkpt>
      <trkpt lat="44.73183" lon="5.53093">
        <ele>1177.27</ele>
        <time>2012-09-09T14:31:20Z</time>
      </trkpt>
      <trkpt lat="44.7318" lon="5.53093">
        <ele>1180.64</ele>
        <time>2012-09-09T14:30:34Z</time>
      </trkpt>
      <trkpt lat="44.73179" lon="5.53098">
        <ele>1193.13</ele>
        <time>2012-09-09T14:30:06Z</time>
      </trkpt>
      <trkpt lat="44.73175" lon="5.5311">
        <ele>1198.9</ele>
        <time>2012-09-09T14:29:46Z</time>
      </trkpt>
      <trkpt lat="44.73178" lon="5.53146">
        <ele>1221.01</ele>
        <time>2012-09-09T14:29:25Z</time>
      </trkpt>
      <trkpt lat="44.73176" lon="5.5315">
        <ele>1221.01</ele>
        <time>2012-09-09T14:29:22Z</time>
      </trkpt>
      <trkpt lat="44.73175" lon="5.53152">
        <ele>1221.01</ele>
        <time>2012-09-09T14:29:20Z</time>
      </trkpt>
      <trkpt lat="44.73165" lon="5.53172">
        <ele>1220.05</ele>
        <time>2012-09-09T14:29:03Z</time>
      </trkpt>
      <trkpt lat="44.73164" lon="5.53174">
        <ele>1220.05</ele>
        <time>2012-09-09T14:29:02Z</time>
      </trkpt>
      <trkpt lat="44.73159" lon="5.5319">
        <ele>1219.09</ele>
        <time>2012-09-09T14:28:46Z</time>
      </trkpt>
      <trkpt lat="44.73163" lon="5.53197">
        <ele>1219.09</ele>
        <time>2012-09-09T14:28:39Z</time>
      </trkpt>
      <trkpt lat="44.73167" lon="5.53205">
        <ele>1218.61</ele>
        <time>2012-09-09T14:28:31Z</time>
      </trkpt>
      <trkpt lat="44.73171" lon="5.5322">
        <ele>1219.57</ele>
        <time>2012-09-09T14:28:13Z</time>
      </trkpt>
      <trkpt lat="44.73178" lon="5.53233">
        <ele>1219.09</ele>
        <time>2012-09-09T14:27:55Z</time>
      </trkpt>
      <trkpt lat="44.73183" lon="5.53236">
        <ele>1220.05</ele>
        <time>2012-09-09T14:27:24Z</time>
      </trkpt>
      <trkpt lat="44.73199" lon="5.53238">
        <ele>1223.9</ele>
        <time>2012-09-09T14:27:02Z</time>
      </trkpt>
      <trkpt lat="44.73206" lon="5.53243">
        <ele>1226.3</ele>
        <time>2012-09-09T14:26:45Z</time>
      </trkpt>
      <trkpt lat="44.73207" lon="5.53272">
        <ele>1228.22</ele>
        <time>2012-09-09T14:26:23Z</time>
      </trkpt>
      <trkpt lat="44.73213" lon="5.5329">
        <ele>1216.69</ele>
        <time>2012-09-09T14:26:05Z</time>
      </trkpt>
      <trkpt lat="44.73218" lon="5.53297">
        <ele>1214.76</ele>
        <time>2012-09-09T14:25:52Z</time>
      </trkpt>
      <trkpt lat="44.73226" lon="5.53289">
        <ele>1217.65</ele>
        <time>2012-09-09T14:25:33Z</time>
      </trkpt>
      <trkpt lat="44.73238" lon="5.53274">
        <ele>1218.61</ele>
        <time>2012-09-09T14:25:13Z</time>
      </trkpt>
      <trkpt lat="44.73251" lon="5.53261">
        <ele>1226.3</ele>
        <time>2012-09-09T14:24:50Z</time>
      </trkpt>
      <trkpt lat="44.7326" lon="5.53249">
        <ele>1230.62</ele>
        <time>2012-09-09T14:24:31Z</time>
      </trkpt>
      <trkpt lat="44.7327" lon="5.53243">
        <ele>1238.8</ele>
        <time>2012-09-09T14:24:11Z</time>
      </trkpt>
      <trkpt lat="44.73278" lon="5.53242">
        <ele>1239.76</ele>
        <time>2012-09-09T14:23:50Z</time>
      </trkpt>
      <trkpt lat="44.73287" lon="5.53241">
        <ele>1249.85</ele>
        <time>2012-09-09T14:23:31Z</time>
      </trkpt>
      <trkpt lat="44.73296" lon="5.53253">
        <ele>1252.25</ele>
        <time>2012-09-09T14:23:10Z</time>
      </trkpt>
      <trkpt lat="44.73306" lon="5.53265">
        <ele>1255.14</ele>
        <time>2012-09-09T14:22:49Z</time>
      </trkpt>
      <trkpt lat="44.73313" lon="5.53271">
        <ele>1258.02</ele>
        <time>2012-09-09T14:22:32Z</time>
      </trkpt>
      <trkpt lat="44.73316" lon="5.53295">
        <ele>1260.43</ele>
        <time>2012-09-09T14:22:07Z</time>
      </trkpt>
      <trkpt lat="44.73324" lon="5.53326">
        <ele>1263.31</ele>
        <time>2012-09-09T14:21:43Z</time>
      </trkpt>
      <trkpt lat="44.73325" lon="5.53327">
        <ele>1263.31</ele>
        <time>2012-09-09T14:21:42Z</time>
      </trkpt>
      <trkpt lat="44.73333" lon="5.53348">
        <ele>1274.36</ele>
        <time>2012-09-09T14:21:21Z</time>
      </trkpt>
      <trkpt lat="44.73342" lon="5.53363">
        <ele>1271.96</ele>
        <time>2012-09-09T14:21:03Z</time>
      </trkpt>
      <trkpt lat="44.7335" lon="5.53378">
        <ele>1271.96</ele>
        <time>2012-09-09T14:20:45Z</time>
      </trkpt>
      <trkpt lat="44.73359" lon="5.53399">
        <ele>1272.92</ele>
        <time>2012-09-09T14:20:25Z</time>
      </trkpt>
      <trkpt lat="44.73362" lon="5.53401">
        <ele>1272.44</ele>
        <time>2012-09-09T14:20:19Z</time>
      </trkpt>
      <trkpt lat="44.73374" lon="5.53418">
        <ele>1270.04</ele>
        <time>2012-09-09T14:19:59Z</time>
      </trkpt>
      <trkpt lat="44.73382" lon="5.53435">
        <ele>1272.92</ele>
        <time>2012-09-09T14:19:38Z</time>
      </trkpt>
      <trkpt lat="44.73394" lon="5.53437">
        <ele>1276.29</ele>
        <time>2012-09-09T14:19:19Z</time>
      </trkpt>
      <trkpt lat="44.73402" lon="5.53444">
        <ele>1275.81</ele>
        <time>2012-09-09T14:19:03Z</time>
      </trkpt>
      <trkpt lat="44.73407" lon="5.53442">
        <ele>1276.77</ele>
        <time>2012-09-09T14:18:47Z</time>
      </trkpt>
      <trkpt lat="44.73415" lon="5.53441">
        <ele>1279.17</ele>
        <time>2012-09-09T14:18:28Z</time>
      </trkpt>
      <trkpt lat="44.73425" lon="5.53439">
        <ele>1282.06</ele>
        <time>2012-09-09T14:18:09Z</time>
      </trkpt>
      <trkpt lat="44.73436" lon="5.53447">
        <ele>1286.38</ele>
        <time>2012-09-09T14:17:49Z</time>
      </trkpt>
      <trkpt lat="44.73451" lon="5.53457">
        <ele>1294.55</ele>
        <time>2012-09-09T14:17:27Z</time>
      </trkpt>
      <trkpt lat="44.73461" lon="5.53448">
        <ele>1295.99</ele>
        <time>2012-09-09T14:17:07Z</time>
      </trkpt>
      <trkpt lat="44.73467" lon="5.53451">
        <ele>1300.8</ele>
        <time>2012-09-09T14:16:50Z</time>
      </trkpt>
      <trkpt lat="44.73471" lon="5.53447">
        <ele>1302.72</ele>
        <time>2012-09-09T14:16:32Z</time>
      </trkpt>
      <trkpt lat="44.73489" lon="5.53455">
        <ele>1309.93</ele>
        <time>2012-09-09T14:16:08Z</time>
      </trkpt>
      <trkpt lat="44.735" lon="5.53448">
        <ele>1320.03</ele>
        <time>2012-09-09T14:15:47Z</time>
      </trkpt>
      <trkpt lat="44.73516" lon="5.5344">
        <ele>1323.39</ele>
        <time>2012-09-09T14:15:26Z</time>
      </trkpt>
      <trkpt lat="44.73529" lon="5.53445">
        <ele>1325.8</ele>
        <time>2012-09-09T14:15:06Z</time>
      </trkpt>
      <trkpt lat="44.73531" lon="5.53437">
        <ele>1329.64</ele>
        <time>2012-09-09T14:14:46Z</time>
      </trkpt>
      <trkpt lat="44.73542" lon="5.53431">
        <ele>1339.73</ele>
        <time>2012-09-09T14:14:28Z</time>
      </trkpt>
      <trkpt lat="44.73545" lon="5.53431">
        <ele>1340.7</ele>
        <time>2012-09-09T14:14:25Z</time>
      </trkpt>
      <trkpt lat="44.73561" lon="5.53439">
        <ele>1347.43</ele>
        <time>2012-09-09T14:14:02Z</time>
      </trkpt>
      <trkpt lat="44.73575" lon="5.53447">
        <ele>1347.91</ele>
        <time>2012-09-09T14:13:41Z</time>
      </trkpt>
      <trkpt lat="44.73589" lon="5.5346">
        <ele>1347.43</ele>
        <time>2012-09-09T14:13:19Z</time>
      </trkpt>
      <trkpt lat="44.73598" lon="5.53462">
        <ele>1347.43</ele>
        <time>2012-09-09T14:12:59Z</time>
      </trkpt>
      <trkpt lat="44.73601" lon="5.53462">
        <ele>1346.46</ele>
        <time>2012-09-09T14:12:36Z</time>
      </trkpt>
      <trkpt lat="44.73602" lon="5.53459">
        <ele>1345.5</ele>
        <time>2012-09-09T14:12:12Z</time>
      </trkpt>
      <trkpt lat="44.73602" lon="5.53454">
        <ele>1347.43</ele>
        <time>2012-09-09T14:11:43Z</time>
      </trkpt>
      <trkpt lat="44.73604" lon="5.53456">
        <ele>1345.5</ele>
        <time>2012-09-09T14:11:08Z</time>
      </trkpt>
      <trkpt lat="44.736" lon="5.53452">
        <ele>1343.1</ele>
        <time>2012-09-09T14:10:19Z</time>
      </trkpt>
      <trkpt lat="44.73601" lon="5.53458">
        <ele>1341.18</ele>
        <time>2012-09-09T14:09:38Z</time>
      </trkpt>
      <trkpt lat="44.73596" lon="5.53459">
        <ele>1339.25</ele>
        <time>2012-09-09T14:09:16Z</time>
      </trkpt>
      <trkpt lat="44.73602" lon="5.53463">
        <ele>1337.81</ele>
        <time>2012-09-09T14:08:51Z</time>
      </trkpt>
      <trkpt lat="44.73604" lon="5.53464">
        <ele>1335.41</ele>
        <time>2012-09-09T14:08:30Z</time>
      </trkpt>
      <trkpt lat="44.73608" lon="5.53463">
        <ele>1334.93</ele>
        <time>2012-09-09T14:07:59Z</time>
      </trkpt>
      <trkpt lat="44.73619" lon="5.53476">
        <ele>1338.29</ele>
        <time>2012-09-09T14:07:31Z</time>
      </trkpt>
      <trkpt lat="44.73636" lon="5.53472">
        <ele>1340.7</ele>
        <time>2012-09-09T14:07:09Z</time>
      </trkpt>
      <trkpt lat="44.73637" lon="5.5347">
        <ele>1340.7</ele>
        <time>2012-09-09T14:07:07Z</time>
      </trkpt>
      <trkpt lat="44.73653" lon="5.53467">
        <ele>1343.58</ele>
        <time>2012-09-09T14:06:47Z</time>
      </trkpt>
      <trkpt lat="44.73661" lon="5.53466">
        <ele>1348.39</ele>
        <time>2012-09-09T14:06:41Z</time>
      </trkpt>
      <trkpt lat="44.73681" lon="5.53458">
        <ele>1357.52</ele>
        <time>2012-09-09T14:06:22Z</time>
      </trkpt>
      <trkpt lat="44.73696" lon="5.53452">
        <ele>1357.52</ele>
        <time>2012-09-09T14:06:04Z</time>
      </trkpt>
      <trkpt lat="44.73714" lon="5.53442">
        <ele>1358.96</ele>
        <time>2012-09-09T14:05:42Z</time>
      </trkpt>
      <trkpt lat="44.73731" lon="5.53433">
        <ele>1363.29</ele>
        <time>2012-09-09T14:05:24Z</time>
      </trkpt>
      <trkpt lat="44.73747" lon="5.53424">
        <ele>1364.73</ele>
        <time>2012-09-09T14:05:05Z</time>
      </trkpt>
      <trkpt lat="44.73764" lon="5.53413">
        <ele>1364.25</ele>
        <time>2012-09-09T14:04:45Z</time>
      </trkpt>
      <trkpt lat="44.73779" lon="5.53406">
        <ele>1369.05</ele>
        <time>2012-09-09T14:04:23Z</time>
      </trkpt>
      <trkpt lat="44.73791" lon="5.53396">
        <ele>1370.02</ele>
        <time>2012-09-09T14:04:02Z</time>
      </trkpt>
      <trkpt lat="44.73803" lon="5.53387">
        <ele>1373.86</ele>
        <time>2012-09-09T14:03:43Z</time>
      </trkpt>
      <trkpt lat="44.73817" lon="5.53385">
        <ele>1373.86</ele>
        <time>2012-09-09T14:03:16Z</time>
      </trkpt>
      <trkpt lat="44.73832" lon="5.53376">
        <ele>1374.82</ele>
        <time>2012-09-09T14:02:54Z</time>
      </trkpt>
      <trkpt lat="44.73852" lon="5.53367">
        <ele>1380.59</ele>
        <time>2012-09-09T14:02:29Z</time>
      </trkpt>
      <trkpt lat="44.73866" lon="5.53362">
        <ele>1383.47</ele>
        <time>2012-09-09T14:02:11Z</time>
      </trkpt>
      <trkpt lat="44.73879" lon="5.53356">
        <ele>1383.96</ele>
        <time>2012-09-09T14:01:54Z</time>
      </trkpt>
      <trkpt lat="44.73897" lon="5.53351">
        <ele>1387.8</ele>
        <time>2012-09-09T14:01:32Z</time>
      </trkpt>
      <trkpt lat="44.73904" lon="5.53348">
        <ele>1387.32</ele>
        <time>2012-09-09T14:01:23Z</time>
      </trkpt>
      <trkpt lat="44.73921" lon="5.53347">
        <ele>1385.88</ele>
        <time>2012-09-09T14:01:02Z</time>
      </trkpt>
      <trkpt lat="44.73928" lon="5.5335">
        <ele>1389.24</ele>
        <time>2012-09-09T14:00:39Z</time>
      </trkpt>
      <trkpt lat="44.73945" lon="5.53357">
        <ele>1396.93</ele>
        <time>2012-09-09T14:00:19Z</time>
      </trkpt>
      <trkpt lat="44.73963" lon="5.53364">
        <ele>1401.74</ele>
        <time>2012-09-09T13:59:55Z</time>
      </trkpt>
      <trkpt lat="44.73976" lon="5.53369">
        <ele>1403.66</ele>
        <time>2012-09-09T13:59:35Z</time>
      </trkpt>
      <trkpt lat="44.7397" lon="5.53352">
        <ele>1406.07</ele>
        <time>2012-09-09T13:59:13Z</time>
      </trkpt>
      <trkpt lat="44.73962" lon="5.53338">
        <ele>1406.55</ele>
        <time>2012-09-09T13:58:53Z</time>
      </trkpt>
      <trkpt lat="44.7395" lon="5.53321">
        <ele>1409.43</ele>
        <time>2012-09-09T13:58:33Z</time>
      </trkpt>
      <trkpt lat="44.73934" lon="5.53307">
        <ele>1414.24</ele>
        <time>2012-09-09T13:58:12Z</time>
      </trkpt>
      <trkpt lat="44.73923" lon="5.53296">
        <ele>1420</ele>
        <time>2012-09-09T13:57:54Z</time>
      </trkpt>
      <trkpt lat="44.73909" lon="5.53278">
        <ele>1423.85</ele>
        <time>2012-09-09T13:57:32Z</time>
      </trkpt>
      <trkpt lat="44.73898" lon="5.53262">
        <ele>1426.73</ele>
        <time>2012-09-09T13:57:19Z</time>
      </trkpt>
      <trkpt lat="44.73892" lon="5.53257">
        <ele>1427.7</ele>
        <time>2012-09-09T13:57:12Z</time>
      </trkpt>
      <trkpt lat="44.73879" lon="5.53252">
        <ele>1434.91</ele>
        <time>2012-09-09T13:56:50Z</time>
      </trkpt>
      <trkpt lat="44.73861" lon="5.53242">
        <ele>1440.67</ele>
        <time>2012-09-09T13:56:30Z</time>
      </trkpt>
      <trkpt lat="44.73845" lon="5.53239">
        <ele>1447.4</ele>
        <time>2012-09-09T13:56:12Z</time>
      </trkpt>
      <trkpt lat="44.73828" lon="5.53229">
        <ele>1445.96</ele>
        <time>2012-09-09T13:55:53Z</time>
      </trkpt>
      <trkpt lat="44.73816" lon="5.53232">
        <ele>1445.96</ele>
        <time>2012-09-09T13:55:36Z</time>
      </trkpt>
      <trkpt lat="44.73797" lon="5.53235">
        <ele>1451.25</ele>
        <time>2012-09-09T13:55:14Z</time>
      </trkpt>
      <trkpt lat="44.73778" lon="5.53231">
        <ele>1455.57</ele>
        <time>2012-09-09T13:54:51Z</time>
      </trkpt>
      <trkpt lat="44.73758" lon="5.53231">
        <ele>1461.34</ele>
        <time>2012-09-09T13:54:29Z</time>
      </trkpt>
      <trkpt lat="44.73744" lon="5.53223">
        <ele>1462.78</ele>
        <time>2012-09-09T13:54:07Z</time>
      </trkpt>
      <trkpt lat="44.73727" lon="5.53222">
        <ele>1467.11</ele>
        <time>2012-09-09T13:53:47Z</time>
      </trkpt>
      <trkpt lat="44.73709" lon="5.53201">
        <ele>1479.13</ele>
        <time>2012-09-09T13:53:23Z</time>
      </trkpt>
      <trkpt lat="44.73708" lon="5.53183">
        <ele>1483.93</ele>
        <time>2012-09-09T13:53:00Z</time>
      </trkpt>
      <trkpt lat="44.73729" lon="5.5317">
        <ele>1488.74</ele>
        <time>2012-09-09T13:52:37Z</time>
      </trkpt>
      <trkpt lat="44.73743" lon="5.53158">
        <ele>1490.66</ele>
        <time>2012-09-09T13:52:16Z</time>
      </trkpt>
      <trkpt lat="44.7376" lon="5.53156">
        <ele>1497.39</ele>
        <time>2012-09-09T13:51:57Z</time>
      </trkpt>
      <trkpt lat="44.73774" lon="5.53149">
        <ele>1496.91</ele>
        <time>2012-09-09T13:51:38Z</time>
      </trkpt>
      <trkpt lat="44.73792" lon="5.5314">
        <ele>1495.95</ele>
        <time>2012-09-09T13:51:13Z</time>
      </trkpt>
      <trkpt lat="44.73814" lon="5.53128">
        <ele>1496.43</ele>
        <time>2012-09-09T13:50:51Z</time>
      </trkpt>
      <trkpt lat="44.73829" lon="5.53122">
        <ele>1499.31</ele>
        <time>2012-09-09T13:50:31Z</time>
      </trkpt>
      <trkpt lat="44.73848" lon="5.53119">
        <ele>1503.16</ele>
        <time>2012-09-09T13:50:11Z</time>
      </trkpt>
      <trkpt lat="44.73865" lon="5.53116">
        <ele>1506.52</ele>
        <time>2012-09-09T13:49:51Z</time>
      </trkpt>
      <trkpt lat="44.73884" lon="5.53114">
        <ele>1509.89</ele>
        <time>2012-09-09T13:49:28Z</time>
      </trkpt>
      <trkpt lat="44.73901" lon="5.5311">
        <ele>1515.18</ele>
        <time>2012-09-09T13:49:08Z</time>
      </trkpt>
      <trkpt lat="44.73931" lon="5.53115">
        <ele>1528.15</ele>
        <time>2012-09-09T13:48:46Z</time>
      </trkpt>
      <trkpt lat="44.73957" lon="5.53109">
        <ele>1528.63</ele>
        <time>2012-09-09T13:48:24Z</time>
      </trkpt>
      <trkpt lat="44.7397" lon="5.53107">
        <ele>1525.27</ele>
        <time>2012-09-09T13:48:05Z</time>
      </trkpt>
      <trkpt lat="44.73981" lon="5.53108">
        <ele>1519.5</ele>
        <time>2012-09-09T13:47:44Z</time>
      </trkpt>
      <trkpt lat="44.74" lon="5.53114">
        <ele>1524.31</ele>
        <time>2012-09-09T13:47:22Z</time>
      </trkpt>
      <trkpt lat="44.74016" lon="5.53128">
        <ele>1532.48</ele>
        <time>2012-09-09T13:47:02Z</time>
      </trkpt>
      <trkpt lat="44.74033" lon="5.53142">
        <ele>1530.08</ele>
        <time>2012-09-09T13:46:37Z</time>
      </trkpt>
      <trkpt lat="44.74047" lon="5.53157">
        <ele>1532</ele>
        <time>2012-09-09T13:46:17Z</time>
      </trkpt>
      <trkpt lat="44.74054" lon="5.53171">
        <ele>1532.96</ele>
        <time>2012-09-09T13:46:04Z</time>
      </trkpt>
      <trkpt lat="44.7407" lon="5.53199">
        <ele>1540.17</ele>
        <time>2012-09-09T13:45:42Z</time>
      </trkpt>
      <trkpt lat="44.74085" lon="5.53199">
        <ele>1547.38</ele>
        <time>2012-09-09T13:45:20Z</time>
      </trkpt>
      <trkpt lat="44.74101" lon="5.53198">
        <ele>1554.59</ele>
        <time>2012-09-09T13:45:00Z</time>
      </trkpt>
      <trkpt lat="44.74112" lon="5.53195">
        <ele>1556.51</ele>
        <time>2012-09-09T13:44:44Z</time>
      </trkpt>
      <trkpt lat="44.74121" lon="5.53184">
        <ele>1561.32</ele>
        <time>2012-09-09T13:44:24Z</time>
      </trkpt>
      <trkpt lat="44.74135" lon="5.53166">
        <ele>1567.57</ele>
        <time>2012-09-09T13:44:03Z</time>
      </trkpt>
      <trkpt lat="44.74138" lon="5.53147">
        <ele>1569.49</ele>
        <time>2012-09-09T13:43:43Z</time>
      </trkpt>
      <trkpt lat="44.74133" lon="5.53139">
        <ele>1569.49</ele>
        <time>2012-09-09T13:43:35Z</time>
      </trkpt>
      <trkpt lat="44.74128" lon="5.53129">
        <ele>1570.93</ele>
        <time>2012-09-09T13:43:18Z</time>
      </trkpt>
      <trkpt lat="44.7412" lon="5.53134">
        <ele>1573.82</ele>
        <time>2012-09-09T13:42:56Z</time>
      </trkpt>
      <trkpt lat="44.74126" lon="5.53129">
        <ele>1576.7</ele>
        <time>2012-09-09T13:42:37Z</time>
      </trkpt>
      <trkpt lat="44.74127" lon="5.53124">
        <ele>1582.95</ele>
        <time>2012-09-09T13:42:22Z</time>
      </trkpt>
      <trkpt lat="44.74131" lon="5.53122">
        <ele>1583.43</ele>
        <time>2012-09-09T13:42:17Z</time>
      </trkpt>
      <trkpt lat="44.7414" lon="5.53114">
        <ele>1581.99</ele>
        <time>2012-09-09T13:42:04Z</time>
      </trkpt>
      <trkpt lat="44.74154" lon="5.53107">
        <ele>1578.14</ele>
        <time>2012-09-09T13:41:44Z</time>
      </trkpt>
      <trkpt lat="44.74171" lon="5.53104">
        <ele>1577.66</ele>
        <time>2012-09-09T13:41:24Z</time>
      </trkpt>
      <trkpt lat="44.74179" lon="5.53103">
        <ele>1577.18</ele>
        <time>2012-09-09T13:41:04Z</time>
      </trkpt>
      <trkpt lat="44.74186" lon="5.531">
        <ele>1574.78</ele>
        <time>2012-09-09T13:40:45Z</time>
      </trkpt>
      <trkpt lat="44.74193" lon="5.53098">
        <ele>1573.33</ele>
        <time>2012-09-09T13:40:24Z</time>
      </trkpt>
      <trkpt lat="44.74195" lon="5.53096">
        <ele>1575.26</ele>
        <time>2012-09-09T13:40:11Z</time>
      </trkpt>
      <trkpt lat="44.74195" lon="5.53103">
        <ele>1574.78</ele>
        <time>2012-09-09T13:39:46Z</time>
      </trkpt>
      <trkpt lat="44.74195" lon="5.53102">
        <ele>1574.3</ele>
        <time>2012-09-09T13:39:22Z</time>
      </trkpt>
      <trkpt lat="44.74197" lon="5.53097">
        <ele>1571.89</ele>
        <time>2012-09-09T13:38:43Z</time>
      </trkpt>
      <trkpt lat="44.742" lon="5.53091">
        <ele>1569.49</ele>
        <time>2012-09-09T13:38:09Z</time>
      </trkpt>
      <trkpt lat="44.74201" lon="5.53087">
        <ele>1572.85</ele>
        <time>2012-09-09T13:37:52Z</time>
      </trkpt>
      <trkpt lat="44.74198" lon="5.53086">
        <ele>1574.78</ele>
        <time>2012-09-09T13:37:11Z</time>
      </trkpt>
      <trkpt lat="44.74194" lon="5.53085">
        <ele>1574.3</ele>
        <time>2012-09-09T13:36:14Z</time>
      </trkpt>
      <trkpt lat="44.74198" lon="5.53085">
        <ele>1572.85</ele>
        <time>2012-09-09T13:35:34Z</time>
      </trkpt>
      <trkpt lat="44.742" lon="5.53088">
        <ele>1569.97</ele>
        <time>2012-09-09T13:34:59Z</time>
      </trkpt>
      <trkpt lat="44.74214" lon="5.53085">
        <ele>1569.49</ele>
        <time>2012-09-09T13:34:40Z</time>
      </trkpt>
      <trkpt lat="44.74216" lon="5.53085">
        <ele>1569.97</ele>
        <time>2012-09-09T13:34:38Z</time>
      </trkpt>
      <trkpt lat="44.74222" lon="5.53086">
        <ele>1570.93</ele>
        <time>2012-09-09T13:34:20Z</time>
      </trkpt>
      <trkpt lat="44.74222" lon="5.53086">
        <ele>1572.37</ele>
        <time>2012-09-09T13:34:10Z</time>
      </trkpt>
      <trkpt lat="44.74231" lon="5.53089">
        <ele>1570.45</ele>
        <time>2012-09-09T13:33:41Z</time>
      </trkpt>
      <trkpt lat="44.74231" lon="5.53084">
        <ele>1571.41</ele>
        <time>2012-09-09T13:33:15Z</time>
      </trkpt>
      <trkpt lat="44.7424" lon="5.53077">
        <ele>1570.93</ele>
        <time>2012-09-09T13:32:57Z</time>
      </trkpt>
      <trkpt lat="44.74253" lon="5.53061">
        <ele>1570.45</ele>
        <time>2012-09-09T13:32:38Z</time>
      </trkpt>
      <trkpt lat="44.74264" lon="5.53045">
        <ele>1569.01</ele>
        <time>2012-09-09T13:32:21Z</time>
      </trkpt>
      <trkpt lat="44.74275" lon="5.5304">
        <ele>1565.64</ele>
        <time>2012-09-09T13:32:04Z</time>
      </trkpt>
      <trkpt lat="44.74279" lon="5.53037">
        <ele>1564.2</ele>
        <time>2012-09-09T13:32:00Z</time>
      </trkpt>
      <trkpt lat="44.74287" lon="5.53035">
        <ele>1562.76</ele>
        <time>2012-09-09T13:31:51Z</time>
      </trkpt>
      <trkpt lat="44.74294" lon="5.53039">
        <ele>1561.32</ele>
        <time>2012-09-09T13:31:41Z</time>
      </trkpt>
      <trkpt lat="44.74302" lon="5.53055">
        <ele>1561.8</ele>
        <time>2012-09-09T13:31:21Z</time>
      </trkpt>
      <trkpt lat="44.74303" lon="5.53061">
        <ele>1561.8</ele>
        <time>2012-09-09T13:31:13Z</time>
      </trkpt>
      <trkpt lat="44.74305" lon="5.53071">
        <ele>1561.8</ele>
        <time>2012-09-09T13:31:03Z</time>
      </trkpt>
      <trkpt lat="44.74305" lon="5.53083">
        <ele>1561.8</ele>
        <time>2012-09-09T13:30:46Z</time>
      </trkpt>
      <trkpt lat="44.7431" lon="5.53087">
        <ele>1560.84</ele>
        <time>2012-09-09T13:30:27Z</time>
      </trkpt>
      <trkpt lat="44.74319" lon="5.53093">
        <ele>1558.92</ele>
        <time>2012-09-09T13:30:08Z</time>
      </trkpt>
      <trkpt lat="44.74321" lon="5.53093">
        <ele>1558.43</ele>
        <time>2012-09-09T13:29:51Z</time>
      </trkpt>
      <trkpt lat="44.74337" lon="5.53084">
        <ele>1560.36</ele>
        <time>2012-09-09T13:29:29Z</time>
      </trkpt>
      <trkpt lat="44.74339" lon="5.53084">
        <ele>1560.84</ele>
        <time>2012-09-09T13:29:27Z</time>
      </trkpt>
      <trkpt lat="44.74343" lon="5.53088">
        <ele>1562.76</ele>
        <time>2012-09-09T13:29:06Z</time>
      </trkpt>
      <trkpt lat="44.74348" lon="5.53102">
        <ele>1565.64</ele>
        <time>2012-09-09T13:28:46Z</time>
      </trkpt>
      <trkpt lat="44.7435" lon="5.53104">
        <ele>1566.12</ele>
        <time>2012-09-09T13:28:43Z</time>
      </trkpt>
      <trkpt lat="44.74357" lon="5.53115">
        <ele>1567.09</ele>
        <time>2012-09-09T13:28:33Z</time>
      </trkpt>
      <trkpt lat="44.74359" lon="5.53118">
        <ele>1568.05</ele>
        <time>2012-09-09T13:28:30Z</time>
      </trkpt>
      <trkpt lat="44.74366" lon="5.53129">
        <ele>1569.97</ele>
        <time>2012-09-09T13:28:19Z</time>
      </trkpt>
      <trkpt lat="44.74368" lon="5.53131">
        <ele>1570.45</ele>
        <time>2012-09-09T13:28:17Z</time>
      </trkpt>
      <trkpt lat="44.74371" lon="5.53138">
        <ele>1572.85</ele>
        <time>2012-09-09T13:28:11Z</time>
      </trkpt>
      <trkpt lat="44.74373" lon="5.53141">
        <ele>1573.82</ele>
        <time>2012-09-09T13:28:09Z</time>
      </trkpt>
      <trkpt lat="44.74374" lon="5.53149">
        <ele>1576.22</ele>
        <time>2012-09-09T13:28:05Z</time>
      </trkpt>
      <trkpt lat="44.74381" lon="5.53169">
        <ele>1580.54</ele>
        <time>2012-09-09T13:27:49Z</time>
      </trkpt>
      <trkpt lat="44.74392" lon="5.53188">
        <ele>1582.47</ele>
        <time>2012-09-09T13:27:34Z</time>
      </trkpt>
      <trkpt lat="44.74406" lon="5.53205">
        <ele>1583.91</ele>
        <time>2012-09-09T13:27:15Z</time>
      </trkpt>
      <trkpt lat="44.74409" lon="5.53209">
        <ele>1582.95</ele>
        <time>2012-09-09T13:27:09Z</time>
      </trkpt>
      <trkpt lat="44.74413" lon="5.53223">
        <ele>1578.14</ele>
        <time>2012-09-09T13:26:52Z</time>
      </trkpt>
      <trkpt lat="44.74417" lon="5.53248">
        <ele>1574.78</ele>
        <time>2012-09-09T13:26:33Z</time>
      </trkpt>
      <trkpt lat="44.74421" lon="5.53255">
        <ele>1573.33</ele>
        <time>2012-09-09T13:26:25Z</time>
      </trkpt>
      <trkpt lat="44.74419" lon="5.53267">
        <ele>1569.97</ele>
        <time>2012-09-09T13:26:07Z</time>
      </trkpt>
      <trkpt lat="44.74415" lon="5.53272">
        <ele>1570.45</ele>
        <time>2012-09-09T13:25:51Z</time>
      </trkpt>
      <trkpt lat="44.74412" lon="5.53284">
        <ele>1569.97</ele>
        <time>2012-09-09T13:25:35Z</time>
      </trkpt>
      <trkpt lat="44.74414" lon="5.5329">
        <ele>1570.93</ele>
        <time>2012-09-09T13:25:00Z</time>
      </trkpt>
      <trkpt lat="44.74413" lon="5.53288">
        <ele>1571.41</ele>
        <time>2012-09-09T13:24:36Z</time>
      </trkpt>
      <trkpt lat="44.74411" lon="5.53271">
        <ele>1580.06</ele>
        <time>2012-09-09T13:24:02Z</time>
      </trkpt>
      <trkpt lat="44.74417" lon="5.53259">
        <ele>1581.99</ele>
        <time>2012-09-09T13:23:43Z</time>
      </trkpt>
      <trkpt lat="44.74419" lon="5.53255">
        <ele>1581.03</ele>
        <time>2012-09-09T13:23:39Z</time>
      </trkpt>
      <trkpt lat="44.74419" lon="5.53237">
        <ele>1579.58</ele>
        <time>2012-09-09T13:23:24Z</time>
      </trkpt>
      <trkpt lat="44.74416" lon="5.53216">
        <ele>1576.22</ele>
        <time>2012-09-09T13:23:04Z</time>
      </trkpt>
      <trkpt lat="44.74418" lon="5.53213">
        <ele>1576.22</ele>
        <time>2012-09-09T13:22:43Z</time>
      </trkpt>
      <trkpt lat="44.74415" lon="5.53241">
        <ele>1585.83</ele>
        <time>2012-09-09T13:22:23Z</time>
      </trkpt>
      <trkpt lat="44.74416" lon="5.53245">
        <ele>1585.83</ele>
        <time>2012-09-09T13:22:20Z</time>
      </trkpt>
      <trkpt lat="44.74418" lon="5.53251">
        <ele>1585.83</ele>
        <time>2012-09-09T13:22:16Z</time>
      </trkpt>
      <trkpt lat="44.74426" lon="5.53263">
        <ele>1585.83</ele>
        <time>2012-09-09T13:22:06Z</time>
      </trkpt>
      <trkpt lat="44.74443" lon="5.53276">
        <ele>1586.79</ele>
        <time>2012-09-09T13:21:48Z</time>
      </trkpt>
      <trkpt lat="44.74462" lon="5.5329">
        <ele>1589.68</ele>
        <time>2012-09-09T13:21:27Z</time>
      </trkpt>
      <trkpt lat="44.74476" lon="5.53292">
        <ele>1592.08</ele>
        <time>2012-09-09T13:21:06Z</time>
      </trkpt>
      <trkpt lat="44.74477" lon="5.53292">
        <ele>1592.08</ele>
        <time>2012-09-09T13:21:04Z</time>
      </trkpt>
      <trkpt lat="44.74482" lon="5.53298">
        <ele>1592.08</ele>
        <time>2012-09-09T13:20:42Z</time>
      </trkpt>
      <trkpt lat="44.74483" lon="5.53302">
        <ele>1594.48</ele>
        <time>2012-09-09T13:20:14Z</time>
      </trkpt>
      <trkpt lat="44.74484" lon="5.53296">
        <ele>1594</ele>
        <time>2012-09-09T13:19:47Z</time>
      </trkpt>
      <trkpt lat="44.74509" lon="5.53301">
        <ele>1594</ele>
        <time>2012-09-09T13:19:27Z</time>
      </trkpt>
      <trkpt lat="44.74521" lon="5.533">
        <ele>1587.75</ele>
        <time>2012-09-09T13:19:04Z</time>
      </trkpt>
      <trkpt lat="44.74525" lon="5.53303">
        <ele>1587.27</ele>
        <time>2012-09-09T13:18:41Z</time>
      </trkpt>
      <trkpt lat="44.74535" lon="5.53297">
        <ele>1591.6</ele>
        <time>2012-09-09T13:18:16Z</time>
      </trkpt>
      <trkpt lat="44.74533" lon="5.53303">
        <ele>1594.96</ele>
        <time>2012-09-09T13:17:52Z</time>
      </trkpt>
      <trkpt lat="44.74537" lon="5.53298">
        <ele>1597.85</ele>
        <time>2012-09-09T13:17:25Z</time>
      </trkpt>
      <trkpt lat="44.74557" lon="5.53303">
        <ele>1606.02</ele>
        <time>2012-09-09T13:16:58Z</time>
      </trkpt>
      <trkpt lat="44.74575" lon="5.53299">
        <ele>1604.1</ele>
        <time>2012-09-09T13:16:33Z</time>
      </trkpt>
      <trkpt lat="44.7459" lon="5.53294">
        <ele>1598.81</ele>
        <time>2012-09-09T13:16:13Z</time>
      </trkpt>
      <trkpt lat="44.74608" lon="5.53284">
        <ele>1595.45</ele>
        <time>2012-09-09T13:15:51Z</time>
      </trkpt>
      <trkpt lat="44.74632" lon="5.53271">
        <ele>1594</ele>
        <time>2012-09-09T13:15:27Z</time>
      </trkpt>
      <trkpt lat="44.7465" lon="5.53262">
        <ele>1597.85</ele>
        <time>2012-09-09T13:15:09Z</time>
      </trkpt>
      <trkpt lat="44.74671" lon="5.5325">
        <ele>1598.33</ele>
        <time>2012-09-09T13:14:48Z</time>
      </trkpt>
      <trkpt lat="44.74682" lon="5.53252">
        <ele>1599.77</ele>
        <time>2012-09-09T13:14:40Z</time>
      </trkpt>
      <trkpt lat="44.747" lon="5.53248">
        <ele>1593.04</ele>
        <time>2012-09-09T13:14:19Z</time>
      </trkpt>
      <trkpt lat="44.74715" lon="5.53244">
        <ele>1587.27</ele>
        <time>2012-09-09T13:13:57Z</time>
      </trkpt>
      <trkpt lat="44.74737" lon="5.53255">
        <ele>1589.68</ele>
        <time>2012-09-09T13:13:34Z</time>
      </trkpt>
      <trkpt lat="44.74763" lon="5.53268">
        <ele>1597.37</ele>
        <time>2012-09-09T13:13:14Z</time>
      </trkpt>
      <trkpt lat="44.74796" lon="5.53272">
        <ele>1603.62</ele>
        <time>2012-09-09T13:12:51Z</time>
      </trkpt>
      <trkpt lat="44.74816" lon="5.53268">
        <ele>1603.62</ele>
        <time>2012-09-09T13:12:29Z</time>
      </trkpt>
      <trkpt lat="44.74836" lon="5.53264">
        <ele>1605.06</ele>
        <time>2012-09-09T13:12:12Z</time>
      </trkpt>
      <trkpt lat="44.74848" lon="5.53242">
        <ele>1607.46</ele>
        <time>2012-09-09T13:11:50Z</time>
      </trkpt>
      <trkpt lat="44.74859" lon="5.53222">
        <ele>1609.38</ele>
        <time>2012-09-09T13:11:32Z</time>
      </trkpt>
      <trkpt lat="44.74874" lon="5.53203">
        <ele>1609.38</ele>
        <time>2012-09-09T13:11:11Z</time>
      </trkpt>
      <trkpt lat="44.74889" lon="5.53181">
        <ele>1613.23</ele>
        <time>2012-09-09T13:10:50Z</time>
      </trkpt>
      <trkpt lat="44.74898" lon="5.53162">
        <ele>1608.9</ele>
        <time>2012-09-09T13:10:31Z</time>
      </trkpt>
      <trkpt lat="44.74907" lon="5.53143">
        <ele>1604.58</ele>
        <time>2012-09-09T13:10:12Z</time>
      </trkpt>
      <trkpt lat="44.74908" lon="5.53134">
        <ele>1606.98</ele>
        <time>2012-09-09T13:10:02Z</time>
      </trkpt>
      <trkpt lat="44.74907" lon="5.53121">
        <ele>1615.15</ele>
        <time>2012-09-09T13:09:30Z</time>
      </trkpt>
      <trkpt lat="44.74906" lon="5.53095">
        <ele>1620.44</ele>
        <time>2012-09-09T13:09:10Z</time>
      </trkpt>
      <trkpt lat="44.7491" lon="5.53086">
        <ele>1621.88</ele>
        <time>2012-09-09T13:09:03Z</time>
      </trkpt>
      <trkpt lat="44.74916" lon="5.53065">
        <ele>1624.77</ele>
        <time>2012-09-09T13:08:47Z</time>
      </trkpt>
      <trkpt lat="44.74916" lon="5.53062">
        <ele>1624.28</ele>
        <time>2012-09-09T13:08:44Z</time>
      </trkpt>
      <trkpt lat="44.74925" lon="5.53039">
        <ele>1622.84</ele>
        <time>2012-09-09T13:08:25Z</time>
      </trkpt>
      <trkpt lat="44.74934" lon="5.53022">
        <ele>1619.96</ele>
        <time>2012-09-09T13:08:10Z</time>
      </trkpt>
      <trkpt lat="44.74935" lon="5.53018">
        <ele>1619.48</ele>
        <time>2012-09-09T13:08:07Z</time>
      </trkpt>
      <trkpt lat="44.74944" lon="5.53008">
        <ele>1620.44</ele>
        <time>2012-09-09T13:07:53Z</time>
      </trkpt>
      <trkpt lat="44.74962" lon="5.5298">
        <ele>1623.8</ele>
        <time>2012-09-09T13:07:30Z</time>
      </trkpt>
      <trkpt lat="44.74979" lon="5.52962">
        <ele>1619.96</ele>
        <time>2012-09-09T13:07:10Z</time>
      </trkpt>
      <trkpt lat="44.74988" lon="5.52936">
        <ele>1620.92</ele>
        <time>2012-09-09T13:06:50Z</time>
      </trkpt>
      <trkpt lat="44.74988" lon="5.52931">
        <ele>1621.88</ele>
        <time>2012-09-09T13:06:46Z</time>
      </trkpt>
      <trkpt lat="44.75001" lon="5.5291">
        <ele>1620.44</ele>
        <time>2012-09-09T13:06:27Z</time>
      </trkpt>
      <trkpt lat="44.75001" lon="5.52907">
        <ele>1620.92</ele>
        <time>2012-09-09T13:06:25Z</time>
      </trkpt>
      <trkpt lat="44.75001" lon="5.52903">
        <ele>1620.92</ele>
        <time>2012-09-09T13:06:22Z</time>
      </trkpt>
      <trkpt lat="44.75013" lon="5.52886">
        <ele>1618.04</ele>
        <time>2012-09-09T13:06:02Z</time>
      </trkpt>
      <trkpt lat="44.75026" lon="5.52868">
        <ele>1619</ele>
        <time>2012-09-09T13:05:43Z</time>
      </trkpt>
      <trkpt lat="44.75029" lon="5.52859">
        <ele>1619.96</ele>
        <time>2012-09-09T13:05:36Z</time>
      </trkpt>
      <trkpt lat="44.7503" lon="5.52853">
        <ele>1619.96</ele>
        <time>2012-09-09T13:05:32Z</time>
      </trkpt>
      <trkpt lat="44.75033" lon="5.5284">
        <ele>1619.96</ele>
        <time>2012-09-09T13:05:19Z</time>
      </trkpt>
      <trkpt lat="44.75041" lon="5.52828">
        <ele>1620.92</ele>
        <time>2012-09-09T13:05:01Z</time>
      </trkpt>
      <trkpt lat="44.75046" lon="5.52829">
        <ele>1621.88</ele>
        <time>2012-09-09T13:04:54Z</time>
      </trkpt>
      <trkpt lat="44.75055" lon="5.52848">
        <ele>1627.65</ele>
        <time>2012-09-09T13:04:39Z</time>
      </trkpt>
      <trkpt lat="44.75062" lon="5.52869">
        <ele>1631.49</ele>
        <time>2012-09-09T13:04:20Z</time>
      </trkpt>
      <trkpt lat="44.75066" lon="5.52878">
        <ele>1631.01</ele>
        <time>2012-09-09T13:04:12Z</time>
      </trkpt>
      <trkpt lat="44.75068" lon="5.52881">
        <ele>1631.01</ele>
        <time>2012-09-09T13:04:09Z</time>
      </trkpt>
      <trkpt lat="44.7507" lon="5.52887">
        <ele>1631.01</ele>
        <time>2012-09-09T13:04:04Z</time>
      </trkpt>
      <trkpt lat="44.75074" lon="5.52917">
        <ele>1631.98</ele>
        <time>2012-09-09T13:03:41Z</time>
      </trkpt>
      <trkpt lat="44.75074" lon="5.52929">
        <ele>1635.82</ele>
        <time>2012-09-09T13:03:33Z</time>
      </trkpt>
      <trkpt lat="44.75073" lon="5.52952">
        <ele>1644.47</ele>
        <time>2012-09-09T13:03:18Z</time>
      </trkpt>
      <trkpt lat="44.75069" lon="5.52985">
        <ele>1651.2</ele>
        <time>2012-09-09T13:02:57Z</time>
      </trkpt>
      <trkpt lat="44.75074" lon="5.53003">
        <ele>1649.76</ele>
        <time>2012-09-09T13:02:44Z</time>
      </trkpt>
      <trkpt lat="44.75086" lon="5.53035">
        <ele>1648.8</ele>
        <time>2012-09-09T13:02:22Z</time>
      </trkpt>
      <trkpt lat="44.75096" lon="5.53052">
        <ele>1643.99</ele>
        <time>2012-09-09T13:02:02Z</time>
      </trkpt>
      <trkpt lat="44.75108" lon="5.5307">
        <ele>1643.51</ele>
        <time>2012-09-09T13:01:43Z</time>
      </trkpt>
      <trkpt lat="44.75117" lon="5.53098">
        <ele>1643.03</ele>
        <time>2012-09-09T13:01:19Z</time>
      </trkpt>
      <trkpt lat="44.75126" lon="5.53118">
        <ele>1643.51</ele>
        <time>2012-09-09T13:00:58Z</time>
      </trkpt>
      <trkpt lat="44.7514" lon="5.53138">
        <ele>1642.55</ele>
        <time>2012-09-09T13:00:37Z</time>
      </trkpt>
      <trkpt lat="44.75145" lon="5.53145">
        <ele>1641.11</ele>
        <time>2012-09-09T13:00:30Z</time>
      </trkpt>
      <trkpt lat="44.75149" lon="5.53149">
        <ele>1641.59</ele>
        <time>2012-09-09T13:00:24Z</time>
      </trkpt>
      <trkpt lat="44.75156" lon="5.5316">
        <ele>1641.11</ele>
        <time>2012-09-09T13:00:06Z</time>
      </trkpt>
      <trkpt lat="44.7516" lon="5.53164">
        <ele>1642.55</ele>
        <time>2012-09-09T12:59:50Z</time>
      </trkpt>
      <trkpt lat="44.75174" lon="5.53181">
        <ele>1644.95</ele>
        <time>2012-09-09T12:59:27Z</time>
      </trkpt>
      <trkpt lat="44.75173" lon="5.53176">
        <ele>1646.88</ele>
        <time>2012-09-09T12:59:03Z</time>
      </trkpt>
      <trkpt lat="44.75173" lon="5.53178">
        <ele>1649.76</ele>
        <time>2012-09-09T12:58:37Z</time>
      </trkpt>
      <trkpt lat="44.75175" lon="5.53173">
        <ele>1648.8</ele>
        <time>2012-09-09T12:58:07Z</time>
      </trkpt>
      <trkpt lat="44.75178" lon="5.53176">
        <ele>1647.36</ele>
        <time>2012-09-09T12:57:41Z</time>
      </trkpt>
      <trkpt lat="44.75183" lon="5.53176">
        <ele>1652.16</ele>
        <time>2012-09-09T12:57:25Z</time>
      </trkpt>
      <trkpt lat="44.75196" lon="5.53166">
        <ele>1660.33</ele>
        <time>2012-09-09T12:57:02Z</time>
      </trkpt>
      <trkpt lat="44.75209" lon="5.53152">
        <ele>1657.45</ele>
        <time>2012-09-09T12:56:44Z</time>
      </trkpt>
      <trkpt lat="44.75211" lon="5.53126">
        <ele>1659.85</ele>
        <time>2012-09-09T12:56:27Z</time>
      </trkpt>
      <trkpt lat="44.75211" lon="5.53108">
        <ele>1663.22</ele>
        <time>2012-09-09T12:56:18Z</time>
      </trkpt>
      <trkpt lat="44.75211" lon="5.53087">
        <ele>1665.14</ele>
        <time>2012-09-09T12:56:04Z</time>
      </trkpt>
      <trkpt lat="44.75211" lon="5.5306">
        <ele>1666.58</ele>
        <time>2012-09-09T12:55:46Z</time>
      </trkpt>
      <trkpt lat="44.75219" lon="5.53039">
        <ele>1664.66</ele>
        <time>2012-09-09T12:55:28Z</time>
      </trkpt>
      <trkpt lat="44.75227" lon="5.53013">
        <ele>1664.18</ele>
        <time>2012-09-09T12:55:09Z</time>
      </trkpt>
      <trkpt lat="44.75243" lon="5.52991">
        <ele>1659.85</ele>
        <time>2012-09-09T12:54:47Z</time>
      </trkpt>
      <trkpt lat="44.75247" lon="5.52978">
        <ele>1660.81</ele>
        <time>2012-09-09T12:54:37Z</time>
      </trkpt>
      <trkpt lat="44.75255" lon="5.5295">
        <ele>1660.33</ele>
        <time>2012-09-09T12:54:18Z</time>
      </trkpt>
      <trkpt lat="44.75254" lon="5.52932">
        <ele>1662.26</ele>
        <time>2012-09-09T12:54:05Z</time>
      </trkpt>
      <trkpt lat="44.75255" lon="5.52903">
        <ele>1662.74</ele>
        <time>2012-09-09T12:53:45Z</time>
      </trkpt>
      <trkpt lat="44.75259" lon="5.52889">
        <ele>1660.81</ele>
        <time>2012-09-09T12:53:31Z</time>
      </trkpt>
      <trkpt lat="44.75262" lon="5.52882">
        <ele>1659.85</ele>
        <time>2012-09-09T12:53:25Z</time>
      </trkpt>
      <trkpt lat="44.7527" lon="5.52856">
        <ele>1657.93</ele>
        <time>2012-09-09T12:53:06Z</time>
      </trkpt>
      <trkpt lat="44.75272" lon="5.52851">
        <ele>1656.97</ele>
        <time>2012-09-09T12:53:02Z</time>
      </trkpt>
      <trkpt lat="44.75274" lon="5.52844">
        <ele>1657.45</ele>
        <time>2012-09-09T12:52:57Z</time>
      </trkpt>
      <trkpt lat="44.75279" lon="5.52837">
        <ele>1656.97</ele>
        <time>2012-09-09T12:52:50Z</time>
      </trkpt>
      <trkpt lat="44.75287" lon="5.52822">
        <ele>1659.85</ele>
        <time>2012-09-09T12:52:38Z</time>
      </trkpt>
      <trkpt lat="44.75296" lon="5.52793">
        <ele>1660.33</ele>
        <time>2012-09-09T12:52:17Z</time>
      </trkpt>
      <trkpt lat="44.75303" lon="5.52763">
        <ele>1665.62</ele>
        <time>2012-09-09T12:51:54Z</time>
      </trkpt>
      <trkpt lat="44.75308" lon="5.52752">
        <ele>1672.35</ele>
        <time>2012-09-09T12:51:36Z</time>
      </trkpt>
      <trkpt lat="44.75316" lon="5.5273">
        <ele>1675.72</ele>
        <time>2012-09-09T12:51:17Z</time>
      </trkpt>
      <trkpt lat="44.75325" lon="5.52725">
        <ele>1676.68</ele>
        <time>2012-09-09T12:51:09Z</time>
      </trkpt>
      <trkpt lat="44.75327" lon="5.5272">
        <ele>1678.6</ele>
        <time>2012-09-09T12:51:05Z</time>
      </trkpt>
      <trkpt lat="44.75334" lon="5.52718">
        <ele>1680.04</ele>
        <time>2012-09-09T12:51:00Z</time>
      </trkpt>
      <trkpt lat="44.75348" lon="5.52707">
        <ele>1685.33</ele>
        <time>2012-09-09T12:50:39Z</time>
      </trkpt>
      <trkpt lat="44.75356" lon="5.52686">
        <ele>1687.73</ele>
        <time>2012-09-09T12:50:16Z</time>
      </trkpt>
      <trkpt lat="44.75358" lon="5.52656">
        <ele>1691.58</ele>
        <time>2012-09-09T12:49:53Z</time>
      </trkpt>
      <trkpt lat="44.75362" lon="5.52638">
        <ele>1688.69</ele>
        <time>2012-09-09T12:49:37Z</time>
      </trkpt>
      <trkpt lat="44.75364" lon="5.52627">
        <ele>1689.65</ele>
        <time>2012-09-09T12:49:28Z</time>
      </trkpt>
      <trkpt lat="44.75371" lon="5.52602">
        <ele>1690.62</ele>
        <time>2012-09-09T12:49:06Z</time>
      </trkpt>
      <trkpt lat="44.75372" lon="5.52598">
        <ele>1691.1</ele>
        <time>2012-09-09T12:49:03Z</time>
      </trkpt>
      <trkpt lat="44.75374" lon="5.52581">
        <ele>1693.5</ele>
        <time>2012-09-09T12:48:53Z</time>
      </trkpt>
      <trkpt lat="44.75382" lon="5.52554">
        <ele>1695.42</ele>
        <time>2012-09-09T12:48:33Z</time>
      </trkpt>
      <trkpt lat="44.75384" lon="5.52533">
        <ele>1695.42</ele>
        <time>2012-09-09T12:48:14Z</time>
      </trkpt>
      <trkpt lat="44.75384" lon="5.52532">
        <ele>1695.42</ele>
        <time>2012-09-09T12:48:13Z</time>
      </trkpt>
      <trkpt lat="44.75384" lon="5.52531">
        <ele>1696.38</ele>
        <time>2012-09-09T12:47:36Z</time>
      </trkpt>
      <trkpt lat="44.75385" lon="5.52525">
        <ele>1698.79</ele>
        <time>2012-09-09T12:47:16Z</time>
      </trkpt>
      <trkpt lat="44.75388" lon="5.52516">
        <ele>1705.52</ele>
        <time>2012-09-09T12:46:54Z</time>
      </trkpt>
      <trkpt lat="44.75391" lon="5.52489">
        <ele>1709.36</ele>
        <time>2012-09-09T12:46:36Z</time>
      </trkpt>
      <trkpt lat="44.75391" lon="5.52483">
        <ele>1710.32</ele>
        <time>2012-09-09T12:46:32Z</time>
      </trkpt>
      <trkpt lat="44.75391" lon="5.5248">
        <ele>1711.28</ele>
        <time>2012-09-09T12:46:30Z</time>
      </trkpt>
      <trkpt lat="44.75397" lon="5.52459">
        <ele>1717.53</ele>
        <time>2012-09-09T12:46:14Z</time>
      </trkpt>
      <trkpt lat="44.75402" lon="5.52421">
        <ele>1723.3</ele>
        <time>2012-09-09T12:45:53Z</time>
      </trkpt>
      <trkpt lat="44.75408" lon="5.52411">
        <ele>1719.46</ele>
        <time>2012-09-09T12:45:38Z</time>
      </trkpt>
      <trkpt lat="44.75415" lon="5.52395">
        <ele>1716.09</ele>
        <time>2012-09-09T12:45:16Z</time>
      </trkpt>
      <trkpt lat="44.75419" lon="5.52376">
        <ele>1710.32</ele>
        <time>2012-09-09T12:44:57Z</time>
      </trkpt>
      <trkpt lat="44.75424" lon="5.52364">
        <ele>1701.19</ele>
        <time>2012-09-09T12:44:37Z</time>
      </trkpt>
      <trkpt lat="44.75431" lon="5.52342">
        <ele>1691.1</ele>
        <time>2012-09-09T12:44:15Z</time>
      </trkpt>
      <trkpt lat="44.75436" lon="5.52326">
        <ele>1687.73</ele>
        <time>2012-09-09T12:43:57Z</time>
      </trkpt>
      <trkpt lat="44.75438" lon="5.52305">
        <ele>1683.41</ele>
        <time>2012-09-09T12:43:36Z</time>
      </trkpt>
      <trkpt lat="44.75439" lon="5.52303">
        <ele>1683.41</ele>
        <time>2012-09-09T12:43:34Z</time>
      </trkpt>
      <trkpt lat="44.75438" lon="5.52293">
        <ele>1682.93</ele>
        <time>2012-09-09T12:43:25Z</time>
      </trkpt>
      <trkpt lat="44.75431" lon="5.5227">
        <ele>1682.93</ele>
        <time>2012-09-09T12:43:04Z</time>
      </trkpt>
      <trkpt lat="44.75428" lon="5.52258">
        <ele>1684.85</ele>
        <time>2012-09-09T12:42:49Z</time>
      </trkpt>
      <trkpt lat="44.75429" lon="5.52261">
        <ele>1683.89</ele>
        <time>2012-09-09T12:42:24Z</time>
      </trkpt>
      <trkpt lat="44.75432" lon="5.52259">
        <ele>1687.73</ele>
        <time>2012-09-09T12:42:03Z</time>
      </trkpt>
      <trkpt lat="44.75432" lon="5.52262">
        <ele>1689.17</ele>
        <time>2012-09-09T12:41:39Z</time>
      </trkpt>
      <trkpt lat="44.75438" lon="5.52259">
        <ele>1688.21</ele>
        <time>2012-09-09T12:41:21Z</time>
      </trkpt>
      <trkpt lat="44.75456" lon="5.52261">
        <ele>1684.85</ele>
        <time>2012-09-09T12:41:01Z</time>
      </trkpt>
      <trkpt lat="44.75466" lon="5.52265">
        <ele>1682.44</ele>
        <time>2012-09-09T12:40:46Z</time>
      </trkpt>
      <trkpt lat="44.75469" lon="5.52267">
        <ele>1681.96</ele>
        <time>2012-09-09T12:40:43Z</time>
      </trkpt>
      <trkpt lat="44.75485" lon="5.52273">
        <ele>1678.12</ele>
        <time>2012-09-09T12:40:23Z</time>
      </trkpt>
      <trkpt lat="44.75494" lon="5.52264">
        <ele>1678.12</ele>
        <time>2012-09-09T12:40:13Z</time>
      </trkpt>
      <trkpt lat="44.75511" lon="5.52259">
        <ele>1674.75</ele>
        <time>2012-09-09T12:39:54Z</time>
      </trkpt>
      <trkpt lat="44.75522" lon="5.52255">
        <ele>1672.83</ele>
        <time>2012-09-09T12:39:34Z</time>
      </trkpt>
      <trkpt lat="44.75538" lon="5.52253">
        <ele>1673.31</ele>
        <time>2012-09-09T12:39:14Z</time>
      </trkpt>
      <trkpt lat="44.7555" lon="5.52242">
        <ele>1668.02</ele>
        <time>2012-09-09T12:38:53Z</time>
      </trkpt>
      <trkpt lat="44.75554" lon="5.52241">
        <ele>1667.54</ele>
        <time>2012-09-09T12:38:49Z</time>
      </trkpt>
      <trkpt lat="44.75561" lon="5.52243">
        <ele>1661.78</ele>
        <time>2012-09-09T12:38:31Z</time>
      </trkpt>
      <trkpt lat="44.75577" lon="5.52245">
        <ele>1659.85</ele>
        <time>2012-09-09T12:38:13Z</time>
      </trkpt>
      <trkpt lat="44.75592" lon="5.52244">
        <ele>1658.89</ele>
        <time>2012-09-09T12:37:59Z</time>
      </trkpt>
      <trkpt lat="44.75608" lon="5.5225">
        <ele>1656.97</ele>
        <time>2012-09-09T12:37:38Z</time>
      </trkpt>
      <trkpt lat="44.75622" lon="5.52246">
        <ele>1658.89</ele>
        <time>2012-09-09T12:37:17Z</time>
      </trkpt>
      <trkpt lat="44.75626" lon="5.52249">
        <ele>1657.93</ele>
        <time>2012-09-09T12:36:57Z</time>
      </trkpt>
      <trkpt lat="44.75629" lon="5.52244">
        <ele>1658.41</ele>
        <time>2012-09-09T12:36:22Z</time>
      </trkpt>
      <trkpt lat="44.7563" lon="5.52247">
        <ele>1657.93</ele>
        <time>2012-09-09T12:35:47Z</time>
      </trkpt>
      <trkpt lat="44.75632" lon="5.52248">
        <ele>1656.01</ele>
        <time>2012-09-09T12:35:20Z</time>
      </trkpt>
      <trkpt lat="44.75646" lon="5.52247">
        <ele>1651.2</ele>
        <time>2012-09-09T12:34:58Z</time>
      </trkpt>
      <trkpt lat="44.75666" lon="5.5226">
        <ele>1654.09</ele>
        <time>2012-09-09T12:34:35Z</time>
      </trkpt>
      <trkpt lat="44.75682" lon="5.52285">
        <ele>1654.57</ele>
        <time>2012-09-09T12:34:13Z</time>
      </trkpt>
      <trkpt lat="44.75692" lon="5.52296">
        <ele>1656.01</ele>
        <time>2012-09-09T12:33:59Z</time>
      </trkpt>
      <trkpt lat="44.75707" lon="5.52315">
        <ele>1657.93</ele>
        <time>2012-09-09T12:33:37Z</time>
      </trkpt>
      <trkpt lat="44.75727" lon="5.52333">
        <ele>1663.22</ele>
        <time>2012-09-09T12:33:15Z</time>
      </trkpt>
      <trkpt lat="44.75743" lon="5.52338">
        <ele>1666.1</ele>
        <time>2012-09-09T12:32:59Z</time>
      </trkpt>
      <trkpt lat="44.75746" lon="5.52339">
        <ele>1666.58</ele>
        <time>2012-09-09T12:32:54Z</time>
      </trkpt>
      <trkpt lat="44.75762" lon="5.52339">
        <ele>1675.23</ele>
        <time>2012-09-09T12:32:36Z</time>
      </trkpt>
      <trkpt lat="44.75763" lon="5.52339">
        <ele>1676.2</ele>
        <time>2012-09-09T12:32:34Z</time>
      </trkpt>
      <trkpt lat="44.75776" lon="5.52335">
        <ele>1679.08</ele>
        <time>2012-09-09T12:32:16Z</time>
      </trkpt>
      <trkpt lat="44.75782" lon="5.5234">
        <ele>1674.75</ele>
        <time>2012-09-09T12:31:45Z</time>
      </trkpt>
      <trkpt lat="44.75799" lon="5.52334">
        <ele>1670.91</ele>
        <time>2012-09-09T12:31:22Z</time>
      </trkpt>
      <trkpt lat="44.75801" lon="5.5233">
        <ele>1670.43</ele>
        <time>2012-09-09T12:31:18Z</time>
      </trkpt>
      <trkpt lat="44.75802" lon="5.52327">
        <ele>1670.91</ele>
        <time>2012-09-09T12:31:10Z</time>
      </trkpt>
      <trkpt lat="44.75816" lon="5.52321">
        <ele>1676.2</ele>
        <time>2012-09-09T12:30:42Z</time>
      </trkpt>
      <trkpt lat="44.75828" lon="5.52326">
        <ele>1678.12</ele>
        <time>2012-09-09T12:30:23Z</time>
      </trkpt>
      <trkpt lat="44.75851" lon="5.52339">
        <ele>1679.56</ele>
        <time>2012-09-09T12:30:01Z</time>
      </trkpt>
      <trkpt lat="44.75868" lon="5.5235">
        <ele>1682.44</ele>
        <time>2012-09-09T12:29:42Z</time>
      </trkpt>
      <trkpt lat="44.75887" lon="5.52346">
        <ele>1684.37</ele>
        <time>2012-09-09T12:29:23Z</time>
      </trkpt>
      <trkpt lat="44.75907" lon="5.5234">
        <ele>1684.85</ele>
        <time>2012-09-09T12:29:03Z</time>
      </trkpt>
      <trkpt lat="44.75912" lon="5.52341">
        <ele>1683.89</ele>
        <time>2012-09-09T12:28:58Z</time>
      </trkpt>
      <trkpt lat="44.75928" lon="5.52344">
        <ele>1683.41</ele>
        <time>2012-09-09T12:28:40Z</time>
      </trkpt>
      <trkpt lat="44.75948" lon="5.52351">
        <ele>1686.77</ele>
        <time>2012-09-09T12:28:18Z</time>
      </trkpt>
      <trkpt lat="44.75968" lon="5.52359">
        <ele>1689.17</ele>
        <time>2012-09-09T12:27:55Z</time>
      </trkpt>
      <trkpt lat="44.75983" lon="5.52371">
        <ele>1693.98</ele>
        <time>2012-09-09T12:27:33Z</time>
      </trkpt>
      <trkpt lat="44.75985" lon="5.5237">
        <ele>1695.42</ele>
        <time>2012-09-09T12:27:27Z</time>
      </trkpt>
      <trkpt lat="44.75988" lon="5.52368">
        <ele>1694.94</ele>
        <time>2012-09-09T12:27:09Z</time>
      </trkpt>
      <trkpt lat="44.75987" lon="5.5237">
        <ele>1697.83</ele>
        <time>2012-09-09T12:26:53Z</time>
      </trkpt>
      <trkpt lat="44.75986" lon="5.52368">
        <ele>1697.34</ele>
        <time>2012-09-09T12:26:14Z</time>
      </trkpt>
      <trkpt lat="44.75987" lon="5.52372">
        <ele>1696.38</ele>
        <time>2012-09-09T12:25:24Z</time>
      </trkpt>
      <trkpt lat="44.75986" lon="5.52368">
        <ele>1693.5</ele>
        <time>2012-09-09T12:24:44Z</time>
      </trkpt>
      <trkpt lat="44.75986" lon="5.52367">
        <ele>1697.34</ele>
        <time>2012-09-09T12:23:53Z</time>
      </trkpt>
      <trkpt lat="44.75986" lon="5.52369">
        <ele>1697.34</ele>
        <time>2012-09-09T12:23:05Z</time>
      </trkpt>
      <trkpt lat="44.75987" lon="5.52368">
        <ele>1698.31</ele>
        <time>2012-09-09T12:22:19Z</time>
      </trkpt>
      <trkpt lat="44.75988" lon="5.52368">
        <ele>1700.23</ele>
        <time>2012-09-09T12:21:33Z</time>
      </trkpt>
      <trkpt lat="44.75985" lon="5.5237">
        <ele>1697.34</ele>
        <time>2012-09-09T12:21:15Z</time>
      </trkpt>
      <trkpt lat="44.75988" lon="5.52371">
        <ele>1697.34</ele>
        <time>2012-09-09T12:20:53Z</time>
      </trkpt>
      <trkpt lat="44.75987" lon="5.52371">
        <ele>1698.31</ele>
        <time>2012-09-09T12:20:19Z</time>
      </trkpt>
      <trkpt lat="44.7599" lon="5.52371">
        <ele>1696.86</ele>
        <time>2012-09-09T12:19:51Z</time>
      </trkpt>
      <trkpt lat="44.75992" lon="5.52373">
        <ele>1696.86</ele>
        <time>2012-09-09T12:19:23Z</time>
      </trkpt>
      <trkpt lat="44.75991" lon="5.52371">
        <ele>1696.38</ele>
        <time>2012-09-09T12:18:51Z</time>
      </trkpt>
      <trkpt lat="44.75988" lon="5.5237">
        <ele>1693.98</ele>
        <time>2012-09-09T12:18:25Z</time>
      </trkpt>
      <trkpt lat="44.75991" lon="5.52376">
        <ele>1690.62</ele>
        <time>2012-09-09T12:18:03Z</time>
      </trkpt>
      <trkpt lat="44.76015" lon="5.52382">
        <ele>1689.17</ele>
        <time>2012-09-09T12:17:43Z</time>
      </trkpt>
      <trkpt lat="44.76033" lon="5.52374">
        <ele>1686.29</ele>
        <time>2012-09-09T12:17:24Z</time>
      </trkpt>
      <trkpt lat="44.76052" lon="5.52359">
        <ele>1686.77</ele>
        <time>2012-09-09T12:17:02Z</time>
      </trkpt>
      <trkpt lat="44.76065" lon="5.5236">
        <ele>1688.21</ele>
        <time>2012-09-09T12:16:51Z</time>
      </trkpt>
      <trkpt lat="44.76067" lon="5.5236">
        <ele>1688.21</ele>
        <time>2012-09-09T12:16:49Z</time>
      </trkpt>
      <trkpt lat="44.7609" lon="5.5235">
        <ele>1688.69</ele>
        <time>2012-09-09T12:16:27Z</time>
      </trkpt>
      <trkpt lat="44.76097" lon="5.52351">
        <ele>1689.65</ele>
        <time>2012-09-09T12:16:21Z</time>
      </trkpt>
      <trkpt lat="44.761" lon="5.52353">
        <ele>1690.14</ele>
        <time>2012-09-09T12:16:18Z</time>
      </trkpt>
      <trkpt lat="44.76112" lon="5.52357">
        <ele>1691.58</ele>
        <time>2012-09-09T12:16:02Z</time>
      </trkpt>
      <trkpt lat="44.76116" lon="5.52361">
        <ele>1692.54</ele>
        <time>2012-09-09T12:15:58Z</time>
      </trkpt>
      <trkpt lat="44.7612" lon="5.52362">
        <ele>1693.5</ele>
        <time>2012-09-09T12:15:51Z</time>
      </trkpt>
      <trkpt lat="44.76128" lon="5.52372">
        <ele>1695.9</ele>
        <time>2012-09-09T12:15:29Z</time>
      </trkpt>
      <trkpt lat="44.76132" lon="5.5238">
        <ele>1696.86</ele>
        <time>2012-09-09T12:15:22Z</time>
      </trkpt>
      <trkpt lat="44.76138" lon="5.52389">
        <ele>1697.34</ele>
        <time>2012-09-09T12:15:12Z</time>
      </trkpt>
      <trkpt lat="44.76142" lon="5.52395">
        <ele>1697.83</ele>
        <time>2012-09-09T12:15:05Z</time>
      </trkpt>
      <trkpt lat="44.76147" lon="5.52399">
        <ele>1698.31</ele>
        <time>2012-09-09T12:15:00Z</time>
      </trkpt>
      <trkpt lat="44.76166" lon="5.52414">
        <ele>1696.86</ele>
        <time>2012-09-09T12:14:37Z</time>
      </trkpt>
      <trkpt lat="44.76168" lon="5.52415">
        <ele>1697.34</ele>
        <time>2012-09-09T12:14:35Z</time>
      </trkpt>
      <trkpt lat="44.76183" lon="5.52419">
        <ele>1697.34</ele>
        <time>2012-09-09T12:14:21Z</time>
      </trkpt>
      <trkpt lat="44.76185" lon="5.52419">
        <ele>1697.34</ele>
        <time>2012-09-09T12:14:19Z</time>
      </trkpt>
      <trkpt lat="44.76198" lon="5.52418">
        <ele>1697.34</ele>
        <time>2012-09-09T12:14:07Z</time>
      </trkpt>
      <trkpt lat="44.76206" lon="5.52414">
        <ele>1696.38</ele>
        <time>2012-09-09T12:13:57Z</time>
      </trkpt>
      <trkpt lat="44.76207" lon="5.52413">
        <ele>1696.38</ele>
        <time>2012-09-09T12:13:56Z</time>
      </trkpt>
      <trkpt lat="44.76228" lon="5.52403">
        <ele>1695.9</ele>
        <time>2012-09-09T12:13:35Z</time>
      </trkpt>
      <trkpt lat="44.76232" lon="5.52402">
        <ele>1695.42</ele>
        <time>2012-09-09T12:13:32Z</time>
      </trkpt>
      <trkpt lat="44.76248" lon="5.52393">
        <ele>1693.98</ele>
        <time>2012-09-09T12:13:16Z</time>
      </trkpt>
      <trkpt lat="44.7625" lon="5.52392">
        <ele>1693.98</ele>
        <time>2012-09-09T12:13:14Z</time>
      </trkpt>
      <trkpt lat="44.76258" lon="5.52377">
        <ele>1692.06</ele>
        <time>2012-09-09T12:13:00Z</time>
      </trkpt>
      <trkpt lat="44.76282" lon="5.52367">
        <ele>1696.38</ele>
        <time>2012-09-09T12:12:41Z</time>
      </trkpt>
      <trkpt lat="44.76283" lon="5.52365">
        <ele>1696.86</ele>
        <time>2012-09-09T12:12:40Z</time>
      </trkpt>
      <trkpt lat="44.76295" lon="5.52342">
        <ele>1700.23</ele>
        <time>2012-09-09T12:12:17Z</time>
      </trkpt>
      <trkpt lat="44.76304" lon="5.52326">
        <ele>1698.79</ele>
        <time>2012-09-09T12:12:01Z</time>
      </trkpt>
      <trkpt lat="44.76305" lon="5.52324">
        <ele>1698.79</ele>
        <time>2012-09-09T12:11:59Z</time>
      </trkpt>
      <trkpt lat="44.76308" lon="5.5232">
        <ele>1697.83</ele>
        <time>2012-09-09T12:11:53Z</time>
      </trkpt>
      <trkpt lat="44.76321" lon="5.5233">
        <ele>1695.9</ele>
        <time>2012-09-09T12:11:33Z</time>
      </trkpt>
      <trkpt lat="44.76332" lon="5.52342">
        <ele>1694.46</ele>
        <time>2012-09-09T12:11:15Z</time>
      </trkpt>
      <trkpt lat="44.76341" lon="5.52352">
        <ele>1691.58</ele>
        <time>2012-09-09T12:10:59Z</time>
      </trkpt>
      <trkpt lat="44.76355" lon="5.5236">
        <ele>1691.58</ele>
        <time>2012-09-09T12:10:39Z</time>
      </trkpt>
      <trkpt lat="44.7636" lon="5.52364">
        <ele>1693.5</ele>
        <time>2012-09-09T12:10:33Z</time>
      </trkpt>
      <trkpt lat="44.76375" lon="5.52385">
        <ele>1695.9</ele>
        <time>2012-09-09T12:10:14Z</time>
      </trkpt>
      <trkpt lat="44.76388" lon="5.52403">
        <ele>1697.83</ele>
        <time>2012-09-09T12:09:54Z</time>
      </trkpt>
      <trkpt lat="44.76408" lon="5.52418">
        <ele>1699.75</ele>
        <time>2012-09-09T12:09:32Z</time>
      </trkpt>
      <trkpt lat="44.76409" lon="5.52421">
        <ele>1699.75</ele>
        <time>2012-09-09T12:09:30Z</time>
      </trkpt>
      <trkpt lat="44.76412" lon="5.52425">
        <ele>1700.23</ele>
        <time>2012-09-09T12:09:25Z</time>
      </trkpt>
      <trkpt lat="44.76432" lon="5.52422">
        <ele>1703.59</ele>
        <time>2012-09-09T12:09:06Z</time>
      </trkpt>
      <trkpt lat="44.76437" lon="5.52418">
        <ele>1704.07</ele>
        <time>2012-09-09T12:09:02Z</time>
      </trkpt>
      <trkpt lat="44.76438" lon="5.52415">
        <ele>1703.59</ele>
        <time>2012-09-09T12:08:59Z</time>
      </trkpt>
      <trkpt lat="44.76439" lon="5.52411">
        <ele>1703.11</ele>
        <time>2012-09-09T12:08:55Z</time>
      </trkpt>
      <trkpt lat="44.76446" lon="5.52397">
        <ele>1704.55</ele>
        <time>2012-09-09T12:08:35Z</time>
      </trkpt>
      <trkpt lat="44.76449" lon="5.52392">
        <ele>1707.44</ele>
        <time>2012-09-09T12:08:27Z</time>
      </trkpt>
      <trkpt lat="44.76451" lon="5.5239">
        <ele>1707.44</ele>
        <time>2012-09-09T12:08:22Z</time>
      </trkpt>
      <trkpt lat="44.76465" lon="5.52396">
        <ele>1710.32</ele>
        <time>2012-09-09T12:08:04Z</time>
      </trkpt>
      <trkpt lat="44.76469" lon="5.52395">
        <ele>1710.8</ele>
        <time>2012-09-09T12:08:00Z</time>
      </trkpt>
      <trkpt lat="44.7648" lon="5.52406">
        <ele>1712.73</ele>
        <time>2012-09-09T12:07:42Z</time>
      </trkpt>
      <trkpt lat="44.76482" lon="5.52428">
        <ele>1710.32</ele>
        <time>2012-09-09T12:07:25Z</time>
      </trkpt>
      <trkpt lat="44.76488" lon="5.5244">
        <ele>1710.32</ele>
        <time>2012-09-09T12:07:11Z</time>
      </trkpt>
      <trkpt lat="44.76489" lon="5.52442">
        <ele>1709.36</ele>
        <time>2012-09-09T12:07:08Z</time>
      </trkpt>
      <trkpt lat="44.76496" lon="5.52446">
        <ele>1710.8</ele>
        <time>2012-09-09T12:07:02Z</time>
      </trkpt>
      <trkpt lat="44.76499" lon="5.52449">
        <ele>1711.76</ele>
        <time>2012-09-09T12:06:58Z</time>
      </trkpt>
      <trkpt lat="44.76518" lon="5.52469">
        <ele>1717.53</ele>
        <time>2012-09-09T12:06:38Z</time>
      </trkpt>
      <trkpt lat="44.76535" lon="5.52486">
        <ele>1720.9</ele>
        <time>2012-09-09T12:06:17Z</time>
      </trkpt>
      <trkpt lat="44.76536" lon="5.52489">
        <ele>1720.9</ele>
        <time>2012-09-09T12:06:14Z</time>
      </trkpt>
      <trkpt lat="44.76546" lon="5.52499">
        <ele>1720.9</ele>
        <time>2012-09-09T12:06:04Z</time>
      </trkpt>
      <trkpt lat="44.76555" lon="5.52507">
        <ele>1722.82</ele>
        <time>2012-09-09T12:05:54Z</time>
      </trkpt>
      <trkpt lat="44.76562" lon="5.52513">
        <ele>1724.74</ele>
        <time>2012-09-09T12:05:46Z</time>
      </trkpt>
      <trkpt lat="44.76563" lon="5.52516">
        <ele>1724.74</ele>
        <time>2012-09-09T12:05:44Z</time>
      </trkpt>
      <trkpt lat="44.76568" lon="5.52519">
        <ele>1725.7</ele>
        <time>2012-09-09T12:05:40Z</time>
      </trkpt>
      <trkpt lat="44.76581" lon="5.52529">
        <ele>1725.7</ele>
        <time>2012-09-09T12:05:25Z</time>
      </trkpt>
      <trkpt lat="44.76597" lon="5.52543">
        <ele>1727.15</ele>
        <time>2012-09-09T12:05:06Z</time>
      </trkpt>
      <trkpt lat="44.76611" lon="5.52555">
        <ele>1727.63</ele>
        <time>2012-09-09T12:04:51Z</time>
      </trkpt>
      <trkpt lat="44.76615" lon="5.52558">
        <ele>1728.11</ele>
        <time>2012-09-09T12:04:46Z</time>
      </trkpt>
      <trkpt lat="44.76618" lon="5.5256">
        <ele>1728.59</ele>
        <time>2012-09-09T12:04:43Z</time>
      </trkpt>
      <trkpt lat="44.7662" lon="5.52562">
        <ele>1728.11</ele>
        <time>2012-09-09T12:04:40Z</time>
      </trkpt>
      <trkpt lat="44.76624" lon="5.52564">
        <ele>1729.07</ele>
        <time>2012-09-09T12:04:36Z</time>
      </trkpt>
      <trkpt lat="44.76641" lon="5.52575">
        <ele>1732.43</ele>
        <time>2012-09-09T12:04:20Z</time>
      </trkpt>
      <trkpt lat="44.76649" lon="5.52579">
        <ele>1732.91</ele>
        <time>2012-09-09T12:04:12Z</time>
      </trkpt>
      <trkpt lat="44.76669" lon="5.52585">
        <ele>1736.76</ele>
        <time>2012-09-09T12:03:54Z</time>
      </trkpt>
      <trkpt lat="44.76685" lon="5.5258">
        <ele>1735.32</ele>
        <time>2012-09-09T12:03:37Z</time>
      </trkpt>
      <trkpt lat="44.76711" lon="5.5258">
        <ele>1735.8</ele>
        <time>2012-09-09T12:03:15Z</time>
      </trkpt>
      <trkpt lat="44.76717" lon="5.5258">
        <ele>1736.28</ele>
        <time>2012-09-09T12:03:09Z</time>
      </trkpt>
      <trkpt lat="44.76741" lon="5.5258">
        <ele>1738.2</ele>
        <time>2012-09-09T12:02:48Z</time>
      </trkpt>
      <trkpt lat="44.76746" lon="5.52577">
        <ele>1738.68</ele>
        <time>2012-09-09T12:02:43Z</time>
      </trkpt>
      <trkpt lat="44.76748" lon="5.52575">
        <ele>1738.68</ele>
        <time>2012-09-09T12:02:40Z</time>
      </trkpt>
      <trkpt lat="44.76753" lon="5.52572">
        <ele>1738.2</ele>
        <time>2012-09-09T12:02:35Z</time>
      </trkpt>
      <trkpt lat="44.76758" lon="5.52568">
        <ele>1738.68</ele>
        <time>2012-09-09T12:02:30Z</time>
      </trkpt>
      <trkpt lat="44.76762" lon="5.52563">
        <ele>1738.68</ele>
        <time>2012-09-09T12:02:24Z</time>
      </trkpt>
      <trkpt lat="44.76772" lon="5.52545">
        <ele>1738.2</ele>
        <time>2012-09-09T12:01:56Z</time>
      </trkpt>
      <trkpt lat="44.76784" lon="5.52533">
        <ele>1738.68</ele>
        <time>2012-09-09T12:01:37Z</time>
      </trkpt>
      <trkpt lat="44.76787" lon="5.52531">
        <ele>1739.16</ele>
        <time>2012-09-09T12:01:33Z</time>
      </trkpt>
      <trkpt lat="44.76807" lon="5.5253">
        <ele>1738.68</ele>
        <time>2012-09-09T12:01:11Z</time>
      </trkpt>
      <trkpt lat="44.76825" lon="5.52529">
        <ele>1739.64</ele>
        <time>2012-09-09T12:00:53Z</time>
      </trkpt>
      <trkpt lat="44.76828" lon="5.52528">
        <ele>1738.68</ele>
        <time>2012-09-09T12:00:49Z</time>
      </trkpt>
      <trkpt lat="44.7684" lon="5.52528">
        <ele>1740.12</ele>
        <time>2012-09-09T12:00:37Z</time>
      </trkpt>
      <trkpt lat="44.76843" lon="5.52528">
        <ele>1740.6</ele>
        <time>2012-09-09T12:00:33Z</time>
      </trkpt>
      <trkpt lat="44.76845" lon="5.52528">
        <ele>1741.08</ele>
        <time>2012-09-09T12:00:31Z</time>
      </trkpt>
      <trkpt lat="44.76862" lon="5.5254">
        <ele>1742.53</ele>
        <time>2012-09-09T12:00:10Z</time>
      </trkpt>
      <trkpt lat="44.76878" lon="5.52545">
        <ele>1743.97</ele>
        <time>2012-09-09T11:59:50Z</time>
      </trkpt>
      <trkpt lat="44.76881" lon="5.52548">
        <ele>1744.45</ele>
        <time>2012-09-09T11:59:46Z</time>
      </trkpt>
      <trkpt lat="44.76883" lon="5.5255">
        <ele>1744.93</ele>
        <time>2012-09-09T11:59:43Z</time>
      </trkpt>
      <trkpt lat="44.76884" lon="5.52551">
        <ele>1744.93</ele>
        <time>2012-09-09T11:59:42Z</time>
      </trkpt>
      <trkpt lat="44.76902" lon="5.52563">
        <ele>1747.81</ele>
        <time>2012-09-09T11:59:22Z</time>
      </trkpt>
      <trkpt lat="44.76906" lon="5.52564">
        <ele>1747.81</ele>
        <time>2012-09-09T11:59:18Z</time>
      </trkpt>
      <trkpt lat="44.7691" lon="5.52565">
        <ele>1748.29</ele>
        <time>2012-09-09T11:59:14Z</time>
      </trkpt>
      <trkpt lat="44.76919" lon="5.52568">
        <ele>1749.26</ele>
        <time>2012-09-09T11:59:06Z</time>
      </trkpt>
      <trkpt lat="44.76924" lon="5.52571">
        <ele>1749.74</ele>
        <time>2012-09-09T11:59:01Z</time>
      </trkpt>
      <trkpt lat="44.76925" lon="5.52572">
        <ele>1749.26</ele>
        <time>2012-09-09T11:58:59Z</time>
      </trkpt>
      <trkpt lat="44.76927" lon="5.52573">
        <ele>1748.78</ele>
        <time>2012-09-09T11:58:56Z</time>
      </trkpt>
      <trkpt lat="44.76928" lon="5.52573">
        <ele>1748.78</ele>
        <time>2012-09-09T11:58:55Z</time>
      </trkpt>
      <trkpt lat="44.76947" lon="5.52586">
        <ele>1750.22</ele>
        <time>2012-09-09T11:58:34Z</time>
      </trkpt>
      <trkpt lat="44.76949" lon="5.52589">
        <ele>1750.7</ele>
        <time>2012-09-09T11:58:31Z</time>
      </trkpt>
      <trkpt lat="44.76965" lon="5.52603">
        <ele>1753.1</ele>
        <time>2012-09-09T11:58:10Z</time>
      </trkpt>
      <trkpt lat="44.76975" lon="5.5261">
        <ele>1755.99</ele>
        <time>2012-09-09T11:57:59Z</time>
      </trkpt>
      <trkpt lat="44.76982" lon="5.52618">
        <ele>1755.5</ele>
        <time>2012-09-09T11:57:41Z</time>
      </trkpt>
      <trkpt lat="44.76997" lon="5.52627">
        <ele>1758.39</ele>
        <time>2012-09-09T11:57:22Z</time>
      </trkpt>
      <trkpt lat="44.77001" lon="5.5263">
        <ele>1758.87</ele>
        <time>2012-09-09T11:57:14Z</time>
      </trkpt>
      <trkpt lat="44.77012" lon="5.52643">
        <ele>1761.27</ele>
        <time>2012-09-09T11:56:56Z</time>
      </trkpt>
      <trkpt lat="44.77032" lon="5.52645">
        <ele>1762.71</ele>
        <time>2012-09-09T11:56:36Z</time>
      </trkpt>
      <trkpt lat="44.77046" lon="5.52639">
        <ele>1763.2</ele>
        <time>2012-09-09T11:56:21Z</time>
      </trkpt>
      <trkpt lat="44.77051" lon="5.52633">
        <ele>1762.71</ele>
        <time>2012-09-09T11:56:13Z</time>
      </trkpt>
      <trkpt lat="44.77062" lon="5.52618">
        <ele>1760.79</ele>
        <time>2012-09-09T11:55:54Z</time>
      </trkpt>
      <trkpt lat="44.77067" lon="5.52614">
        <ele>1758.87</ele>
        <time>2012-09-09T11:55:44Z</time>
      </trkpt>
      <trkpt lat="44.77078" lon="5.52612">
        <ele>1760.31</ele>
        <time>2012-09-09T11:55:25Z</time>
      </trkpt>
      <trkpt lat="44.77082" lon="5.52602">
        <ele>1759.35</ele>
        <time>2012-09-09T11:55:14Z</time>
      </trkpt>
      <trkpt lat="44.77089" lon="5.52583">
        <ele>1756.47</ele>
        <time>2012-09-09T11:54:54Z</time>
      </trkpt>
      <trkpt lat="44.77097" lon="5.52565">
        <ele>1756.47</ele>
        <time>2012-09-09T11:54:35Z</time>
      </trkpt>
      <trkpt lat="44.77118" lon="5.52542">
        <ele>1755.5</ele>
        <time>2012-09-09T11:54:09Z</time>
      </trkpt>
      <trkpt lat="44.77133" lon="5.52525">
        <ele>1756.47</ele>
        <time>2012-09-09T11:53:49Z</time>
      </trkpt>
      <trkpt lat="44.77136" lon="5.52521">
        <ele>1756.95</ele>
        <time>2012-09-09T11:53:45Z</time>
      </trkpt>
      <trkpt lat="44.77141" lon="5.52517">
        <ele>1758.39</ele>
        <time>2012-09-09T11:53:40Z</time>
      </trkpt>
      <trkpt lat="44.77146" lon="5.5251">
        <ele>1758.87</ele>
        <time>2012-09-09T11:53:33Z</time>
      </trkpt>
      <trkpt lat="44.77147" lon="5.52509">
        <ele>1758.39</ele>
        <time>2012-09-09T11:53:31Z</time>
      </trkpt>
      <trkpt lat="44.77149" lon="5.52508">
        <ele>1757.91</ele>
        <time>2012-09-09T11:53:29Z</time>
      </trkpt>
      <trkpt lat="44.77153" lon="5.52503">
        <ele>1757.91</ele>
        <time>2012-09-09T11:53:23Z</time>
      </trkpt>
      <trkpt lat="44.77166" lon="5.52481">
        <ele>1757.91</ele>
        <time>2012-09-09T11:53:03Z</time>
      </trkpt>
      <trkpt lat="44.77171" lon="5.52473">
        <ele>1759.35</ele>
        <time>2012-09-09T11:52:56Z</time>
      </trkpt>
      <trkpt lat="44.77172" lon="5.52471">
        <ele>1759.35</ele>
        <time>2012-09-09T11:52:54Z</time>
      </trkpt>
      <trkpt lat="44.7718" lon="5.52467">
        <ele>1760.79</ele>
        <time>2012-09-09T11:52:42Z</time>
      </trkpt>
      <trkpt lat="44.77182" lon="5.52458">
        <ele>1762.23</ele>
        <time>2012-09-09T11:52:28Z</time>
      </trkpt>
      <trkpt lat="44.77189" lon="5.5244">
        <ele>1765.12</ele>
        <time>2012-09-09T11:52:08Z</time>
      </trkpt>
      <trkpt lat="44.77191" lon="5.52423">
        <ele>1767.52</ele>
        <time>2012-09-09T11:51:44Z</time>
      </trkpt>
      <trkpt lat="44.77192" lon="5.52422">
        <ele>1768.48</ele>
        <time>2012-09-09T11:51:15Z</time>
      </trkpt>
      <trkpt lat="44.77192" lon="5.52422">
        <ele>1764.64</ele>
        <time>2012-09-09T11:50:53Z</time>
      </trkpt>
      <trkpt lat="44.77189" lon="5.52423">
        <ele>1763.2</ele>
        <time>2012-09-09T11:50:30Z</time>
      </trkpt>
      <trkpt lat="44.7719" lon="5.52425">
        <ele>1767.04</ele>
        <time>2012-09-09T11:50:02Z</time>
      </trkpt>
      <trkpt lat="44.77191" lon="5.52423">
        <ele>1767.52</ele>
        <time>2012-09-09T11:49:48Z</time>
      </trkpt>
      <trkpt lat="44.77191" lon="5.52424">
        <ele>1765.6</ele>
        <time>2012-09-09T11:49:26Z</time>
      </trkpt>
      <trkpt lat="44.7719" lon="5.5242">
        <ele>1768.96</ele>
        <time>2012-09-09T11:49:07Z</time>
      </trkpt>
      <trkpt lat="44.7719" lon="5.5242">
        <ele>1768.96</ele>
        <time>2012-09-09T11:49:03Z</time>
      </trkpt>
      <trkpt lat="44.77189" lon="5.52419">
        <ele>1771.85</ele>
        <time>2012-09-09T11:48:26Z</time>
      </trkpt>
      <trkpt lat="44.77189" lon="5.5242">
        <ele>1773.77</ele>
        <time>2012-09-09T11:48:01Z</time>
      </trkpt>
      <trkpt lat="44.7719" lon="5.52419">
        <ele>1781.46</ele>
        <time>2012-09-09T11:47:18Z</time>
      </trkpt>
      <trkpt lat="44.77189" lon="5.52418">
        <ele>1781.94</ele>
        <time>2012-09-09T11:46:33Z</time>
      </trkpt>
      <trkpt lat="44.77189" lon="5.52418">
        <ele>1779.06</ele>
        <time>2012-09-09T11:45:46Z</time>
      </trkpt>
      <trkpt lat="44.77191" lon="5.5242">
        <ele>1775.69</ele>
        <time>2012-09-09T11:44:54Z</time>
      </trkpt>
      <trkpt lat="44.7719" lon="5.52422">
        <ele>1775.69</ele>
        <time>2012-09-09T11:44:10Z</time>
      </trkpt>
      <trkpt lat="44.77189" lon="5.5242">
        <ele>1780.5</ele>
        <time>2012-09-09T11:43:21Z</time>
      </trkpt>
      <trkpt lat="44.77188" lon="5.5242">
        <ele>1780.02</ele>
        <time>2012-09-09T11:42:35Z</time>
      </trkpt>
      <trkpt lat="44.77187" lon="5.52419">
        <ele>1777.13</ele>
        <time>2012-09-09T11:41:52Z</time>
      </trkpt>
      <trkpt lat="44.77187" lon="5.5242">
        <ele>1779.06</ele>
        <time>2012-09-09T11:40:58Z</time>
      </trkpt>
      <trkpt lat="44.77188" lon="5.5242">
        <ele>1774.25</ele>
        <time>2012-09-09T11:40:11Z</time>
      </trkpt>
      <trkpt lat="44.77187" lon="5.5242">
        <ele>1780.5</ele>
        <time>2012-09-09T11:39:29Z</time>
      </trkpt>
      <trkpt lat="44.77186" lon="5.52419">
        <ele>1778.58</ele>
        <time>2012-09-09T11:38:53Z</time>
      </trkpt>
      <trkpt lat="44.77185" lon="5.5242">
        <ele>1782.9</ele>
        <time>2012-09-09T11:38:04Z</time>
      </trkpt>
      <trkpt lat="44.77186" lon="5.52423">
        <ele>1780.98</ele>
        <time>2012-09-09T11:37:20Z</time>
      </trkpt>
      <trkpt lat="44.77188" lon="5.52419">
        <ele>1779.54</ele>
        <time>2012-09-09T11:36:29Z</time>
      </trkpt>
      <trkpt lat="44.77185" lon="5.5242">
        <ele>1777.61</ele>
        <time>2012-09-09T11:35:43Z</time>
      </trkpt>
      <trkpt lat="44.77186" lon="5.52421">
        <ele>1773.77</ele>
        <time>2012-09-09T11:34:56Z</time>
      </trkpt>
      <trkpt lat="44.77188" lon="5.52423">
        <ele>1774.73</ele>
        <time>2012-09-09T11:34:21Z</time>
      </trkpt>
      <trkpt lat="44.77188" lon="5.52423">
        <ele>1773.29</ele>
        <time>2012-09-09T11:33:39Z</time>
      </trkpt>
      <trkpt lat="44.77188" lon="5.52422">
        <ele>1771.85</ele>
        <time>2012-09-09T11:32:54Z</time>
      </trkpt>
      <trkpt lat="44.77188" lon="5.5242">
        <ele>1771.37</ele>
        <time>2012-09-09T11:32:14Z</time>
      </trkpt>
      <trkpt lat="44.77191" lon="5.52419">
        <ele>1773.77</ele>
        <time>2012-09-09T11:31:31Z</time>
      </trkpt>
      <trkpt lat="44.77195" lon="5.5242">
        <ele>1772.81</ele>
        <time>2012-09-09T11:30:45Z</time>
      </trkpt>
      <trkpt lat="44.77194" lon="5.52421">
        <ele>1770.41</ele>
        <time>2012-09-09T11:30:10Z</time>
      </trkpt>
      <trkpt lat="44.77192" lon="5.52422">
        <ele>1768.96</ele>
        <time>2012-09-09T11:29:23Z</time>
      </trkpt>
      <trkpt lat="44.77191" lon="5.52421">
        <ele>1764.64</ele>
        <time>2012-09-09T11:28:32Z</time>
      </trkpt>
      <trkpt lat="44.77191" lon="5.52419">
        <ele>1768.48</ele>
        <time>2012-09-09T11:27:39Z</time>
      </trkpt>
      <trkpt lat="44.77189" lon="5.52422">
        <ele>1765.6</ele>
        <time>2012-09-09T11:26:45Z</time>
      </trkpt>
      <trkpt lat="44.77193" lon="5.52424">
        <ele>1764.16</ele>
        <time>2012-09-09T11:26:14Z</time>
      </trkpt>
      <trkpt lat="44.77193" lon="5.52424">
        <ele>1770.89</ele>
        <time>2012-09-09T11:25:26Z</time>
      </trkpt>
      <trkpt lat="44.77192" lon="5.52424">
        <ele>1767.52</ele>
        <time>2012-09-09T11:24:42Z</time>
      </trkpt>
      <trkpt lat="44.7719" lon="5.52421">
        <ele>1766.56</ele>
        <time>2012-09-09T11:24:14Z</time>
      </trkpt>
      <trkpt lat="44.77193" lon="5.52422">
        <ele>1765.12</ele>
        <time>2012-09-09T11:23:32Z</time>
      </trkpt>
      <trkpt lat="44.77194" lon="5.52423">
        <ele>1770.89</ele>
        <time>2012-09-09T11:23:03Z</time>
      </trkpt>
      <trkpt lat="44.77191" lon="5.52423">
        <ele>1765.12</ele>
        <time>2012-09-09T11:22:15Z</time>
      </trkpt>
      <trkpt lat="44.77192" lon="5.52424">
        <ele>1766.56</ele>
        <time>2012-09-09T11:21:28Z</time>
      </trkpt>
      <trkpt lat="44.77191" lon="5.52425">
        <ele>1769.92</ele>
        <time>2012-09-09T11:20:37Z</time>
      </trkpt>
      <trkpt lat="44.77193" lon="5.52425">
        <ele>1771.37</ele>
        <time>2012-09-09T11:19:47Z</time>
      </trkpt>
      <trkpt lat="44.77191" lon="5.52422">
        <ele>1767.04</ele>
        <time>2012-09-09T11:19:00Z</time>
      </trkpt>
      <trkpt lat="44.77191" lon="5.52423">
        <ele>1766.56</ele>
        <time>2012-09-09T11:18:20Z</time>
      </trkpt>
      <trkpt lat="44.77194" lon="5.52424">
        <ele>1765.12</ele>
        <time>2012-09-09T11:17:30Z</time>
      </trkpt>
      <trkpt lat="44.77193" lon="5.52423">
        <ele>1761.75</ele>
        <time>2012-09-09T11:16:49Z</time>
      </trkpt>
      <trkpt lat="44.77192" lon="5.52426">
        <ele>1765.6</ele>
        <time>2012-09-09T11:16:02Z</time>
      </trkpt>
      <trkpt lat="44.77197" lon="5.52425">
        <ele>1768</ele>
        <time>2012-09-09T11:15:14Z</time>
      </trkpt>
      <trkpt lat="44.77201" lon="5.52424">
        <ele>1770.41</ele>
        <time>2012-09-09T11:14:31Z</time>
      </trkpt>
      <trkpt lat="44.77202" lon="5.52423">
        <ele>1774.73</ele>
        <time>2012-09-09T11:13:51Z</time>
      </trkpt>
      <trkpt lat="44.77196" lon="5.52426">
        <ele>1767.52</ele>
        <time>2012-09-09T11:13:00Z</time>
      </trkpt>
      <trkpt lat="44.77195" lon="5.52427">
        <ele>1768</ele>
        <time>2012-09-09T11:12:11Z</time>
      </trkpt>
      <trkpt lat="44.77194" lon="5.52422">
        <ele>1766.56</ele>
        <time>2012-09-09T11:11:32Z</time>
      </trkpt>
      <trkpt lat="44.77191" lon="5.52423">
        <ele>1766.56</ele>
        <time>2012-09-09T11:10:48Z</time>
      </trkpt>
      <trkpt lat="44.77191" lon="5.52422">
        <ele>1766.08</ele>
        <time>2012-09-09T11:10:05Z</time>
      </trkpt>
      <trkpt lat="44.77191" lon="5.52425">
        <ele>1768.96</ele>
        <time>2012-09-09T11:09:15Z</time>
      </trkpt>
      <trkpt lat="44.77195" lon="5.52427">
        <ele>1771.85</ele>
        <time>2012-09-09T11:08:22Z</time>
      </trkpt>
      <trkpt lat="44.772" lon="5.52424">
        <ele>1772.81</ele>
        <time>2012-09-09T11:07:41Z</time>
      </trkpt>
      <trkpt lat="44.77198" lon="5.52427">
        <ele>1771.37</ele>
        <time>2012-09-09T11:06:55Z</time>
      </trkpt>
      <trkpt lat="44.77196" lon="5.52426">
        <ele>1772.81</ele>
        <time>2012-09-09T11:06:08Z</time>
      </trkpt>
      <trkpt lat="44.77195" lon="5.52424">
        <ele>1771.37</ele>
        <time>2012-09-09T11:05:28Z</time>
      </trkpt>
      <trkpt lat="44.7719" lon="5.52424">
        <ele>1768</ele>
        <time>2012-09-09T11:04:46Z</time>
      </trkpt>
      <trkpt lat="44.77193" lon="5.52425">
        <ele>1770.41</ele>
        <time>2012-09-09T11:04:01Z</time>
      </trkpt>
      <trkpt lat="44.77193" lon="5.52425">
        <ele>1771.85</ele>
        <time>2012-09-09T11:03:03Z</time>
      </trkpt>
      <trkpt lat="44.77195" lon="5.52424">
        <ele>1770.89</ele>
        <time>2012-09-09T11:02:21Z</time>
      </trkpt>
      <trkpt lat="44.77197" lon="5.52427">
        <ele>1771.37</ele>
        <time>2012-09-09T11:01:33Z</time>
      </trkpt>
      <trkpt lat="44.77209" lon="5.52424">
        <ele>1781.94</ele>
        <time>2012-09-09T11:00:51Z</time>
      </trkpt>
      <trkpt lat="44.77206" lon="5.52426">
        <ele>1782.42</ele>
        <time>2012-09-09T11:00:11Z</time>
      </trkpt>
      <trkpt lat="44.77212" lon="5.52427">
        <ele>1788.67</ele>
        <time>2012-09-09T10:59:29Z</time>
      </trkpt>
      <trkpt lat="44.77207" lon="5.52422">
        <ele>1785.79</ele>
        <time>2012-09-09T10:58:48Z</time>
      </trkpt>
      <trkpt lat="44.77208" lon="5.52427">
        <ele>1779.54</ele>
        <time>2012-09-09T10:58:04Z</time>
      </trkpt>
      <trkpt lat="44.77201" lon="5.52425">
        <ele>1778.58</ele>
        <time>2012-09-09T10:57:23Z</time>
      </trkpt>
      <trkpt lat="44.77206" lon="5.52428">
        <ele>1782.42</ele>
        <time>2012-09-09T10:56:43Z</time>
      </trkpt>
      <trkpt lat="44.77202" lon="5.52427">
        <ele>1777.13</ele>
        <time>2012-09-09T10:56:03Z</time>
      </trkpt>
      <trkpt lat="44.77199" lon="5.52427">
        <ele>1775.21</ele>
        <time>2012-09-09T10:55:19Z</time>
      </trkpt>
      <trkpt lat="44.77195" lon="5.52427">
        <ele>1772.81</ele>
        <time>2012-09-09T10:54:37Z</time>
      </trkpt>
      <trkpt lat="44.77196" lon="5.52427">
        <ele>1772.81</ele>
        <time>2012-09-09T10:54:02Z</time>
      </trkpt>
      <trkpt lat="44.77195" lon="5.52427">
        <ele>1771.37</ele>
        <time>2012-09-09T10:53:13Z</time>
      </trkpt>
      <trkpt lat="44.77196" lon="5.52425">
        <ele>1768.48</ele>
        <time>2012-09-09T10:52:48Z</time>
      </trkpt>
      <trkpt lat="44.77196" lon="5.52424">
        <ele>1768.48</ele>
        <time>2012-09-09T10:52:42Z</time>
      </trkpt>
      <trkpt lat="44.77192" lon="5.52426">
        <ele>1768.96</ele>
        <time>2012-09-09T10:52:00Z</time>
      </trkpt>
      <trkpt lat="44.77193" lon="5.52427">
        <ele>1770.89</ele>
        <time>2012-09-09T10:51:16Z</time>
      </trkpt>
      <trkpt lat="44.77195" lon="5.52427">
        <ele>1775.21</ele>
        <time>2012-09-09T10:50:25Z</time>
      </trkpt>
      <trkpt lat="44.77196" lon="5.52427">
        <ele>1774.25</ele>
        <time>2012-09-09T10:49:48Z</time>
      </trkpt>
      <trkpt lat="44.77195" lon="5.52425">
        <ele>1770.41</ele>
        <time>2012-09-09T10:49:03Z</time>
      </trkpt>
      <trkpt lat="44.77197" lon="5.52426">
        <ele>1768.96</ele>
        <time>2012-09-09T10:48:19Z</time>
      </trkpt>
      <trkpt lat="44.77194" lon="5.52426">
        <ele>1765.12</ele>
        <time>2012-09-09T10:47:41Z</time>
      </trkpt>
      <trkpt lat="44.77194" lon="5.52425">
        <ele>1766.56</ele>
        <time>2012-09-09T10:47:02Z</time>
      </trkpt>
      <trkpt lat="44.77198" lon="5.52425">
        <ele>1767.52</ele>
        <time>2012-09-09T10:46:25Z</time>
      </trkpt>
      <trkpt lat="44.77193" lon="5.52424">
        <ele>1767.04</ele>
        <time>2012-09-09T10:45:45Z</time>
      </trkpt>
      <trkpt lat="44.77191" lon="5.52426">
        <ele>1766.56</ele>
        <time>2012-09-09T10:45:06Z</time>
      </trkpt>
      <trkpt lat="44.77195" lon="5.52425">
        <ele>1768.96</ele>
        <time>2012-09-09T10:44:37Z</time>
      </trkpt>
      <trkpt lat="44.7719" lon="5.52419">
        <ele>1764.16</ele>
        <time>2012-09-09T10:43:55Z</time>
      </trkpt>
      <trkpt lat="44.77192" lon="5.52421">
        <ele>1762.71</ele>
        <time>2012-09-09T10:43:32Z</time>
      </trkpt>
      <trkpt lat="44.77189" lon="5.52424">
        <ele>1762.23</ele>
        <time>2012-09-09T10:43:10Z</time>
      </trkpt>
      <trkpt lat="44.77197" lon="5.52416">
        <ele>1760.79</ele>
        <time>2012-09-09T10:42:49Z</time>
      </trkpt>
      <trkpt lat="44.77201" lon="5.52412">
        <ele>1760.79</ele>
        <time>2012-09-09T10:42:46Z</time>
      </trkpt>
      <trkpt lat="44.77202" lon="5.52403">
        <ele>1762.71</ele>
        <time>2012-09-09T10:42:25Z</time>
      </trkpt>
      <trkpt lat="44.77212" lon="5.52399">
        <ele>1762.71</ele>
        <time>2012-09-09T10:42:06Z</time>
      </trkpt>
      <trkpt lat="44.77223" lon="5.52386">
        <ele>1761.27</ele>
        <time>2012-09-09T10:41:47Z</time>
      </trkpt>
      <trkpt lat="44.77238" lon="5.52379">
        <ele>1759.35</ele>
        <time>2012-09-09T10:41:26Z</time>
      </trkpt>
      <trkpt lat="44.7725" lon="5.52359">
        <ele>1758.87</ele>
        <time>2012-09-09T10:41:07Z</time>
      </trkpt>
      <trkpt lat="44.77265" lon="5.52356">
        <ele>1757.91</ele>
        <time>2012-09-09T10:40:50Z</time>
      </trkpt>
      <trkpt lat="44.77271" lon="5.52353">
        <ele>1757.43</ele>
        <time>2012-09-09T10:40:42Z</time>
      </trkpt>
      <trkpt lat="44.77276" lon="5.52355">
        <ele>1756.47</ele>
        <time>2012-09-09T10:40:37Z</time>
      </trkpt>
      <trkpt lat="44.77291" lon="5.52347">
        <ele>1758.87</ele>
        <time>2012-09-09T10:40:21Z</time>
      </trkpt>
      <trkpt lat="44.77297" lon="5.52343">
        <ele>1758.87</ele>
        <time>2012-09-09T10:40:13Z</time>
      </trkpt>
      <trkpt lat="44.7731" lon="5.52337">
        <ele>1759.83</ele>
        <time>2012-09-09T10:39:55Z</time>
      </trkpt>
      <trkpt lat="44.77323" lon="5.52324">
        <ele>1762.23</ele>
        <time>2012-09-09T10:39:35Z</time>
      </trkpt>
      <trkpt lat="44.77339" lon="5.52305">
        <ele>1761.27</ele>
        <time>2012-09-09T10:39:15Z</time>
      </trkpt>
      <trkpt lat="44.77351" lon="5.52298">
        <ele>1760.31</ele>
        <time>2012-09-09T10:38:59Z</time>
      </trkpt>
      <trkpt lat="44.77352" lon="5.52297">
        <ele>1760.79</ele>
        <time>2012-09-09T10:38:57Z</time>
      </trkpt>
      <trkpt lat="44.77355" lon="5.523">
        <ele>1760.31</ele>
        <time>2012-09-09T10:38:53Z</time>
      </trkpt>
      <trkpt lat="44.77359" lon="5.52303">
        <ele>1760.31</ele>
        <time>2012-09-09T10:38:48Z</time>
      </trkpt>
      <trkpt lat="44.77365" lon="5.52294">
        <ele>1757.91</ele>
        <time>2012-09-09T10:38:40Z</time>
      </trkpt>
      <trkpt lat="44.7737" lon="5.52291">
        <ele>1757.43</ele>
        <time>2012-09-09T10:38:35Z</time>
      </trkpt>
      <trkpt lat="44.77371" lon="5.5229">
        <ele>1757.43</ele>
        <time>2012-09-09T10:38:33Z</time>
      </trkpt>
      <trkpt lat="44.77377" lon="5.52282">
        <ele>1757.43</ele>
        <time>2012-09-09T10:38:24Z</time>
      </trkpt>
      <trkpt lat="44.77382" lon="5.52277">
        <ele>1756.95</ele>
        <time>2012-09-09T10:38:19Z</time>
      </trkpt>
      <trkpt lat="44.77385" lon="5.52273">
        <ele>1756.47</ele>
        <time>2012-09-09T10:38:16Z</time>
      </trkpt>
      <trkpt lat="44.77395" lon="5.52274">
        <ele>1755.02</ele>
        <time>2012-09-09T10:38:05Z</time>
      </trkpt>
      <trkpt lat="44.774" lon="5.52278">
        <ele>1753.1</ele>
        <time>2012-09-09T10:37:59Z</time>
      </trkpt>
      <trkpt lat="44.77409" lon="5.52286">
        <ele>1751.66</ele>
        <time>2012-09-09T10:37:49Z</time>
      </trkpt>
      <trkpt lat="44.77414" lon="5.52282">
        <ele>1751.66</ele>
        <time>2012-09-09T10:37:43Z</time>
      </trkpt>
      <trkpt lat="44.77426" lon="5.52265">
        <ele>1754.06</ele>
        <time>2012-09-09T10:37:26Z</time>
      </trkpt>
      <trkpt lat="44.77431" lon="5.5226">
        <ele>1753.58</ele>
        <time>2012-09-09T10:37:22Z</time>
      </trkpt>
      <trkpt lat="44.77436" lon="5.52245">
        <ele>1752.62</ele>
        <time>2012-09-09T10:37:11Z</time>
      </trkpt>
      <trkpt lat="44.77437" lon="5.52242">
        <ele>1752.14</ele>
        <time>2012-09-09T10:37:09Z</time>
      </trkpt>
      <trkpt lat="44.77438" lon="5.52237">
        <ele>1751.66</ele>
        <time>2012-09-09T10:37:05Z</time>
      </trkpt>
      <trkpt lat="44.77444" lon="5.52214">
        <ele>1749.74</ele>
        <time>2012-09-09T10:36:48Z</time>
      </trkpt>
      <trkpt lat="44.77443" lon="5.5221">
        <ele>1749.74</ele>
        <time>2012-09-09T10:36:44Z</time>
      </trkpt>
      <trkpt lat="44.77442" lon="5.52204">
        <ele>1750.7</ele>
        <time>2012-09-09T10:36:40Z</time>
      </trkpt>
      <trkpt lat="44.77447" lon="5.52183">
        <ele>1750.7</ele>
        <time>2012-09-09T10:36:24Z</time>
      </trkpt>
      <trkpt lat="44.77448" lon="5.5218">
        <ele>1750.7</ele>
        <time>2012-09-09T10:36:22Z</time>
      </trkpt>
      <trkpt lat="44.77446" lon="5.52167">
        <ele>1749.74</ele>
        <time>2012-09-09T10:36:12Z</time>
      </trkpt>
      <trkpt lat="44.77449" lon="5.52151">
        <ele>1748.78</ele>
        <time>2012-09-09T10:36:00Z</time>
      </trkpt>
      <trkpt lat="44.7745" lon="5.52147">
        <ele>1749.26</ele>
        <time>2012-09-09T10:35:57Z</time>
      </trkpt>
      <trkpt lat="44.77454" lon="5.52129">
        <ele>1749.74</ele>
        <time>2012-09-09T10:35:44Z</time>
      </trkpt>
      <trkpt lat="44.77457" lon="5.52108">
        <ele>1749.74</ele>
        <time>2012-09-09T10:35:26Z</time>
      </trkpt>
      <trkpt lat="44.77457" lon="5.521">
        <ele>1749.26</ele>
        <time>2012-09-09T10:35:21Z</time>
      </trkpt>
      <trkpt lat="44.77462" lon="5.52086">
        <ele>1750.22</ele>
        <time>2012-09-09T10:35:09Z</time>
      </trkpt>
      <trkpt lat="44.7746" lon="5.52078">
        <ele>1751.66</ele>
        <time>2012-09-09T10:34:51Z</time>
      </trkpt>
      <trkpt lat="44.77463" lon="5.52078">
        <ele>1751.18</ele>
        <time>2012-09-09T10:34:21Z</time>
      </trkpt>
      <trkpt lat="44.77461" lon="5.52077">
        <ele>1746.85</ele>
        <time>2012-09-09T10:33:56Z</time>
      </trkpt>
      <trkpt lat="44.77463" lon="5.52062">
        <ele>1745.41</ele>
        <time>2012-09-09T10:33:39Z</time>
      </trkpt>
      <trkpt lat="44.77465" lon="5.5206">
        <ele>1744.45</ele>
        <time>2012-09-09T10:33:37Z</time>
      </trkpt>
      <trkpt lat="44.77471" lon="5.52037">
        <ele>1745.89</ele>
        <time>2012-09-09T10:33:19Z</time>
      </trkpt>
      <trkpt lat="44.77473" lon="5.5203">
        <ele>1746.37</ele>
        <time>2012-09-09T10:33:13Z</time>
      </trkpt>
      <trkpt lat="44.77484" lon="5.52006">
        <ele>1746.85</ele>
        <time>2012-09-09T10:32:51Z</time>
      </trkpt>
      <trkpt lat="44.77485" lon="5.52">
        <ele>1746.85</ele>
        <time>2012-09-09T10:32:46Z</time>
      </trkpt>
      <trkpt lat="44.77489" lon="5.51979">
        <ele>1746.37</ele>
        <time>2012-09-09T10:32:27Z</time>
      </trkpt>
      <trkpt lat="44.77489" lon="5.51975">
        <ele>1745.89</ele>
        <time>2012-09-09T10:32:24Z</time>
      </trkpt>
      <trkpt lat="44.77492" lon="5.5195">
        <ele>1744.93</ele>
        <time>2012-09-09T10:32:04Z</time>
      </trkpt>
      <trkpt lat="44.77491" lon="5.51943">
        <ele>1744.45</ele>
        <time>2012-09-09T10:31:56Z</time>
      </trkpt>
      <trkpt lat="44.77493" lon="5.51938">
        <ele>1744.45</ele>
        <time>2012-09-09T10:31:49Z</time>
      </trkpt>
      <trkpt lat="44.77498" lon="5.5193">
        <ele>1743.49</ele>
        <time>2012-09-09T10:31:38Z</time>
      </trkpt>
      <trkpt lat="44.77505" lon="5.51917">
        <ele>1747.81</ele>
        <time>2012-09-09T10:31:25Z</time>
      </trkpt>
      <trkpt lat="44.77503" lon="5.51912">
        <ele>1749.26</ele>
        <time>2012-09-09T10:31:22Z</time>
      </trkpt>
      <trkpt lat="44.77503" lon="5.51906">
        <ele>1750.22</ele>
        <time>2012-09-09T10:31:17Z</time>
      </trkpt>
      <trkpt lat="44.77506" lon="5.51891">
        <ele>1752.14</ele>
        <time>2012-09-09T10:30:58Z</time>
      </trkpt>
      <trkpt lat="44.77504" lon="5.51894">
        <ele>1748.29</ele>
        <time>2012-09-09T10:30:36Z</time>
      </trkpt>
      <trkpt lat="44.77504" lon="5.51876">
        <ele>1746.85</ele>
        <time>2012-09-09T10:30:13Z</time>
      </trkpt>
      <trkpt lat="44.77504" lon="5.51873">
        <ele>1746.37</ele>
        <time>2012-09-09T10:30:11Z</time>
      </trkpt>
      <trkpt lat="44.77511" lon="5.51855">
        <ele>1747.81</ele>
        <time>2012-09-09T10:29:54Z</time>
      </trkpt>
      <trkpt lat="44.77512" lon="5.51854">
        <ele>1748.29</ele>
        <time>2012-09-09T10:29:53Z</time>
      </trkpt>
      <trkpt lat="44.77516" lon="5.51836">
        <ele>1748.29</ele>
        <time>2012-09-09T10:29:34Z</time>
      </trkpt>
      <trkpt lat="44.77526" lon="5.51821">
        <ele>1747.81</ele>
        <time>2012-09-09T10:29:16Z</time>
      </trkpt>
      <trkpt lat="44.77533" lon="5.51809">
        <ele>1743.97</ele>
        <time>2012-09-09T10:28:56Z</time>
      </trkpt>
      <trkpt lat="44.77536" lon="5.51798">
        <ele>1743.01</ele>
        <time>2012-09-09T10:28:47Z</time>
      </trkpt>
      <trkpt lat="44.77544" lon="5.51784">
        <ele>1743.01</ele>
        <time>2012-09-09T10:28:32Z</time>
      </trkpt>
      <trkpt lat="44.77545" lon="5.51765">
        <ele>1743.97</ele>
        <time>2012-09-09T10:28:12Z</time>
      </trkpt>
      <trkpt lat="44.77546" lon="5.51753">
        <ele>1744.93</ele>
        <time>2012-09-09T10:27:57Z</time>
      </trkpt>
      <trkpt lat="44.77548" lon="5.51731">
        <ele>1743.49</ele>
        <time>2012-09-09T10:27:37Z</time>
      </trkpt>
      <trkpt lat="44.77547" lon="5.51719">
        <ele>1742.53</ele>
        <time>2012-09-09T10:27:22Z</time>
      </trkpt>
      <trkpt lat="44.77539" lon="5.51709">
        <ele>1739.64</ele>
        <time>2012-09-09T10:27:04Z</time>
      </trkpt>
      <trkpt lat="44.77537" lon="5.51706">
        <ele>1739.16</ele>
        <time>2012-09-09T10:26:57Z</time>
      </trkpt>
      <trkpt lat="44.77534" lon="5.51701">
        <ele>1737.24</ele>
        <time>2012-09-09T10:26:37Z</time>
      </trkpt>
      <trkpt lat="44.77525" lon="5.51694">
        <ele>1733.88</ele>
        <time>2012-09-09T10:26:20Z</time>
      </trkpt>
      <trkpt lat="44.77513" lon="5.51689">
        <ele>1732.91</ele>
        <time>2012-09-09T10:26:04Z</time>
      </trkpt>
      <trkpt lat="44.77505" lon="5.51687">
        <ele>1730.99</ele>
        <time>2012-09-09T10:25:47Z</time>
      </trkpt>
      <trkpt lat="44.77503" lon="5.51689">
        <ele>1732.43</ele>
        <time>2012-09-09T10:25:17Z</time>
      </trkpt>
      <trkpt lat="44.775" lon="5.51692">
        <ele>1732.43</ele>
        <time>2012-09-09T10:24:45Z</time>
      </trkpt>
      <trkpt lat="44.77505" lon="5.5169">
        <ele>1735.32</ele>
        <time>2012-09-09T10:24:13Z</time>
      </trkpt>
      <trkpt lat="44.77505" lon="5.51672">
        <ele>1736.28</ele>
        <time>2012-09-09T10:23:55Z</time>
      </trkpt>
      <trkpt lat="44.7751" lon="5.51655">
        <ele>1733.88</ele>
        <time>2012-09-09T10:23:40Z</time>
      </trkpt>
      <trkpt lat="44.77517" lon="5.51644">
        <ele>1736.28</ele>
        <time>2012-09-09T10:23:25Z</time>
      </trkpt>
      <trkpt lat="44.77519" lon="5.51627">
        <ele>1736.76</ele>
        <time>2012-09-09T10:23:04Z</time>
      </trkpt>
      <trkpt lat="44.77518" lon="5.51608">
        <ele>1733.88</ele>
        <time>2012-09-09T10:22:47Z</time>
      </trkpt>
      <trkpt lat="44.77516" lon="5.51602">
        <ele>1734.36</ele>
        <time>2012-09-09T10:22:40Z</time>
      </trkpt>
      <trkpt lat="44.7752" lon="5.51585">
        <ele>1734.36</ele>
        <time>2012-09-09T10:22:16Z</time>
      </trkpt>
      <trkpt lat="44.77516" lon="5.51583">
        <ele>1732.91</ele>
        <time>2012-09-09T10:22:02Z</time>
      </trkpt>
      <trkpt lat="44.77525" lon="5.51562">
        <ele>1735.32</ele>
        <time>2012-09-09T10:21:42Z</time>
      </trkpt>
      <trkpt lat="44.77523" lon="5.51543">
        <ele>1734.36</ele>
        <time>2012-09-09T10:21:27Z</time>
      </trkpt>
      <trkpt lat="44.7752" lon="5.51534">
        <ele>1733.39</ele>
        <time>2012-09-09T10:21:15Z</time>
      </trkpt>
      <trkpt lat="44.77512" lon="5.51519">
        <ele>1730.03</ele>
        <time>2012-09-09T10:20:57Z</time>
      </trkpt>
      <trkpt lat="44.77506" lon="5.51508">
        <ele>1726.67</ele>
        <time>2012-09-09T10:20:39Z</time>
      </trkpt>
      <trkpt lat="44.77496" lon="5.515">
        <ele>1726.18</ele>
        <time>2012-09-09T10:20:23Z</time>
      </trkpt>
      <trkpt lat="44.77487" lon="5.51501">
        <ele>1725.7</ele>
        <time>2012-09-09T10:20:06Z</time>
      </trkpt>
      <trkpt lat="44.77472" lon="5.51496">
        <ele>1722.34</ele>
        <time>2012-09-09T10:19:46Z</time>
      </trkpt>
      <trkpt lat="44.77462" lon="5.51492">
        <ele>1720.42</ele>
        <time>2012-09-09T10:19:34Z</time>
      </trkpt>
      <trkpt lat="44.77459" lon="5.51491">
        <ele>1719.94</ele>
        <time>2012-09-09T10:19:32Z</time>
      </trkpt>
      <trkpt lat="44.77454" lon="5.51489">
        <ele>1719.46</ele>
        <time>2012-09-09T10:19:27Z</time>
      </trkpt>
      <trkpt lat="44.77444" lon="5.51478">
        <ele>1716.57</ele>
        <time>2012-09-09T10:19:11Z</time>
      </trkpt>
      <trkpt lat="44.77442" lon="5.51476">
        <ele>1716.57</ele>
        <time>2012-09-09T10:19:09Z</time>
      </trkpt>
      <trkpt lat="44.77435" lon="5.51461">
        <ele>1716.09</ele>
        <time>2012-09-09T10:18:50Z</time>
      </trkpt>
      <trkpt lat="44.77431" lon="5.51447">
        <ele>1717.53</ele>
        <time>2012-09-09T10:18:34Z</time>
      </trkpt>
      <trkpt lat="44.77418" lon="5.51444">
        <ele>1719.94</ele>
        <time>2012-09-09T10:18:18Z</time>
      </trkpt>
      <trkpt lat="44.7741" lon="5.51443">
        <ele>1719.94</ele>
        <time>2012-09-09T10:18:11Z</time>
      </trkpt>
      <trkpt lat="44.77389" lon="5.51437">
        <ele>1722.34</ele>
        <time>2012-09-09T10:17:50Z</time>
      </trkpt>
      <trkpt lat="44.77385" lon="5.51436">
        <ele>1722.82</ele>
        <time>2012-09-09T10:17:47Z</time>
      </trkpt>
      <trkpt lat="44.77372" lon="5.51433">
        <ele>1728.11</ele>
        <time>2012-09-09T10:17:27Z</time>
      </trkpt>
      <trkpt lat="44.77353" lon="5.51435">
        <ele>1729.07</ele>
        <time>2012-09-09T10:17:05Z</time>
      </trkpt>
      <trkpt lat="44.77355" lon="5.51433">
        <ele>1726.67</ele>
        <time>2012-09-09T10:16:43Z</time>
      </trkpt>
      <trkpt lat="44.77362" lon="5.51432">
        <ele>1727.15</ele>
        <time>2012-09-09T10:16:25Z</time>
      </trkpt>
      <trkpt lat="44.7737" lon="5.51437">
        <ele>1724.74</ele>
        <time>2012-09-09T10:15:58Z</time>
      </trkpt>
      <trkpt lat="44.7737" lon="5.51434">
        <ele>1730.99</ele>
        <time>2012-09-09T10:15:22Z</time>
      </trkpt>
      <trkpt lat="44.7736" lon="5.51432">
        <ele>1735.32</ele>
        <time>2012-09-09T10:15:00Z</time>
      </trkpt>
      <trkpt lat="44.77349" lon="5.51424">
        <ele>1732.91</ele>
        <time>2012-09-09T10:14:32Z</time>
      </trkpt>
      <trkpt lat="44.77336" lon="5.51414">
        <ele>1734.36</ele>
        <time>2012-09-09T10:14:09Z</time>
      </trkpt>
      <trkpt lat="44.77328" lon="5.51398">
        <ele>1734.84</ele>
        <time>2012-09-09T10:13:51Z</time>
      </trkpt>
      <trkpt lat="44.7732" lon="5.51388">
        <ele>1733.88</ele>
        <time>2012-09-09T10:13:43Z</time>
      </trkpt>
      <trkpt lat="44.77314" lon="5.51384">
        <ele>1733.39</ele>
        <time>2012-09-09T10:13:37Z</time>
      </trkpt>
      <trkpt lat="44.77311" lon="5.51384">
        <ele>1732.91</ele>
        <time>2012-09-09T10:13:33Z</time>
      </trkpt>
      <trkpt lat="44.773" lon="5.51373">
        <ele>1731.95</ele>
        <time>2012-09-09T10:13:17Z</time>
      </trkpt>
      <trkpt lat="44.77291" lon="5.51364">
        <ele>1729.55</ele>
        <time>2012-09-09T10:13:04Z</time>
      </trkpt>
      <trkpt lat="44.77276" lon="5.51355">
        <ele>1732.43</ele>
        <time>2012-09-09T10:12:44Z</time>
      </trkpt>
      <trkpt lat="44.77263" lon="5.51346">
        <ele>1732.91</ele>
        <time>2012-09-09T10:12:26Z</time>
      </trkpt>
      <trkpt lat="44.77258" lon="5.51342">
        <ele>1732.43</ele>
        <time>2012-09-09T10:12:20Z</time>
      </trkpt>
      <trkpt lat="44.77239" lon="5.51329">
        <ele>1731.95</ele>
        <time>2012-09-09T10:11:57Z</time>
      </trkpt>
      <trkpt lat="44.77226" lon="5.51312">
        <ele>1731.95</ele>
        <time>2012-09-09T10:11:39Z</time>
      </trkpt>
      <trkpt lat="44.77222" lon="5.51298">
        <ele>1730.51</ele>
        <time>2012-09-09T10:11:24Z</time>
      </trkpt>
      <trkpt lat="44.77214" lon="5.51279">
        <ele>1727.63</ele>
        <time>2012-09-09T10:11:05Z</time>
      </trkpt>
      <trkpt lat="44.77201" lon="5.51274">
        <ele>1724.26</ele>
        <time>2012-09-09T10:10:48Z</time>
      </trkpt>
      <trkpt lat="44.77189" lon="5.51264">
        <ele>1721.86</ele>
        <time>2012-09-09T10:10:28Z</time>
      </trkpt>
      <trkpt lat="44.77182" lon="5.51252">
        <ele>1722.82</ele>
        <time>2012-09-09T10:10:13Z</time>
      </trkpt>
      <trkpt lat="44.77176" lon="5.51238">
        <ele>1721.38</ele>
        <time>2012-09-09T10:09:56Z</time>
      </trkpt>
      <trkpt lat="44.77172" lon="5.51236">
        <ele>1721.38</ele>
        <time>2012-09-09T10:09:51Z</time>
      </trkpt>
      <trkpt lat="44.77165" lon="5.51226">
        <ele>1718.97</ele>
        <time>2012-09-09T10:09:39Z</time>
      </trkpt>
      <trkpt lat="44.77163" lon="5.51218">
        <ele>1718.49</ele>
        <time>2012-09-09T10:09:33Z</time>
      </trkpt>
      <trkpt lat="44.77152" lon="5.51194">
        <ele>1713.69</ele>
        <time>2012-09-09T10:09:13Z</time>
      </trkpt>
      <trkpt lat="44.77145" lon="5.51177">
        <ele>1714.17</ele>
        <time>2012-09-09T10:08:59Z</time>
      </trkpt>
      <trkpt lat="44.77144" lon="5.51173">
        <ele>1714.17</ele>
        <time>2012-09-09T10:08:56Z</time>
      </trkpt>
      <trkpt lat="44.77136" lon="5.51158">
        <ele>1719.94</ele>
        <time>2012-09-09T10:08:35Z</time>
      </trkpt>
      <trkpt lat="44.77129" lon="5.51133">
        <ele>1727.15</ele>
        <time>2012-09-09T10:08:12Z</time>
      </trkpt>
      <trkpt lat="44.77119" lon="5.51127">
        <ele>1724.74</ele>
        <time>2012-09-09T10:07:45Z</time>
      </trkpt>
      <trkpt lat="44.77118" lon="5.51121">
        <ele>1722.82</ele>
        <time>2012-09-09T10:07:23Z</time>
      </trkpt>
      <trkpt lat="44.77113" lon="5.51107">
        <ele>1721.86</ele>
        <time>2012-09-09T10:07:07Z</time>
      </trkpt>
      <trkpt lat="44.77099" lon="5.51086">
        <ele>1721.38</ele>
        <time>2012-09-09T10:06:42Z</time>
      </trkpt>
      <trkpt lat="44.77088" lon="5.51073">
        <ele>1721.38</ele>
        <time>2012-09-09T10:06:21Z</time>
      </trkpt>
      <trkpt lat="44.77075" lon="5.51062">
        <ele>1723.3</ele>
        <time>2012-09-09T10:06:04Z</time>
      </trkpt>
      <trkpt lat="44.77069" lon="5.51059">
        <ele>1724.74</ele>
        <time>2012-09-09T10:05:57Z</time>
      </trkpt>
      <trkpt lat="44.77058" lon="5.51051">
        <ele>1727.63</ele>
        <time>2012-09-09T10:05:37Z</time>
      </trkpt>
      <trkpt lat="44.77049" lon="5.51037">
        <ele>1728.59</ele>
        <time>2012-09-09T10:05:21Z</time>
      </trkpt>
      <trkpt lat="44.77049" lon="5.5103">
        <ele>1729.55</ele>
        <time>2012-09-09T10:05:17Z</time>
      </trkpt>
      <trkpt lat="44.7705" lon="5.51011">
        <ele>1731.47</ele>
        <time>2012-09-09T10:05:04Z</time>
      </trkpt>
      <trkpt lat="44.77048" lon="5.51001">
        <ele>1732.43</ele>
        <time>2012-09-09T10:04:58Z</time>
      </trkpt>
      <trkpt lat="44.7704" lon="5.50995">
        <ele>1732.91</ele>
        <time>2012-09-09T10:04:49Z</time>
      </trkpt>
      <trkpt lat="44.77032" lon="5.50985">
        <ele>1735.32</ele>
        <time>2012-09-09T10:04:38Z</time>
      </trkpt>
      <trkpt lat="44.77033" lon="5.50962">
        <ele>1734.36</ele>
        <time>2012-09-09T10:04:19Z</time>
      </trkpt>
      <trkpt lat="44.77034" lon="5.50948">
        <ele>1731.47</ele>
        <time>2012-09-09T10:04:07Z</time>
      </trkpt>
      <trkpt lat="44.77043" lon="5.50935">
        <ele>1732.91</ele>
        <time>2012-09-09T10:03:50Z</time>
      </trkpt>
      <trkpt lat="44.77035" lon="5.50929">
        <ele>1731.95</ele>
        <time>2012-09-09T10:03:28Z</time>
      </trkpt>
      <trkpt lat="44.77027" lon="5.50928">
        <ele>1732.91</ele>
        <time>2012-09-09T10:03:09Z</time>
      </trkpt>
      <trkpt lat="44.77024" lon="5.50923">
        <ele>1733.88</ele>
        <time>2012-09-09T10:03:00Z</time>
      </trkpt>
      <trkpt lat="44.77021" lon="5.50902">
        <ele>1737.24</ele>
        <time>2012-09-09T10:02:37Z</time>
      </trkpt>
      <trkpt lat="44.77022" lon="5.50885">
        <ele>1739.64</ele>
        <time>2012-09-09T10:02:09Z</time>
      </trkpt>
      <trkpt lat="44.7702" lon="5.50866">
        <ele>1744.45</ele>
        <time>2012-09-09T10:01:48Z</time>
      </trkpt>
      <trkpt lat="44.77025" lon="5.5087">
        <ele>1750.7</ele>
        <time>2012-09-09T10:01:32Z</time>
      </trkpt>
      <trkpt lat="44.77013" lon="5.50853">
        <ele>1750.7</ele>
        <time>2012-09-09T10:01:05Z</time>
      </trkpt>
      <trkpt lat="44.77019" lon="5.50849">
        <ele>1751.66</ele>
        <time>2012-09-09T10:00:31Z</time>
      </trkpt>
      <trkpt lat="44.77019" lon="5.50841">
        <ele>1754.06</ele>
        <time>2012-09-09T10:00:14Z</time>
      </trkpt>
      <trkpt lat="44.77011" lon="5.50826">
        <ele>1756.95</ele>
        <time>2012-09-09T09:59:56Z</time>
      </trkpt>
      <trkpt lat="44.77013" lon="5.50827">
        <ele>1758.39</ele>
        <time>2012-09-09T09:59:36Z</time>
      </trkpt>
      <trkpt lat="44.77009" lon="5.50829">
        <ele>1758.87</ele>
        <time>2012-09-09T09:59:17Z</time>
      </trkpt>
      <trkpt lat="44.77011" lon="5.5082">
        <ele>1750.7</ele>
        <time>2012-09-09T09:58:39Z</time>
      </trkpt>
      <trkpt lat="44.77011" lon="5.5082">
        <ele>1755.02</ele>
        <time>2012-09-09T09:56:34Z</time>
      </trkpt>
      <trkpt lat="44.77002" lon="5.50805">
        <ele>1753.1</ele>
        <time>2012-09-09T09:56:14Z</time>
      </trkpt>
      <trkpt lat="44.77004" lon="5.50784">
        <ele>1757.91</ele>
        <time>2012-09-09T09:55:52Z</time>
      </trkpt>
      <trkpt lat="44.77004" lon="5.50762">
        <ele>1757.43</ele>
        <time>2012-09-09T09:55:28Z</time>
      </trkpt>
      <trkpt lat="44.76999" lon="5.50749">
        <ele>1757.43</ele>
        <time>2012-09-09T09:55:08Z</time>
      </trkpt>
      <trkpt lat="44.76993" lon="5.50739">
        <ele>1755.99</ele>
        <time>2012-09-09T09:54:38Z</time>
      </trkpt>
      <trkpt lat="44.76988" lon="5.50742">
        <ele>1754.54</ele>
        <time>2012-09-09T09:54:08Z</time>
      </trkpt>
      <trkpt lat="44.76987" lon="5.50743">
        <ele>1754.54</ele>
        <time>2012-09-09T09:53:40Z</time>
      </trkpt>
      <trkpt lat="44.7699" lon="5.50743">
        <ele>1753.1</ele>
        <time>2012-09-09T09:53:08Z</time>
      </trkpt>
      <trkpt lat="44.76985" lon="5.50742">
        <ele>1748.78</ele>
        <time>2012-09-09T09:52:32Z</time>
      </trkpt>
      <trkpt lat="44.76988" lon="5.50744">
        <ele>1749.74</ele>
        <time>2012-09-09T09:51:56Z</time>
      </trkpt>
      <trkpt lat="44.7699" lon="5.50739">
        <ele>1754.54</ele>
        <time>2012-09-09T09:51:19Z</time>
      </trkpt>
      <trkpt lat="44.7699" lon="5.50741">
        <ele>1755.5</ele>
        <time>2012-09-09T09:50:50Z</time>
      </trkpt>
      <trkpt lat="44.7699" lon="5.50741">
        <ele>1755.99</ele>
        <time>2012-09-09T09:50:14Z</time>
      </trkpt>
      <trkpt lat="44.76988" lon="5.5074">
        <ele>1755.5</ele>
        <time>2012-09-09T09:49:48Z</time>
      </trkpt>
      <trkpt lat="44.76991" lon="5.50745">
        <ele>1753.58</ele>
        <time>2012-09-09T09:49:19Z</time>
      </trkpt>
      <trkpt lat="44.7699" lon="5.50742">
        <ele>1752.62</ele>
        <time>2012-09-09T09:48:55Z</time>
      </trkpt>
      <trkpt lat="44.76987" lon="5.50743">
        <ele>1754.54</ele>
        <time>2012-09-09T09:48:35Z</time>
      </trkpt>
      <trkpt lat="44.76988" lon="5.50743">
        <ele>1754.06</ele>
        <time>2012-09-09T09:48:12Z</time>
      </trkpt>
      <trkpt lat="44.76987" lon="5.50745">
        <ele>1755.5</ele>
        <time>2012-09-09T09:47:53Z</time>
      </trkpt>
      <trkpt lat="44.76986" lon="5.50741">
        <ele>1756.47</ele>
        <time>2012-09-09T09:47:38Z</time>
      </trkpt>
      <trkpt lat="44.7699" lon="5.50738">
        <ele>1759.35</ele>
        <time>2012-09-09T09:47:06Z</time>
      </trkpt>
      <trkpt lat="44.7699" lon="5.50736">
        <ele>1760.31</ele>
        <time>2012-09-09T09:46:37Z</time>
      </trkpt>
      <trkpt lat="44.7699" lon="5.50739">
        <ele>1758.87</ele>
        <time>2012-09-09T09:46:03Z</time>
      </trkpt>
      <trkpt lat="44.7699" lon="5.50739">
        <ele>1758.39</ele>
        <time>2012-09-09T09:45:25Z</time>
      </trkpt>
      <trkpt lat="44.76988" lon="5.50741">
        <ele>1750.7</ele>
        <time>2012-09-09T09:44:43Z</time>
      </trkpt>
      <trkpt lat="44.7699" lon="5.50739">
        <ele>1749.74</ele>
        <time>2012-09-09T09:44:10Z</time>
      </trkpt>
      <trkpt lat="44.7699" lon="5.50743">
        <ele>1749.74</ele>
        <time>2012-09-09T09:43:46Z</time>
      </trkpt>
      <trkpt lat="44.7699" lon="5.50741">
        <ele>1746.85</ele>
        <time>2012-09-09T09:43:22Z</time>
      </trkpt>
      <trkpt lat="44.76985" lon="5.5073">
        <ele>1744.45</ele>
        <time>2012-09-09T09:43:05Z</time>
      </trkpt>
      <trkpt lat="44.76988" lon="5.50731">
        <ele>1747.81</ele>
        <time>2012-09-09T09:42:31Z</time>
      </trkpt>
      <trkpt lat="44.7699" lon="5.50741">
        <ele>1750.22</ele>
        <time>2012-09-09T09:42:11Z</time>
      </trkpt>
      <trkpt lat="44.76997" lon="5.50738">
        <ele>1750.22</ele>
        <time>2012-09-09T09:41:49Z</time>
      </trkpt>
      <trkpt lat="44.76999" lon="5.50739">
        <ele>1750.7</ele>
        <time>2012-09-09T09:41:44Z</time>
      </trkpt>
      <trkpt lat="44.77001" lon="5.50727">
        <ele>1754.06</ele>
        <time>2012-09-09T09:41:26Z</time>
      </trkpt>
      <trkpt lat="44.77006" lon="5.50725">
        <ele>1758.87</ele>
        <time>2012-09-09T09:41:11Z</time>
      </trkpt>
      <trkpt lat="44.77011" lon="5.50725">
        <ele>1760.79</ele>
        <time>2012-09-09T09:40:54Z</time>
      </trkpt>
      <trkpt lat="44.77016" lon="5.5072">
        <ele>1761.75</ele>
        <time>2012-09-09T09:40:34Z</time>
      </trkpt>
      <trkpt lat="44.77018" lon="5.50713">
        <ele>1768.48</ele>
        <time>2012-09-09T09:40:12Z</time>
      </trkpt>
      <trkpt lat="44.77009" lon="5.50701">
        <ele>1772.33</ele>
        <time>2012-09-09T09:39:46Z</time>
      </trkpt>
      <trkpt lat="44.7701" lon="5.50699">
        <ele>1772.33</ele>
        <time>2012-09-09T09:39:15Z</time>
      </trkpt>
      <trkpt lat="44.77012" lon="5.50699">
        <ele>1774.73</ele>
        <time>2012-09-09T09:38:45Z</time>
      </trkpt>
      <trkpt lat="44.77009" lon="5.50686">
        <ele>1775.21</ele>
        <time>2012-09-09T09:38:28Z</time>
      </trkpt>
      <trkpt lat="44.7701" lon="5.50678">
        <ele>1772.33</ele>
        <time>2012-09-09T09:38:16Z</time>
      </trkpt>
      <trkpt lat="44.7701" lon="5.50675">
        <ele>1771.85</ele>
        <time>2012-09-09T09:38:14Z</time>
      </trkpt>
      <trkpt lat="44.77007" lon="5.50663">
        <ele>1767.52</ele>
        <time>2012-09-09T09:38:01Z</time>
      </trkpt>
      <trkpt lat="44.77005" lon="5.50646">
        <ele>1767.52</ele>
        <time>2012-09-09T09:37:45Z</time>
      </trkpt>
      <trkpt lat="44.77006" lon="5.50629">
        <ele>1772.33</ele>
        <time>2012-09-09T09:37:25Z</time>
      </trkpt>
      <trkpt lat="44.77003" lon="5.50615">
        <ele>1776.17</ele>
        <time>2012-09-09T09:37:02Z</time>
      </trkpt>
      <trkpt lat="44.77008" lon="5.50608">
        <ele>1778.58</ele>
        <time>2012-09-09T09:36:44Z</time>
      </trkpt>
      <trkpt lat="44.77008" lon="5.50595">
        <ele>1779.06</ele>
        <time>2012-09-09T09:36:22Z</time>
      </trkpt>
      <trkpt lat="44.77008" lon="5.50587">
        <ele>1777.61</ele>
        <time>2012-09-09T09:36:02Z</time>
      </trkpt>
      <trkpt lat="44.77009" lon="5.50573">
        <ele>1773.77</ele>
        <time>2012-09-09T09:35:44Z</time>
      </trkpt>
      <trkpt lat="44.77013" lon="5.50559">
        <ele>1771.85</ele>
        <time>2012-09-09T09:35:28Z</time>
      </trkpt>
      <trkpt lat="44.77022" lon="5.50548">
        <ele>1770.41</ele>
        <time>2012-09-09T09:35:09Z</time>
      </trkpt>
      <trkpt lat="44.77033" lon="5.50547">
        <ele>1771.37</ele>
        <time>2012-09-09T09:34:45Z</time>
      </trkpt>
      <trkpt lat="44.77045" lon="5.50549">
        <ele>1773.77</ele>
        <time>2012-09-09T09:34:25Z</time>
      </trkpt>
      <trkpt lat="44.77055" lon="5.50543">
        <ele>1775.21</ele>
        <time>2012-09-09T09:34:07Z</time>
      </trkpt>
      <trkpt lat="44.77061" lon="5.50526">
        <ele>1776.17</ele>
        <time>2012-09-09T09:33:49Z</time>
      </trkpt>
      <trkpt lat="44.77061" lon="5.50508">
        <ele>1773.77</ele>
        <time>2012-09-09T09:33:31Z</time>
      </trkpt>
      <trkpt lat="44.77062" lon="5.50495">
        <ele>1773.77</ele>
        <time>2012-09-09T09:33:15Z</time>
      </trkpt>
      <trkpt lat="44.77065" lon="5.50492">
        <ele>1775.21</ele>
        <time>2012-09-09T09:33:06Z</time>
      </trkpt>
      <trkpt lat="44.77062" lon="5.50491">
        <ele>1777.13</ele>
        <time>2012-09-09T09:32:35Z</time>
      </trkpt>
      <trkpt lat="44.77064" lon="5.50485">
        <ele>1776.65</ele>
        <time>2012-09-09T09:32:12Z</time>
      </trkpt>
      <trkpt lat="44.77064" lon="5.50485">
        <ele>1769.44</ele>
        <time>2012-09-09T09:31:42Z</time>
      </trkpt>
      <trkpt lat="44.77065" lon="5.50486">
        <ele>1767.04</ele>
        <time>2012-09-09T09:31:14Z</time>
      </trkpt>
      <trkpt lat="44.77063" lon="5.50487">
        <ele>1777.61</ele>
        <time>2012-09-09T09:30:41Z</time>
      </trkpt>
      <trkpt lat="44.77062" lon="5.50489">
        <ele>1773.77</ele>
        <time>2012-09-09T09:30:03Z</time>
      </trkpt>
      <trkpt lat="44.77069" lon="5.50489">
        <ele>1770.89</ele>
        <time>2012-09-09T09:29:39Z</time>
      </trkpt>
      <trkpt lat="44.77079" lon="5.50485">
        <ele>1766.08</ele>
        <time>2012-09-09T09:29:21Z</time>
      </trkpt>
      <trkpt lat="44.77091" lon="5.50478">
        <ele>1760.79</ele>
        <time>2012-09-09T09:29:00Z</time>
      </trkpt>
      <trkpt lat="44.77104" lon="5.50476">
        <ele>1755.99</ele>
        <time>2012-09-09T09:28:42Z</time>
      </trkpt>
      <trkpt lat="44.77116" lon="5.50485">
        <ele>1751.66</ele>
        <time>2012-09-09T09:28:24Z</time>
      </trkpt>
      <trkpt lat="44.77124" lon="5.50483">
        <ele>1750.7</ele>
        <time>2012-09-09T09:28:03Z</time>
      </trkpt>
      <trkpt lat="44.7713" lon="5.50496">
        <ele>1751.18</ele>
        <time>2012-09-09T09:27:46Z</time>
      </trkpt>
      <trkpt lat="44.77136" lon="5.50508">
        <ele>1746.37</ele>
        <time>2012-09-09T09:27:27Z</time>
      </trkpt>
      <trkpt lat="44.77142" lon="5.50511">
        <ele>1743.49</ele>
        <time>2012-09-09T09:27:10Z</time>
      </trkpt>
      <trkpt lat="44.77149" lon="5.50512">
        <ele>1743.97</ele>
        <time>2012-09-09T09:26:49Z</time>
      </trkpt>
      <trkpt lat="44.77156" lon="5.50531">
        <ele>1746.85</ele>
        <time>2012-09-09T09:26:32Z</time>
      </trkpt>
      <trkpt lat="44.7716" lon="5.50549">
        <ele>1750.22</ele>
        <time>2012-09-09T09:26:15Z</time>
      </trkpt>
      <trkpt lat="44.77162" lon="5.50552">
        <ele>1751.18</ele>
        <time>2012-09-09T09:26:12Z</time>
      </trkpt>
      <trkpt lat="44.7717" lon="5.50561">
        <ele>1750.22</ele>
        <time>2012-09-09T09:25:57Z</time>
      </trkpt>
      <trkpt lat="44.7718" lon="5.50576">
        <ele>1747.81</ele>
        <time>2012-09-09T09:25:40Z</time>
      </trkpt>
      <trkpt lat="44.77194" lon="5.50586">
        <ele>1744.93</ele>
        <time>2012-09-09T09:25:22Z</time>
      </trkpt>
      <trkpt lat="44.77207" lon="5.50596">
        <ele>1743.49</ele>
        <time>2012-09-09T09:25:01Z</time>
      </trkpt>
      <trkpt lat="44.77208" lon="5.50597">
        <ele>1743.49</ele>
        <time>2012-09-09T09:25:00Z</time>
      </trkpt>
      <trkpt lat="44.77225" lon="5.50604">
        <ele>1741.08</ele>
        <time>2012-09-09T09:24:40Z</time>
      </trkpt>
      <trkpt lat="44.77235" lon="5.50604">
        <ele>1739.64</ele>
        <time>2012-09-09T09:24:30Z</time>
      </trkpt>
      <trkpt lat="44.77251" lon="5.50614">
        <ele>1740.6</ele>
        <time>2012-09-09T09:24:09Z</time>
      </trkpt>
      <trkpt lat="44.77266" lon="5.5062">
        <ele>1743.01</ele>
        <time>2012-09-09T09:23:43Z</time>
      </trkpt>
      <trkpt lat="44.77267" lon="5.50621">
        <ele>1739.64</ele>
        <time>2012-09-09T09:23:12Z</time>
      </trkpt>
      <trkpt lat="44.77272" lon="5.50625">
        <ele>1738.2</ele>
        <time>2012-09-09T09:22:56Z</time>
      </trkpt>
      <trkpt lat="44.77282" lon="5.50627">
        <ele>1737.72</ele>
        <time>2012-09-09T09:22:39Z</time>
      </trkpt>
      <trkpt lat="44.773" lon="5.50625">
        <ele>1736.28</ele>
        <time>2012-09-09T09:22:18Z</time>
      </trkpt>
      <trkpt lat="44.77315" lon="5.50626">
        <ele>1732.91</ele>
        <time>2012-09-09T09:21:59Z</time>
      </trkpt>
      <trkpt lat="44.7733" lon="5.50637">
        <ele>1731.47</ele>
        <time>2012-09-09T09:21:42Z</time>
      </trkpt>
      <trkpt lat="44.77341" lon="5.50642">
        <ele>1731.47</ele>
        <time>2012-09-09T09:21:29Z</time>
      </trkpt>
      <trkpt lat="44.77347" lon="5.50643">
        <ele>1731.47</ele>
        <time>2012-09-09T09:21:24Z</time>
      </trkpt>
      <trkpt lat="44.77348" lon="5.50644">
        <ele>1731.95</ele>
        <time>2012-09-09T09:21:22Z</time>
      </trkpt>
      <trkpt lat="44.77362" lon="5.50635">
        <ele>1736.28</ele>
        <time>2012-09-09T09:21:05Z</time>
      </trkpt>
      <trkpt lat="44.77377" lon="5.50628">
        <ele>1738.2</ele>
        <time>2012-09-09T09:20:49Z</time>
      </trkpt>
      <trkpt lat="44.77379" lon="5.50621">
        <ele>1739.16</ele>
        <time>2012-09-09T09:20:30Z</time>
      </trkpt>
      <trkpt lat="44.77393" lon="5.50619">
        <ele>1738.2</ele>
        <time>2012-09-09T09:20:12Z</time>
      </trkpt>
      <trkpt lat="44.77403" lon="5.50621">
        <ele>1731.95</ele>
        <time>2012-09-09T09:19:54Z</time>
      </trkpt>
      <trkpt lat="44.77414" lon="5.50623">
        <ele>1730.03</ele>
        <time>2012-09-09T09:19:37Z</time>
      </trkpt>
      <trkpt lat="44.77427" lon="5.50624">
        <ele>1726.67</ele>
        <time>2012-09-09T09:19:21Z</time>
      </trkpt>
      <trkpt lat="44.77432" lon="5.50625">
        <ele>1726.18</ele>
        <time>2012-09-09T09:19:16Z</time>
      </trkpt>
      <trkpt lat="44.77441" lon="5.50626">
        <ele>1725.7</ele>
        <time>2012-09-09T09:18:59Z</time>
      </trkpt>
      <trkpt lat="44.77464" lon="5.50629">
        <ele>1724.26</ele>
        <time>2012-09-09T09:18:36Z</time>
      </trkpt>
      <trkpt lat="44.77475" lon="5.50628">
        <ele>1723.78</ele>
        <time>2012-09-09T09:18:16Z</time>
      </trkpt>
      <trkpt lat="44.7748" lon="5.50631">
        <ele>1719.46</ele>
        <time>2012-09-09T09:17:43Z</time>
      </trkpt>
      <trkpt lat="44.77485" lon="5.50642">
        <ele>1716.57</ele>
        <time>2012-09-09T09:17:22Z</time>
      </trkpt>
      <trkpt lat="44.77499" lon="5.5064">
        <ele>1714.65</ele>
        <time>2012-09-09T09:17:01Z</time>
      </trkpt>
      <trkpt lat="44.77506" lon="5.50635">
        <ele>1715.13</ele>
        <time>2012-09-09T09:16:44Z</time>
      </trkpt>
      <trkpt lat="44.7751" lon="5.50625">
        <ele>1714.17</ele>
        <time>2012-09-09T09:16:25Z</time>
      </trkpt>
      <trkpt lat="44.77516" lon="5.50614">
        <ele>1709.36</ele>
        <time>2012-09-09T09:16:04Z</time>
      </trkpt>
      <trkpt lat="44.77527" lon="5.50617">
        <ele>1706.48</ele>
        <time>2012-09-09T09:15:44Z</time>
      </trkpt>
      <trkpt lat="44.77528" lon="5.50614">
        <ele>1706</ele>
        <time>2012-09-09T09:15:21Z</time>
      </trkpt>
      <trkpt lat="44.77533" lon="5.50608">
        <ele>1703.11</ele>
        <time>2012-09-09T09:14:57Z</time>
      </trkpt>
      <trkpt lat="44.77547" lon="5.50597">
        <ele>1700.71</ele>
        <time>2012-09-09T09:14:37Z</time>
      </trkpt>
      <trkpt lat="44.77557" lon="5.5059">
        <ele>1702.15</ele>
        <time>2012-09-09T09:14:19Z</time>
      </trkpt>
      <trkpt lat="44.77566" lon="5.50588">
        <ele>1700.23</ele>
        <time>2012-09-09T09:14:00Z</time>
      </trkpt>
      <trkpt lat="44.77575" lon="5.50577">
        <ele>1697.34</ele>
        <time>2012-09-09T09:13:42Z</time>
      </trkpt>
      <trkpt lat="44.77588" lon="5.50566">
        <ele>1696.38</ele>
        <time>2012-09-09T09:13:19Z</time>
      </trkpt>
      <trkpt lat="44.7759" lon="5.50557">
        <ele>1695.42</ele>
        <time>2012-09-09T09:12:46Z</time>
      </trkpt>
      <trkpt lat="44.77585" lon="5.50553">
        <ele>1690.14</ele>
        <time>2012-09-09T09:12:11Z</time>
      </trkpt>
      <trkpt lat="44.77586" lon="5.50546">
        <ele>1686.29</ele>
        <time>2012-09-09T09:11:35Z</time>
      </trkpt>
      <trkpt lat="44.77588" lon="5.5055">
        <ele>1690.62</ele>
        <time>2012-09-09T09:11:09Z</time>
      </trkpt>
      <trkpt lat="44.77598" lon="5.50564">
        <ele>1693.5</ele>
        <time>2012-09-09T09:10:44Z</time>
      </trkpt>
      <trkpt lat="44.77612" lon="5.50563">
        <ele>1692.06</ele>
        <time>2012-09-09T09:10:24Z</time>
      </trkpt>
      <trkpt lat="44.77618" lon="5.5055">
        <ele>1690.62</ele>
        <time>2012-09-09T09:10:02Z</time>
      </trkpt>
      <trkpt lat="44.77635" lon="5.50542">
        <ele>1687.73</ele>
        <time>2012-09-09T09:09:38Z</time>
      </trkpt>
      <trkpt lat="44.77648" lon="5.50536">
        <ele>1686.29</ele>
        <time>2012-09-09T09:09:17Z</time>
      </trkpt>
      <trkpt lat="44.77656" lon="5.50541">
        <ele>1682.44</ele>
        <time>2012-09-09T09:09:00Z</time>
      </trkpt>
      <trkpt lat="44.77664" lon="5.50539">
        <ele>1677.64</ele>
        <time>2012-09-09T09:08:38Z</time>
      </trkpt>
      <trkpt lat="44.77671" lon="5.50533">
        <ele>1679.56</ele>
        <time>2012-09-09T09:08:15Z</time>
      </trkpt>
      <trkpt lat="44.77676" lon="5.50549">
        <ele>1678.12</ele>
        <time>2012-09-09T09:07:52Z</time>
      </trkpt>
      <trkpt lat="44.77685" lon="5.50549">
        <ele>1673.79</ele>
        <time>2012-09-09T09:07:26Z</time>
      </trkpt>
      <trkpt lat="44.77693" lon="5.5054">
        <ele>1670.43</ele>
        <time>2012-09-09T09:07:05Z</time>
      </trkpt>
      <trkpt lat="44.77695" lon="5.50525">
        <ele>1664.66</ele>
        <time>2012-09-09T09:06:44Z</time>
      </trkpt>
      <trkpt lat="44.77701" lon="5.50512">
        <ele>1660.81</ele>
        <time>2012-09-09T09:06:24Z</time>
      </trkpt>
      <trkpt lat="44.77698" lon="5.50486">
        <ele>1662.26</ele>
        <time>2012-09-09T09:06:02Z</time>
      </trkpt>
      <trkpt lat="44.77695" lon="5.50469">
        <ele>1663.22</ele>
        <time>2012-09-09T09:05:44Z</time>
      </trkpt>
      <trkpt lat="44.77693" lon="5.5046">
        <ele>1661.78</ele>
        <time>2012-09-09T09:05:21Z</time>
      </trkpt>
      <trkpt lat="44.77704" lon="5.50444">
        <ele>1658.89</ele>
        <time>2012-09-09T09:05:01Z</time>
      </trkpt>
      <trkpt lat="44.7771" lon="5.50438">
        <ele>1656.49</ele>
        <time>2012-09-09T09:04:52Z</time>
      </trkpt>
      <trkpt lat="44.77722" lon="5.50427">
        <ele>1654.09</ele>
        <time>2012-09-09T09:04:34Z</time>
      </trkpt>
      <trkpt lat="44.77735" lon="5.50417">
        <ele>1655.05</ele>
        <time>2012-09-09T09:04:13Z</time>
      </trkpt>
      <trkpt lat="44.77741" lon="5.504">
        <ele>1652.16</ele>
        <time>2012-09-09T09:03:55Z</time>
      </trkpt>
      <trkpt lat="44.77752" lon="5.504">
        <ele>1646.88</ele>
        <time>2012-09-09T09:03:37Z</time>
      </trkpt>
      <trkpt lat="44.77754" lon="5.50387">
        <ele>1644.47</ele>
        <time>2012-09-09T09:03:16Z</time>
      </trkpt>
      <trkpt lat="44.77753" lon="5.50368">
        <ele>1646.4</ele>
        <time>2012-09-09T09:02:56Z</time>
      </trkpt>
      <trkpt lat="44.7776" lon="5.50357">
        <ele>1643.03</ele>
        <time>2012-09-09T09:02:35Z</time>
      </trkpt>
      <trkpt lat="44.77764" lon="5.50343">
        <ele>1641.11</ele>
        <time>2012-09-09T09:02:18Z</time>
      </trkpt>
      <trkpt lat="44.77777" lon="5.50338">
        <ele>1638.22</ele>
        <time>2012-09-09T09:01:58Z</time>
      </trkpt>
      <trkpt lat="44.77785" lon="5.50331">
        <ele>1637.74</ele>
        <time>2012-09-09T09:01:44Z</time>
      </trkpt>
      <trkpt lat="44.77785" lon="5.50322">
        <ele>1634.86</ele>
        <time>2012-09-09T09:01:26Z</time>
      </trkpt>
      <trkpt lat="44.77789" lon="5.503">
        <ele>1631.01</ele>
        <time>2012-09-09T09:01:07Z</time>
      </trkpt>
      <trkpt lat="44.77791" lon="5.50278">
        <ele>1628.13</ele>
        <time>2012-09-09T09:00:48Z</time>
      </trkpt>
      <trkpt lat="44.77789" lon="5.50251">
        <ele>1627.17</ele>
        <time>2012-09-09T09:00:29Z</time>
      </trkpt>
      <trkpt lat="44.77787" lon="5.50233">
        <ele>1625.25</ele>
        <time>2012-09-09T09:00:11Z</time>
      </trkpt>
      <trkpt lat="44.77787" lon="5.50206">
        <ele>1625.25</ele>
        <time>2012-09-09T08:59:53Z</time>
      </trkpt>
      <trkpt lat="44.77779" lon="5.50182">
        <ele>1627.17</ele>
        <time>2012-09-09T08:59:31Z</time>
      </trkpt>
      <trkpt lat="44.77778" lon="5.50158">
        <ele>1631.49</ele>
        <time>2012-09-09T08:59:10Z</time>
      </trkpt>
      <trkpt lat="44.77777" lon="5.50134">
        <ele>1630.53</ele>
        <time>2012-09-09T08:58:49Z</time>
      </trkpt>
      <trkpt lat="44.77775" lon="5.50129">
        <ele>1629.09</ele>
        <time>2012-09-09T08:58:45Z</time>
      </trkpt>
      <trkpt lat="44.77772" lon="5.50105">
        <ele>1625.25</ele>
        <time>2012-09-09T08:58:25Z</time>
      </trkpt>
      <trkpt lat="44.77773" lon="5.5008">
        <ele>1623.8</ele>
        <time>2012-09-09T08:58:04Z</time>
      </trkpt>
      <trkpt lat="44.77776" lon="5.50059">
        <ele>1625.25</ele>
        <time>2012-09-09T08:57:45Z</time>
      </trkpt>
      <trkpt lat="44.7778" lon="5.50043">
        <ele>1624.28</ele>
        <time>2012-09-09T08:57:27Z</time>
      </trkpt>
      <trkpt lat="44.77784" lon="5.50028">
        <ele>1622.84</ele>
        <time>2012-09-09T08:57:11Z</time>
      </trkpt>
      <trkpt lat="44.77787" lon="5.50006">
        <ele>1620.92</ele>
        <time>2012-09-09T08:56:51Z</time>
      </trkpt>
      <trkpt lat="44.77788" lon="5.50003">
        <ele>1621.4</ele>
        <time>2012-09-09T08:56:49Z</time>
      </trkpt>
      <trkpt lat="44.77787" lon="5.4997">
        <ele>1622.84</ele>
        <time>2012-09-09T08:56:26Z</time>
      </trkpt>
      <trkpt lat="44.77791" lon="5.49952">
        <ele>1621.88</ele>
        <time>2012-09-09T08:56:09Z</time>
      </trkpt>
      <trkpt lat="44.77793" lon="5.49946">
        <ele>1621.4</ele>
        <time>2012-09-09T08:56:05Z</time>
      </trkpt>
      <trkpt lat="44.77796" lon="5.49941">
        <ele>1620.92</ele>
        <time>2012-09-09T08:55:59Z</time>
      </trkpt>
      <trkpt lat="44.77798" lon="5.49934">
        <ele>1620.92</ele>
        <time>2012-09-09T08:55:54Z</time>
      </trkpt>
      <trkpt lat="44.77807" lon="5.49918">
        <ele>1622.36</ele>
        <time>2012-09-09T08:55:42Z</time>
      </trkpt>
      <trkpt lat="44.77806" lon="5.49916">
        <ele>1622.84</ele>
        <time>2012-09-09T08:55:31Z</time>
      </trkpt>
      <trkpt lat="44.77818" lon="5.49891">
        <ele>1621.88</ele>
        <time>2012-09-09T08:55:08Z</time>
      </trkpt>
      <trkpt lat="44.77816" lon="5.49882">
        <ele>1621.4</ele>
        <time>2012-09-09T08:55:01Z</time>
      </trkpt>
      <trkpt lat="44.77815" lon="5.49858">
        <ele>1625.25</ele>
        <time>2012-09-09T08:54:42Z</time>
      </trkpt>
      <trkpt lat="44.77814" lon="5.49834">
        <ele>1628.61</ele>
        <time>2012-09-09T08:54:21Z</time>
      </trkpt>
      <trkpt lat="44.77811" lon="5.49833">
        <ele>1629.09</ele>
        <time>2012-09-09T08:54:15Z</time>
      </trkpt>
      <trkpt lat="44.77804" lon="5.49821">
        <ele>1628.61</ele>
        <time>2012-09-09T08:53:57Z</time>
      </trkpt>
      <trkpt lat="44.77806" lon="5.49806">
        <ele>1630.53</ele>
        <time>2012-09-09T08:53:37Z</time>
      </trkpt>
      <trkpt lat="44.77799" lon="5.49791">
        <ele>1632.94</ele>
        <time>2012-09-09T08:53:16Z</time>
      </trkpt>
      <trkpt lat="44.77797" lon="5.49785">
        <ele>1634.38</ele>
        <time>2012-09-09T08:52:53Z</time>
      </trkpt>
      <trkpt lat="44.77797" lon="5.49776">
        <ele>1634.86</ele>
        <time>2012-09-09T08:52:24Z</time>
      </trkpt>
      <trkpt lat="44.77787" lon="5.49761">
        <ele>1633.42</ele>
        <time>2012-09-09T08:52:06Z</time>
      </trkpt>
      <trkpt lat="44.7778" lon="5.49747">
        <ele>1631.98</ele>
        <time>2012-09-09T08:51:47Z</time>
      </trkpt>
      <trkpt lat="44.77783" lon="5.49734">
        <ele>1629.57</ele>
        <time>2012-09-09T08:51:31Z</time>
      </trkpt>
      <trkpt lat="44.77783" lon="5.49727">
        <ele>1628.61</ele>
        <time>2012-09-09T08:51:25Z</time>
      </trkpt>
      <trkpt lat="44.77776" lon="5.49718">
        <ele>1625.73</ele>
        <time>2012-09-09T08:51:08Z</time>
      </trkpt>
      <trkpt lat="44.77765" lon="5.49708">
        <ele>1622.84</ele>
        <time>2012-09-09T08:50:49Z</time>
      </trkpt>
      <trkpt lat="44.77753" lon="5.49695">
        <ele>1627.17</ele>
        <time>2012-09-09T08:50:25Z</time>
      </trkpt>
      <trkpt lat="44.77739" lon="5.49669">
        <ele>1628.61</ele>
        <time>2012-09-09T08:50:03Z</time>
      </trkpt>
      <trkpt lat="44.7772" lon="5.49651">
        <ele>1630.53</ele>
        <time>2012-09-09T08:49:39Z</time>
      </trkpt>
      <trkpt lat="44.7772" lon="5.4965">
        <ele>1630.53</ele>
        <time>2012-09-09T08:49:38Z</time>
      </trkpt>
      <trkpt lat="44.77706" lon="5.49622">
        <ele>1632.94</ele>
        <time>2012-09-09T08:49:16Z</time>
      </trkpt>
      <trkpt lat="44.7768" lon="5.49603">
        <ele>1636.3</ele>
        <time>2012-09-09T08:48:51Z</time>
      </trkpt>
      <trkpt lat="44.77664" lon="5.49594">
        <ele>1633.42</ele>
        <time>2012-09-09T08:48:32Z</time>
      </trkpt>
      <trkpt lat="44.77647" lon="5.49579">
        <ele>1631.01</ele>
        <time>2012-09-09T08:48:11Z</time>
      </trkpt>
      <trkpt lat="44.77634" lon="5.49576">
        <ele>1629.09</ele>
        <time>2012-09-09T08:47:55Z</time>
      </trkpt>
      <trkpt lat="44.7763" lon="5.49578">
        <ele>1628.61</ele>
        <time>2012-09-09T08:47:47Z</time>
      </trkpt>
      <trkpt lat="44.77625" lon="5.49578">
        <ele>1627.17</ele>
        <time>2012-09-09T08:47:29Z</time>
      </trkpt>
      <trkpt lat="44.77605" lon="5.49579">
        <ele>1624.77</ele>
        <time>2012-09-09T08:47:07Z</time>
      </trkpt>
      <trkpt lat="44.77584" lon="5.4957">
        <ele>1623.8</ele>
        <time>2012-09-09T08:46:46Z</time>
      </trkpt>
      <trkpt lat="44.77575" lon="5.49567">
        <ele>1623.32</ele>
        <time>2012-09-09T08:46:36Z</time>
      </trkpt>
      <trkpt lat="44.7756" lon="5.49561">
        <ele>1623.32</ele>
        <time>2012-09-09T08:46:17Z</time>
      </trkpt>
      <trkpt lat="44.77548" lon="5.49545">
        <ele>1624.77</ele>
        <time>2012-09-09T08:45:52Z</time>
      </trkpt>
      <trkpt lat="44.77541" lon="5.49527">
        <ele>1624.77</ele>
        <time>2012-09-09T08:45:34Z</time>
      </trkpt>
      <trkpt lat="44.77539" lon="5.49523">
        <ele>1624.28</ele>
        <time>2012-09-09T08:45:24Z</time>
      </trkpt>
      <trkpt lat="44.77531" lon="5.49506">
        <ele>1628.13</ele>
        <time>2012-09-09T08:45:04Z</time>
      </trkpt>
      <trkpt lat="44.77524" lon="5.4949">
        <ele>1629.57</ele>
        <time>2012-09-09T08:44:44Z</time>
      </trkpt>
      <trkpt lat="44.77509" lon="5.49488">
        <ele>1627.65</ele>
        <time>2012-09-09T08:44:27Z</time>
      </trkpt>
      <trkpt lat="44.77487" lon="5.49465">
        <ele>1629.09</ele>
        <time>2012-09-09T08:44:04Z</time>
      </trkpt>
      <trkpt lat="44.77484" lon="5.49466">
        <ele>1626.69</ele>
        <time>2012-09-09T08:43:49Z</time>
      </trkpt>
      <trkpt lat="44.77478" lon="5.49457">
        <ele>1622.84</ele>
        <time>2012-09-09T08:43:35Z</time>
      </trkpt>
      <trkpt lat="44.77476" lon="5.49454">
        <ele>1623.32</ele>
        <time>2012-09-09T08:43:32Z</time>
      </trkpt>
      <trkpt lat="44.77468" lon="5.49445">
        <ele>1625.25</ele>
        <time>2012-09-09T08:43:20Z</time>
      </trkpt>
      <trkpt lat="44.77458" lon="5.49418">
        <ele>1628.13</ele>
        <time>2012-09-09T08:42:59Z</time>
      </trkpt>
      <trkpt lat="44.77441" lon="5.49396">
        <ele>1631.01</ele>
        <time>2012-09-09T08:42:37Z</time>
      </trkpt>
      <trkpt lat="44.77428" lon="5.49384">
        <ele>1630.53</ele>
        <time>2012-09-09T08:42:23Z</time>
      </trkpt>
      <trkpt lat="44.77414" lon="5.49362">
        <ele>1629.57</ele>
        <time>2012-09-09T08:42:01Z</time>
      </trkpt>
      <trkpt lat="44.77411" lon="5.49354">
        <ele>1625.25</ele>
        <time>2012-09-09T08:41:41Z</time>
      </trkpt>
      <trkpt lat="44.77396" lon="5.49332">
        <ele>1625.25</ele>
        <time>2012-09-09T08:41:17Z</time>
      </trkpt>
      <trkpt lat="44.77381" lon="5.49307">
        <ele>1624.28</ele>
        <time>2012-09-09T08:40:51Z</time>
      </trkpt>
      <trkpt lat="44.7738" lon="5.49304">
        <ele>1624.28</ele>
        <time>2012-09-09T08:40:49Z</time>
      </trkpt>
      <trkpt lat="44.77374" lon="5.49295">
        <ele>1625.25</ele>
        <time>2012-09-09T08:40:31Z</time>
      </trkpt>
      <trkpt lat="44.77369" lon="5.4927">
        <ele>1625.73</ele>
        <time>2012-09-09T08:40:13Z</time>
      </trkpt>
      <trkpt lat="44.77366" lon="5.49254">
        <ele>1622.36</ele>
        <time>2012-09-09T08:40:04Z</time>
      </trkpt>
      <trkpt lat="44.77362" lon="5.49235">
        <ele>1624.77</ele>
        <time>2012-09-09T08:39:46Z</time>
      </trkpt>
      <trkpt lat="44.7736" lon="5.49206">
        <ele>1620.44</ele>
        <time>2012-09-09T08:39:26Z</time>
      </trkpt>
      <trkpt lat="44.7736" lon="5.49185">
        <ele>1621.4</ele>
        <time>2012-09-09T08:39:07Z</time>
      </trkpt>
      <trkpt lat="44.77361" lon="5.49161">
        <ele>1622.84</ele>
        <time>2012-09-09T08:38:50Z</time>
      </trkpt>
      <trkpt lat="44.77358" lon="5.49157">
        <ele>1622.84</ele>
        <time>2012-09-09T08:38:46Z</time>
      </trkpt>
      <trkpt lat="44.77358" lon="5.49151">
        <ele>1623.32</ele>
        <time>2012-09-09T08:38:42Z</time>
      </trkpt>
      <trkpt lat="44.77355" lon="5.49138">
        <ele>1623.32</ele>
        <time>2012-09-09T08:38:35Z</time>
      </trkpt>
      <trkpt lat="44.77352" lon="5.4913">
        <ele>1623.32</ele>
        <time>2012-09-09T08:38:28Z</time>
      </trkpt>
      <trkpt lat="44.77353" lon="5.49112">
        <ele>1622.84</ele>
        <time>2012-09-09T08:38:11Z</time>
      </trkpt>
      <trkpt lat="44.77352" lon="5.49098">
        <ele>1625.25</ele>
        <time>2012-09-09T08:37:53Z</time>
      </trkpt>
      <trkpt lat="44.77356" lon="5.49081">
        <ele>1626.21</ele>
        <time>2012-09-09T08:37:33Z</time>
      </trkpt>
      <trkpt lat="44.7736" lon="5.4905">
        <ele>1625.25</ele>
        <time>2012-09-09T08:37:11Z</time>
      </trkpt>
      <trkpt lat="44.77363" lon="5.49035">
        <ele>1624.77</ele>
        <time>2012-09-09T08:36:52Z</time>
      </trkpt>
      <trkpt lat="44.77374" lon="5.49023">
        <ele>1625.73</ele>
        <time>2012-09-09T08:36:31Z</time>
      </trkpt>
      <trkpt lat="44.77387" lon="5.49006">
        <ele>1624.28</ele>
        <time>2012-09-09T08:36:07Z</time>
      </trkpt>
      <trkpt lat="44.77395" lon="5.48996">
        <ele>1622.84</ele>
        <time>2012-09-09T08:35:50Z</time>
      </trkpt>
      <trkpt lat="44.77402" lon="5.48977">
        <ele>1619.96</ele>
        <time>2012-09-09T08:35:27Z</time>
      </trkpt>
      <trkpt lat="44.77408" lon="5.48961">
        <ele>1613.71</ele>
        <time>2012-09-09T08:35:09Z</time>
      </trkpt>
      <trkpt lat="44.77421" lon="5.48955">
        <ele>1615.15</ele>
        <time>2012-09-09T08:34:49Z</time>
      </trkpt>
      <trkpt lat="44.7743" lon="5.48955">
        <ele>1618.04</ele>
        <time>2012-09-09T08:34:28Z</time>
      </trkpt>
      <trkpt lat="44.77433" lon="5.48943">
        <ele>1619.48</ele>
        <time>2012-09-09T08:34:05Z</time>
      </trkpt>
      <trkpt lat="44.77428" lon="5.48935">
        <ele>1618.04</ele>
        <time>2012-09-09T08:33:47Z</time>
      </trkpt>
      <trkpt lat="44.77425" lon="5.48926">
        <ele>1614.19</ele>
        <time>2012-09-09T08:33:25Z</time>
      </trkpt>
      <trkpt lat="44.77419" lon="5.48915">
        <ele>1611.79</ele>
        <time>2012-09-09T08:33:09Z</time>
      </trkpt>
      <trkpt lat="44.77407" lon="5.48899">
        <ele>1607.94</ele>
        <time>2012-09-09T08:32:48Z</time>
      </trkpt>
      <trkpt lat="44.77398" lon="5.48894">
        <ele>1607.46</ele>
        <time>2012-09-09T08:32:33Z</time>
      </trkpt>
      <trkpt lat="44.77397" lon="5.48894">
        <ele>1607.46</ele>
        <time>2012-09-09T08:32:31Z</time>
      </trkpt>
      <trkpt lat="44.77386" lon="5.48866">
        <ele>1607.46</ele>
        <time>2012-09-09T08:32:07Z</time>
      </trkpt>
      <trkpt lat="44.77374" lon="5.48852">
        <ele>1608.42</ele>
        <time>2012-09-09T08:31:47Z</time>
      </trkpt>
      <trkpt lat="44.7736" lon="5.48836">
        <ele>1606.5</ele>
        <time>2012-09-09T08:31:21Z</time>
      </trkpt>
      <trkpt lat="44.77345" lon="5.48819">
        <ele>1604.58</ele>
        <time>2012-09-09T08:31:01Z</time>
      </trkpt>
      <trkpt lat="44.77334" lon="5.48809">
        <ele>1602.17</ele>
        <time>2012-09-09T08:30:43Z</time>
      </trkpt>
      <trkpt lat="44.77331" lon="5.48807">
        <ele>1602.17</ele>
        <time>2012-09-09T08:30:40Z</time>
      </trkpt>
      <trkpt lat="44.77327" lon="5.48782">
        <ele>1599.77</ele>
        <time>2012-09-09T08:30:22Z</time>
      </trkpt>
      <trkpt lat="44.77318" lon="5.48773">
        <ele>1597.85</ele>
        <time>2012-09-09T08:30:05Z</time>
      </trkpt>
      <trkpt lat="44.77304" lon="5.48744">
        <ele>1595.93</ele>
        <time>2012-09-09T08:29:39Z</time>
      </trkpt>
      <trkpt lat="44.77291" lon="5.48722">
        <ele>1593.52</ele>
        <time>2012-09-09T08:29:19Z</time>
      </trkpt>
      <trkpt lat="44.77288" lon="5.48718">
        <ele>1593.04</ele>
        <time>2012-09-09T08:29:15Z</time>
      </trkpt>
      <trkpt lat="44.77279" lon="5.48706">
        <ele>1592.08</ele>
        <time>2012-09-09T08:28:57Z</time>
      </trkpt>
      <trkpt lat="44.77266" lon="5.48698">
        <ele>1587.27</ele>
        <time>2012-09-09T08:28:38Z</time>
      </trkpt>
      <trkpt lat="44.77265" lon="5.48697">
        <ele>1586.79</ele>
        <time>2012-09-09T08:28:37Z</time>
      </trkpt>
      <trkpt lat="44.77251" lon="5.48692">
        <ele>1582.95</ele>
        <time>2012-09-09T08:28:18Z</time>
      </trkpt>
      <trkpt lat="44.7724" lon="5.48676">
        <ele>1584.39</ele>
        <time>2012-09-09T08:28:00Z</time>
      </trkpt>
      <trkpt lat="44.77235" lon="5.48683">
        <ele>1587.75</ele>
        <time>2012-09-09T08:27:44Z</time>
      </trkpt>
      <trkpt lat="44.77227" lon="5.48688">
        <ele>1585.35</ele>
        <time>2012-09-09T08:27:28Z</time>
      </trkpt>
      <trkpt lat="44.77214" lon="5.48675">
        <ele>1582.95</ele>
        <time>2012-09-09T08:27:01Z</time>
      </trkpt>
      <trkpt lat="44.77206" lon="5.4867">
        <ele>1582.47</ele>
        <time>2012-09-09T08:26:42Z</time>
      </trkpt>
      <trkpt lat="44.77196" lon="5.4865">
        <ele>1586.79</ele>
        <time>2012-09-09T08:26:15Z</time>
      </trkpt>
      <trkpt lat="44.77175" lon="5.48624">
        <ele>1593.52</ele>
        <time>2012-09-09T08:25:52Z</time>
      </trkpt>
      <trkpt lat="44.77159" lon="5.48608">
        <ele>1598.33</ele>
        <time>2012-09-09T08:25:30Z</time>
      </trkpt>
      <trkpt lat="44.77148" lon="5.48601">
        <ele>1601.69</ele>
        <time>2012-09-09T08:25:16Z</time>
      </trkpt>
      <trkpt lat="44.77134" lon="5.48586">
        <ele>1605.06</ele>
        <time>2012-09-09T08:24:58Z</time>
      </trkpt>
      <trkpt lat="44.77139" lon="5.48594">
        <ele>1603.62</ele>
        <time>2012-09-09T08:24:28Z</time>
      </trkpt>
      <trkpt lat="44.77145" lon="5.48592">
        <ele>1602.66</ele>
        <time>2012-09-09T08:24:05Z</time>
      </trkpt>
      <trkpt lat="44.77143" lon="5.48597">
        <ele>1603.62</ele>
        <time>2012-09-09T08:23:32Z</time>
      </trkpt>
      <trkpt lat="44.77139" lon="5.4859">
        <ele>1605.54</ele>
        <time>2012-09-09T08:23:03Z</time>
      </trkpt>
      <trkpt lat="44.77139" lon="5.48591">
        <ele>1603.14</ele>
        <time>2012-09-09T08:22:33Z</time>
      </trkpt>
      <trkpt lat="44.77138" lon="5.48586">
        <ele>1602.66</ele>
        <time>2012-09-09T08:22:16Z</time>
      </trkpt>
      <trkpt lat="44.77139" lon="5.48591">
        <ele>1604.1</ele>
        <time>2012-09-09T08:21:50Z</time>
      </trkpt>
      <trkpt lat="44.77135" lon="5.4859">
        <ele>1606.5</ele>
        <time>2012-09-09T08:21:32Z</time>
      </trkpt>
      <trkpt lat="44.77133" lon="5.48593">
        <ele>1607.94</ele>
        <time>2012-09-09T08:21:06Z</time>
      </trkpt>
      <trkpt lat="44.77138" lon="5.48595">
        <ele>1611.79</ele>
        <time>2012-09-09T08:20:40Z</time>
      </trkpt>
      <trkpt lat="44.77137" lon="5.48596">
        <ele>1608.9</ele>
        <time>2012-09-09T08:20:06Z</time>
      </trkpt>
      <trkpt lat="44.77137" lon="5.48592">
        <ele>1601.21</ele>
        <time>2012-09-09T08:19:27Z</time>
      </trkpt>
      <trkpt lat="44.77139" lon="5.48591">
        <ele>1600.73</ele>
        <time>2012-09-09T08:19:03Z</time>
      </trkpt>
      <trkpt lat="44.77138" lon="5.48592">
        <ele>1603.62</ele>
        <time>2012-09-09T08:18:35Z</time>
      </trkpt>
      <trkpt lat="44.77137" lon="5.48593">
        <ele>1601.69</ele>
        <time>2012-09-09T08:18:12Z</time>
      </trkpt>
      <trkpt lat="44.77139" lon="5.48588">
        <ele>1604.1</ele>
        <time>2012-09-09T08:17:41Z</time>
      </trkpt>
      <trkpt lat="44.77131" lon="5.48593">
        <ele>1610.83</ele>
        <time>2012-09-09T08:16:49Z</time>
      </trkpt>
      <trkpt lat="44.7713" lon="5.48584">
        <ele>1612.75</ele>
        <time>2012-09-09T08:15:57Z</time>
      </trkpt>
      <trkpt lat="44.7713" lon="5.48591">
        <ele>1610.83</ele>
        <time>2012-09-09T08:15:08Z</time>
      </trkpt>
      <trkpt lat="44.7713" lon="5.48593">
        <ele>1611.31</ele>
        <time>2012-09-09T08:14:30Z</time>
      </trkpt>
      <trkpt lat="44.7713" lon="5.48593">
        <ele>1605.06</ele>
        <time>2012-09-09T08:13:55Z</time>
      </trkpt>
      <trkpt lat="44.77136" lon="5.48594">
        <ele>1600.25</ele>
        <time>2012-09-09T08:13:07Z</time>
      </trkpt>
      <trkpt lat="44.7714" lon="5.48596">
        <ele>1598.81</ele>
        <time>2012-09-09T08:12:19Z</time>
      </trkpt>
      <trkpt lat="44.77138" lon="5.48595">
        <ele>1598.33</ele>
        <time>2012-09-09T08:11:27Z</time>
      </trkpt>
      <trkpt lat="44.77136" lon="5.48595">
        <ele>1598.33</ele>
        <time>2012-09-09T08:10:41Z</time>
      </trkpt>
      <trkpt lat="44.77137" lon="5.4859">
        <ele>1596.41</ele>
        <time>2012-09-09T08:09:44Z</time>
      </trkpt>
      <trkpt lat="44.77139" lon="5.48596">
        <ele>1592.08</ele>
        <time>2012-09-09T08:08:51Z</time>
      </trkpt>
      <trkpt lat="44.77144" lon="5.48594">
        <ele>1590.16</ele>
        <time>2012-09-09T08:07:56Z</time>
      </trkpt>
      <trkpt lat="44.7714" lon="5.48597">
        <ele>1592.56</ele>
        <time>2012-09-09T08:07:14Z</time>
      </trkpt>
      <trkpt lat="44.77137" lon="5.48596">
        <ele>1597.37</ele>
        <time>2012-09-09T08:06:24Z</time>
      </trkpt>
      <trkpt lat="44.77139" lon="5.48594">
        <ele>1594</ele>
        <time>2012-09-09T08:05:22Z</time>
      </trkpt>
      <trkpt lat="44.77143" lon="5.48596">
        <ele>1594</ele>
        <time>2012-09-09T08:04:31Z</time>
      </trkpt>
      <trkpt lat="44.7715" lon="5.48606">
        <ele>1593.04</ele>
        <time>2012-09-09T08:04:00Z</time>
      </trkpt>
      <trkpt lat="44.77144" lon="5.48598">
        <ele>1590.16</ele>
        <time>2012-09-09T08:03:25Z</time>
      </trkpt>
      <trkpt lat="44.77137" lon="5.48594">
        <ele>1588.72</ele>
        <time>2012-09-09T08:03:02Z</time>
      </trkpt>
      <trkpt lat="44.77131" lon="5.4859">
        <ele>1584.87</ele>
        <time>2012-09-09T08:02:40Z</time>
      </trkpt>
      <trkpt lat="44.77124" lon="5.48588">
        <ele>1579.58</ele>
        <time>2012-09-09T08:02:19Z</time>
      </trkpt>
      <trkpt lat="44.77126" lon="5.48576">
        <ele>1577.18</ele>
        <time>2012-09-09T08:01:57Z</time>
      </trkpt>
      <trkpt lat="44.77131" lon="5.48568">
        <ele>1577.18</ele>
        <time>2012-09-09T08:01:37Z</time>
      </trkpt>
      <trkpt lat="44.77136" lon="5.48563">
        <ele>1571.41</ele>
        <time>2012-09-09T08:01:12Z</time>
      </trkpt>
      <trkpt lat="44.77136" lon="5.48558">
        <ele>1569.01</ele>
        <time>2012-09-09T08:00:50Z</time>
      </trkpt>
      <trkpt lat="44.77138" lon="5.48556">
        <ele>1566.61</ele>
        <time>2012-09-09T08:00:29Z</time>
      </trkpt>
      <trkpt lat="44.77139" lon="5.48549">
        <ele>1564.68</ele>
        <time>2012-09-09T08:00:12Z</time>
      </trkpt>
      <trkpt lat="44.77135" lon="5.48544">
        <ele>1562.28</ele>
        <time>2012-09-09T07:59:54Z</time>
      </trkpt>
      <trkpt lat="44.77132" lon="5.48539">
        <ele>1559.88</ele>
        <time>2012-09-09T07:59:36Z</time>
      </trkpt>
      <trkpt lat="44.77123" lon="5.48539">
        <ele>1567.57</ele>
        <time>2012-09-09T07:59:11Z</time>
      </trkpt>
      <trkpt lat="44.77111" lon="5.48543">
        <ele>1569.49</ele>
        <time>2012-09-09T07:58:51Z</time>
      </trkpt>
      <trkpt lat="44.77099" lon="5.48545">
        <ele>1564.68</ele>
        <time>2012-09-09T07:58:26Z</time>
      </trkpt>
      <trkpt lat="44.77098" lon="5.48529">
        <ele>1562.28</ele>
        <time>2012-09-09T07:58:01Z</time>
      </trkpt>
      <trkpt lat="44.77108" lon="5.48533">
        <ele>1552.67</ele>
        <time>2012-09-09T07:57:32Z</time>
      </trkpt>
      <trkpt lat="44.77154" lon="5.48542">
        <ele>1508.93</ele>
        <time>2012-09-09T07:56:53Z</time>
      </trkpt>
      <trkpt lat="44.77138" lon="5.48548">
        <ele>1502.68</ele>
        <time>2012-09-09T07:56:26Z</time>
      </trkpt>
      <trkpt lat="44.77136" lon="5.48546">
        <ele>1502.68</ele>
        <time>2012-09-09T07:56:23Z</time>
      </trkpt>
      <trkpt lat="44.77118" lon="5.48536">
        <ele>1500.27</ele>
        <time>2012-09-09T07:56:05Z</time>
      </trkpt>
      <trkpt lat="44.77113" lon="5.48532">
        <ele>1500.27</ele>
        <time>2012-09-09T07:55:46Z</time>
      </trkpt>
      <trkpt lat="44.77115" lon="5.48522">
        <ele>1496.43</ele>
        <time>2012-09-09T07:55:23Z</time>
      </trkpt>
      <trkpt lat="44.77124" lon="5.48507">
        <ele>1496.43</ele>
        <time>2012-09-09T07:55:00Z</time>
      </trkpt>
      <trkpt lat="44.77124" lon="5.48505">
        <ele>1495.95</ele>
        <time>2012-09-09T07:54:37Z</time>
      </trkpt>
      <trkpt lat="44.7712" lon="5.48508">
        <ele>1495.95</ele>
        <time>2012-09-09T07:54:22Z</time>
      </trkpt>
      <trkpt lat="44.77125" lon="5.48504">
        <ele>1495.47</ele>
        <time>2012-09-09T07:53:56Z</time>
      </trkpt>
      <trkpt lat="44.77123" lon="5.48508">
        <ele>1494.99</ele>
        <time>2012-09-09T07:53:37Z</time>
      </trkpt>
      <trkpt lat="44.77117" lon="5.48506">
        <ele>1494.51</ele>
        <time>2012-09-09T07:53:20Z</time>
      </trkpt>
      <trkpt lat="44.77116" lon="5.48499">
        <ele>1494.03</ele>
        <time>2012-09-09T07:52:51Z</time>
      </trkpt>
      <trkpt lat="44.77122" lon="5.48493">
        <ele>1493.55</ele>
        <time>2012-09-09T07:52:34Z</time>
      </trkpt>
      <trkpt lat="44.77121" lon="5.48493">
        <ele>1493.06</ele>
        <time>2012-09-09T07:52:17Z</time>
      </trkpt>
      <trkpt lat="44.77116" lon="5.48487">
        <ele>1492.58</ele>
        <time>2012-09-09T07:51:53Z</time>
      </trkpt>
      <trkpt lat="44.77111" lon="5.4848">
        <ele>1492.1</ele>
        <time>2012-09-09T07:51:28Z</time>
      </trkpt>
      <trkpt lat="44.77112" lon="5.48478">
        <ele>1492.1</ele>
        <time>2012-09-09T07:51:15Z</time>
      </trkpt>
      <trkpt lat="44.77117" lon="5.48466">
        <ele>1491.14</ele>
        <time>2012-09-09T07:50:54Z</time>
      </trkpt>
      <trkpt lat="44.77117" lon="5.48467">
        <ele>1490.66</ele>
        <time>2012-09-09T07:50:31Z</time>
      </trkpt>
      <trkpt lat="44.77122" lon="5.48464">
        <ele>1490.18</ele>
        <time>2012-09-09T07:50:13Z</time>
      </trkpt>
      <trkpt lat="44.77117" lon="5.48461">
        <ele>1489.7</ele>
        <time>2012-09-09T07:49:44Z</time>
      </trkpt>
      <trkpt lat="44.77109" lon="5.48444">
        <ele>1489.22</ele>
        <time>2012-09-09T07:49:16Z</time>
      </trkpt>
      <trkpt lat="44.77105" lon="5.48445">
        <ele>1488.74</ele>
        <time>2012-09-09T07:48:52Z</time>
      </trkpt>
      <trkpt lat="44.77102" lon="5.48435">
        <ele>1487.78</ele>
        <time>2012-09-09T07:48:28Z</time>
      </trkpt>
      <trkpt lat="44.77105" lon="5.48425">
        <ele>1486.82</ele>
        <time>2012-09-09T07:48:03Z</time>
      </trkpt>
      <trkpt lat="44.77111" lon="5.48417">
        <ele>1485.85</ele>
        <time>2012-09-09T07:47:44Z</time>
      </trkpt>
      <trkpt lat="44.77109" lon="5.48405">
        <ele>1484.41</ele>
        <time>2012-09-09T07:47:26Z</time>
      </trkpt>
      <trkpt lat="44.77107" lon="5.48395">
        <ele>1485.85</ele>
        <time>2012-09-09T07:47:08Z</time>
      </trkpt>
      <trkpt lat="44.77104" lon="5.48389">
        <ele>1485.85</ele>
        <time>2012-09-09T07:46:50Z</time>
      </trkpt>
      <trkpt lat="44.7711" lon="5.48377">
        <ele>1483.45</ele>
        <time>2012-09-09T07:46:17Z</time>
      </trkpt>
      <trkpt lat="44.77104" lon="5.4837">
        <ele>1486.34</ele>
        <time>2012-09-09T07:45:52Z</time>
      </trkpt>
      <trkpt lat="44.77108" lon="5.48361">
        <ele>1484.89</ele>
        <time>2012-09-09T07:45:32Z</time>
      </trkpt>
      <trkpt lat="44.77116" lon="5.48364">
        <ele>1477.2</ele>
        <time>2012-09-09T07:45:06Z</time>
      </trkpt>
      <trkpt lat="44.7712" lon="5.48354">
        <ele>1472.4</ele>
        <time>2012-09-09T07:44:43Z</time>
      </trkpt>
      <trkpt lat="44.77128" lon="5.48351">
        <ele>1469.03</ele>
        <time>2012-09-09T07:44:21Z</time>
      </trkpt>
      <trkpt lat="44.77123" lon="5.4834">
        <ele>1466.63</ele>
        <time>2012-09-09T07:44:03Z</time>
      </trkpt>
      <trkpt lat="44.77115" lon="5.48332">
        <ele>1461.34</ele>
        <time>2012-09-09T07:43:34Z</time>
      </trkpt>
      <trkpt lat="44.77109" lon="5.4832">
        <ele>1457.02</ele>
        <time>2012-09-09T07:43:05Z</time>
      </trkpt>
      <trkpt lat="44.77107" lon="5.4832">
        <ele>1454.61</ele>
        <time>2012-09-09T07:42:43Z</time>
      </trkpt>
      <trkpt lat="44.77111" lon="5.48313">
        <ele>1452.69</ele>
        <time>2012-09-09T07:42:04Z</time>
      </trkpt>
      <trkpt lat="44.77113" lon="5.48313">
        <ele>1452.69</ele>
        <time>2012-09-09T07:41:39Z</time>
      </trkpt>
      <trkpt lat="44.77109" lon="5.483">
        <ele>1452.21</ele>
        <time>2012-09-09T07:41:15Z</time>
      </trkpt>
      <trkpt lat="44.77097" lon="5.48298">
        <ele>1452.69</ele>
        <time>2012-09-09T07:40:54Z</time>
      </trkpt>
      <trkpt lat="44.77081" lon="5.48283">
        <ele>1461.82</ele>
        <time>2012-09-09T07:40:25Z</time>
      </trkpt>
      <trkpt lat="44.77069" lon="5.48277">
        <ele>1460.38</ele>
        <time>2012-09-09T07:40:02Z</time>
      </trkpt>
      <trkpt lat="44.77061" lon="5.48271">
        <ele>1460.38</ele>
        <time>2012-09-09T07:39:41Z</time>
      </trkpt>
      <trkpt lat="44.77073" lon="5.48262">
        <ele>1459.42</ele>
        <time>2012-09-09T07:39:17Z</time>
      </trkpt>
      <trkpt lat="44.77086" lon="5.48249">
        <ele>1458.94</ele>
        <time>2012-09-09T07:38:56Z</time>
      </trkpt>
      <trkpt lat="44.77083" lon="5.48236">
        <ele>1464.71</ele>
        <time>2012-09-09T07:38:35Z</time>
      </trkpt>
      <trkpt lat="44.77054" lon="5.48241">
        <ele>1489.7</ele>
        <time>2012-09-09T07:38:10Z</time>
      </trkpt>
      <trkpt lat="44.77001" lon="5.48226">
        <ele>1569.01</ele>
        <time>2012-09-09T07:37:45Z</time>
      </trkpt>
      <trkpt lat="44.76992" lon="5.48218">
        <ele>1569.01</ele>
        <time>2012-09-09T07:37:23Z</time>
      </trkpt>
      <trkpt lat="44.76985" lon="5.48202">
        <ele>1569.01</ele>
        <time>2012-09-09T07:37:02Z</time>
      </trkpt>
      <trkpt lat="44.76976" lon="5.48198">
        <ele>1568.53</ele>
        <time>2012-09-09T07:36:38Z</time>
      </trkpt>
      <trkpt lat="44.76974" lon="5.48194">
        <ele>1568.53</ele>
        <time>2012-09-09T07:36:21Z</time>
      </trkpt>
      <trkpt lat="44.7698" lon="5.48187">
        <ele>1568.53</ele>
        <time>2012-09-09T07:36:00Z</time>
      </trkpt>
      <trkpt lat="44.76983" lon="5.4818">
        <ele>1568.05</ele>
        <time>2012-09-09T07:35:41Z</time>
      </trkpt>
      <trkpt lat="44.76984" lon="5.48175">
        <ele>1568.05</ele>
        <time>2012-09-09T07:35:16Z</time>
      </trkpt>
      <trkpt lat="44.76987" lon="5.48172">
        <ele>1568.05</ele>
        <time>2012-09-09T07:34:57Z</time>
      </trkpt>
      <trkpt lat="44.76989" lon="5.48172">
        <ele>1567.57</ele>
        <time>2012-09-09T07:34:26Z</time>
      </trkpt>
      <trkpt lat="44.76989" lon="5.48172">
        <ele>1567.09</ele>
        <time>2012-09-09T07:33:42Z</time>
      </trkpt>
      <trkpt lat="44.76989" lon="5.48172">
        <ele>1566.61</ele>
        <time>2012-09-09T07:33:14Z</time>
      </trkpt>
      <trkpt lat="44.76992" lon="5.48172">
        <ele>1566.12</ele>
        <time>2012-09-09T07:32:47Z</time>
      </trkpt>
      <trkpt lat="44.76994" lon="5.48172">
        <ele>1565.64</ele>
        <time>2012-09-09T07:32:03Z</time>
      </trkpt>
      <trkpt lat="44.76994" lon="5.48169">
        <ele>1565.64</ele>
        <time>2012-09-09T07:31:44Z</time>
      </trkpt>
      <trkpt lat="44.76995" lon="5.48169">
        <ele>1565.64</ele>
        <time>2012-09-09T07:31:40Z</time>
      </trkpt>
      <trkpt lat="44.76986" lon="5.48171">
        <ele>1565.16</ele>
        <time>2012-09-09T07:31:22Z</time>
      </trkpt>
      <trkpt lat="44.76976" lon="5.48173">
        <ele>1564.68</ele>
        <time>2012-09-09T07:31:05Z</time>
      </trkpt>
      <trkpt lat="44.76964" lon="5.4817">
        <ele>1564.2</ele>
        <time>2012-09-09T07:30:47Z</time>
      </trkpt>
      <trkpt lat="44.76933" lon="5.4817">
        <ele>1617.56</ele>
        <time>2012-09-09T07:30:37Z</time>
      </trkpt>
      <trkpt lat="44.7692" lon="5.48162">
        <ele>1623.8</ele>
        <time>2012-09-09T07:30:19Z</time>
      </trkpt>
      <trkpt lat="44.76905" lon="5.48157">
        <ele>1632.94</ele>
        <time>2012-09-09T07:30:02Z</time>
      </trkpt>
      <trkpt lat="44.76887" lon="5.48155">
        <ele>1641.11</ele>
        <time>2012-09-09T07:29:44Z</time>
      </trkpt>
      <trkpt lat="44.76865" lon="5.48158">
        <ele>1650.72</ele>
        <time>2012-09-09T07:29:25Z</time>
      </trkpt>
      <trkpt lat="44.7684" lon="5.48168">
        <ele>1663.7</ele>
        <time>2012-09-09T07:29:03Z</time>
      </trkpt>
      <trkpt lat="44.76817" lon="5.48173">
        <ele>1668.99</ele>
        <time>2012-09-09T07:28:43Z</time>
      </trkpt>
      <trkpt lat="44.76799" lon="5.48168">
        <ele>1669.47</ele>
        <time>2012-09-09T07:28:20Z</time>
      </trkpt>
      <trkpt lat="44.76779" lon="5.48176">
        <ele>1676.2</ele>
        <time>2012-09-09T07:28:01Z</time>
      </trkpt>
      <trkpt lat="44.7677" lon="5.48173">
        <ele>1679.08</ele>
        <time>2012-09-09T07:27:53Z</time>
      </trkpt>
      <trkpt lat="44.76753" lon="5.48174">
        <ele>1689.17</ele>
        <time>2012-09-09T07:27:36Z</time>
      </trkpt>
      <trkpt lat="44.76431" lon="5.48218">
        <ele>2410.64</ele>
        <time>2012-09-09T07:27:17Z</time>
      </trkpt>
      <trkpt lat="44.76414" lon="5.48213">
        <ele>2410.16</ele>
        <time>2012-09-09T07:26:57Z</time>
      </trkpt>
      <trkpt lat="44.76406" lon="5.48216">
        <ele>2410.16</ele>
        <time>2012-09-09T07:26:48Z</time>
      </trkpt>
      <trkpt lat="44.76405" lon="5.48217">
        <ele>2410.16</ele>
        <time>2012-09-09T07:26:47Z</time>
      </trkpt>
      <trkpt lat="44.76389" lon="5.48223">
        <ele>2409.68</ele>
        <time>2012-09-09T07:26:30Z</time>
      </trkpt>
      <trkpt lat="44.76373" lon="5.4822">
        <ele>2409.68</ele>
        <time>2012-09-09T07:26:10Z</time>
      </trkpt>
      <trkpt lat="44.7636" lon="5.48219">
        <ele>2409.68</ele>
        <time>2012-09-09T07:25:53Z</time>
      </trkpt>
      <trkpt lat="44.76347" lon="5.4821">
        <ele>2409.2</ele>
        <time>2012-09-09T07:25:35Z</time>
      </trkpt>
      <trkpt lat="44.76332" lon="5.48208">
        <ele>2409.2</ele>
        <time>2012-09-09T07:25:16Z</time>
      </trkpt>
      <trkpt lat="44.76485" lon="5.4818">
        <ele>2002.56</ele>
        <time>2012-09-09T07:25:01Z</time>
      </trkpt>
      <trkpt lat="44.76478" lon="5.48179">
        <ele>2002.56</ele>
        <time>2012-09-09T07:24:43Z</time>
      </trkpt>
      <trkpt lat="44.76466" lon="5.48175">
        <ele>2002.08</ele>
        <time>2012-09-09T07:24:24Z</time>
      </trkpt>
      <trkpt lat="44.76456" lon="5.4817">
        <ele>2001.6</ele>
        <time>2012-09-09T07:24:09Z</time>
      </trkpt>
      <trkpt lat="44.76446" lon="5.48166">
        <ele>1995.83</ele>
        <time>2012-09-09T07:23:49Z</time>
      </trkpt>
      <trkpt lat="44.76446" lon="5.48153">
        <ele>1962.67</ele>
        <time>2012-09-09T07:23:32Z</time>
      </trkpt>
      <trkpt lat="44.76447" lon="5.48143">
        <ele>1935.75</ele>
        <time>2012-09-09T07:23:13Z</time>
      </trkpt>
      <trkpt lat="44.76449" lon="5.48139">
        <ele>1923.74</ele>
        <time>2012-09-09T07:23:02Z</time>
      </trkpt>
      <trkpt lat="44.76452" lon="5.48136">
        <ele>1900.66</ele>
        <time>2012-09-09T07:22:33Z</time>
      </trkpt>
      <trkpt lat="44.76458" lon="5.48132">
        <ele>1876.63</ele>
        <time>2012-09-09T07:22:09Z</time>
      </trkpt>
      <trkpt lat="44.76462" lon="5.4813">
        <ele>1852.6</ele>
        <time>2012-09-09T07:21:52Z</time>
      </trkpt>
      <trkpt lat="44.76461" lon="5.48124">
        <ele>1822.8</ele>
        <time>2012-09-09T07:21:34Z</time>
      </trkpt>
      <trkpt lat="44.76457" lon="5.48121">
        <ele>1798.28</ele>
        <time>2012-09-09T07:21:18Z</time>
      </trkpt>
      <trkpt lat="44.76454" lon="5.48119">
        <ele>1770.41</ele>
        <time>2012-09-09T07:21:00Z</time>
      </trkpt>
      <trkpt lat="44.76452" lon="5.48112">
        <ele>1741.08</ele>
        <time>2012-09-09T07:20:41Z</time>
      </trkpt>
      <trkpt lat="44.76448" lon="5.48111">
        <ele>1717.05</ele>
        <time>2012-09-09T07:20:22Z</time>
      </trkpt>
      <trkpt lat="44.76452" lon="5.48106">
        <ele>1698.31</ele>
        <time>2012-09-09T07:20:04Z</time>
      </trkpt>
      <trkpt lat="44.7645" lon="5.48099">
        <ele>1685.33</ele>
        <time>2012-09-09T07:19:46Z</time>
      </trkpt>
      <trkpt lat="44.76447" lon="5.48098">
        <ele>1674.27</ele>
        <time>2012-09-09T07:19:29Z</time>
      </trkpt>
      <trkpt lat="44.76448" lon="5.48097">
        <ele>1655.05</ele>
        <time>2012-09-09T07:19:12Z</time>
      </trkpt>
      <trkpt lat="44.76448" lon="5.48098">
        <ele>1637.26</ele>
        <time>2012-09-09T07:18:44Z</time>
      </trkpt>
      <trkpt lat="44.76448" lon="5.48097">
        <ele>1625.25</ele>
        <time>2012-09-09T07:18:28Z</time>
      </trkpt>
      <trkpt lat="44.76447" lon="5.48097">
        <ele>1613.23</ele>
        <time>2012-09-09T07:18:09Z</time>
      </trkpt>
      <trkpt lat="44.7645" lon="5.48096">
        <ele>1598.33</ele>
        <time>2012-09-09T07:17:51Z</time>
      </trkpt>
      <trkpt lat="44.76442" lon="5.48092">
        <ele>1584.87</ele>
        <time>2012-09-09T07:17:30Z</time>
      </trkpt>
      <trkpt lat="44.7644" lon="5.48092">
        <ele>1581.51</ele>
        <time>2012-09-09T07:17:26Z</time>
      </trkpt>
      <trkpt lat="44.76446" lon="5.48093">
        <ele>1552.19</ele>
        <time>2012-09-09T07:16:57Z</time>
      </trkpt>
      <trkpt lat="44.76442" lon="5.48091">
        <ele>1545.46</ele>
        <time>2012-09-09T07:16:39Z</time>
      </trkpt>
      <trkpt lat="44.76448" lon="5.48088">
        <ele>1532.96</ele>
        <time>2012-09-09T07:16:08Z</time>
      </trkpt>
      <trkpt lat="44.76443" lon="5.48084">
        <ele>1532</ele>
        <time>2012-09-09T07:15:50Z</time>
      </trkpt>
      <trkpt lat="44.76434" lon="5.48081">
        <ele>1530.08</ele>
        <time>2012-09-09T07:15:34Z</time>
      </trkpt>
      <trkpt lat="44.76424" lon="5.48081">
        <ele>1529.59</ele>
        <time>2012-09-09T07:15:14Z</time>
      </trkpt>
      <trkpt lat="44.76413" lon="5.48082">
        <ele>1528.15</ele>
        <time>2012-09-09T07:14:55Z</time>
      </trkpt>
      <trkpt lat="44.76402" lon="5.4808">
        <ele>1528.63</ele>
        <time>2012-09-09T07:14:37Z</time>
      </trkpt>
      <trkpt lat="44.76393" lon="5.48079">
        <ele>1528.63</ele>
        <time>2012-09-09T07:14:20Z</time>
      </trkpt>
      <trkpt lat="44.76386" lon="5.48083">
        <ele>1527.67</ele>
        <time>2012-09-09T07:14:03Z</time>
      </trkpt>
      <trkpt lat="44.76384" lon="5.48083">
        <ele>1522.87</ele>
        <time>2012-09-09T07:13:39Z</time>
      </trkpt>
      <trkpt lat="44.76382" lon="5.48079">
        <ele>1523.35</ele>
        <time>2012-09-09T07:13:08Z</time>
      </trkpt>
      <trkpt lat="44.76385" lon="5.48084">
        <ele>1519.5</ele>
        <time>2012-09-09T07:12:42Z</time>
      </trkpt>
      <trkpt lat="44.76387" lon="5.48082">
        <ele>1517.1</ele>
        <time>2012-09-09T07:12:21Z</time>
      </trkpt>
      <trkpt lat="44.76385" lon="5.48081">
        <ele>1519.5</ele>
        <time>2012-09-09T07:11:53Z</time>
      </trkpt>
      <trkpt lat="44.76387" lon="5.48079">
        <ele>1515.66</ele>
        <time>2012-09-09T07:11:26Z</time>
      </trkpt>
      <trkpt lat="44.76371" lon="5.48068">
        <ele>1515.18</ele>
        <time>2012-09-09T07:11:08Z</time>
      </trkpt>
      <trkpt lat="44.76316" lon="5.48023">
        <ele>1514.21</ele>
        <time>2012-09-09T07:10:46Z</time>
      </trkpt>
      <trkpt lat="44.76287" lon="5.4801">
        <ele>1516.14</ele>
        <time>2012-09-09T07:10:25Z</time>
      </trkpt>
      <trkpt lat="44.76261" lon="5.47999">
        <ele>1515.66</ele>
        <time>2012-09-09T07:10:06Z</time>
      </trkpt>
      <trkpt lat="44.76223" lon="5.47968">
        <ele>1519.98</ele>
        <time>2012-09-09T07:09:46Z</time>
      </trkpt>
      <trkpt lat="44.7618" lon="5.47948">
        <ele>1529.11</ele>
        <time>2012-09-09T07:09:25Z</time>
      </trkpt>
      <trkpt lat="44.76161" lon="5.47951">
        <ele>1521.9</ele>
        <time>2012-09-09T07:09:04Z</time>
      </trkpt>
      <trkpt lat="44.76151" lon="5.47946">
        <ele>1520.94</ele>
        <time>2012-09-09T07:09:00Z</time>
      </trkpt>
      <trkpt lat="44.76127" lon="5.4795">
        <ele>1554.11</ele>
        <time>2012-09-09T07:08:42Z</time>
      </trkpt>
      <trkpt lat="44.76113" lon="5.47964">
        <ele>1550.26</ele>
        <time>2012-09-09T07:08:19Z</time>
      </trkpt>
      <trkpt lat="44.76096" lon="5.47985">
        <ele>1556.99</ele>
        <time>2012-09-09T07:07:54Z</time>
      </trkpt>
      <trkpt lat="44.76082" lon="5.48001">
        <ele>1565.64</ele>
        <time>2012-09-09T07:07:35Z</time>
      </trkpt>
      <trkpt lat="44.76069" lon="5.48018">
        <ele>1569.49</ele>
        <time>2012-09-09T07:07:16Z</time>
      </trkpt>
      <trkpt lat="44.76047" lon="5.48026">
        <ele>1575.26</ele>
        <time>2012-09-09T07:06:56Z</time>
      </trkpt>
      <trkpt lat="44.76028" lon="5.48041">
        <ele>1585.35</ele>
        <time>2012-09-09T07:06:36Z</time>
      </trkpt>
      <trkpt lat="44.76018" lon="5.48051">
        <ele>1593.04</ele>
        <time>2012-09-09T07:06:22Z</time>
      </trkpt>
      <trkpt lat="44.75999" lon="5.48051">
        <ele>1603.62</ele>
        <time>2012-09-09T07:06:00Z</time>
      </trkpt>
      <trkpt lat="44.75981" lon="5.48065">
        <ele>1607.94</ele>
        <time>2012-09-09T07:05:36Z</time>
      </trkpt>
      <trkpt lat="44.75972" lon="5.48081">
        <ele>1611.79</ele>
        <time>2012-09-09T07:05:20Z</time>
      </trkpt>
      <trkpt lat="44.75961" lon="5.48095">
        <ele>1620.92</ele>
        <time>2012-09-09T07:05:02Z</time>
      </trkpt>
      <trkpt lat="44.75946" lon="5.48108">
        <ele>1639.67</ele>
        <time>2012-09-09T07:04:42Z</time>
      </trkpt>
      <trkpt lat="44.75921" lon="5.48116">
        <ele>1649.76</ele>
        <time>2012-09-09T07:04:17Z</time>
      </trkpt>
      <trkpt lat="44.75901" lon="5.48113">
        <ele>1651.2</ele>
        <time>2012-09-09T07:04:01Z</time>
      </trkpt>
      <trkpt lat="44.75879" lon="5.48118">
        <ele>1652.16</ele>
        <time>2012-09-09T07:03:40Z</time>
      </trkpt>
      <trkpt lat="44.75852" lon="5.4812">
        <ele>1660.33</ele>
        <time>2012-09-09T07:03:20Z</time>
      </trkpt>
      <trkpt lat="44.75818" lon="5.48116">
        <ele>1652.64</ele>
        <time>2012-09-09T07:02:56Z</time>
      </trkpt>
      <trkpt lat="44.75804" lon="5.48122">
        <ele>1649.76</ele>
        <time>2012-09-09T07:02:42Z</time>
      </trkpt>
      <trkpt lat="44.75782" lon="5.48125">
        <ele>1641.11</ele>
        <time>2012-09-09T07:02:19Z</time>
      </trkpt>
      <trkpt lat="44.75759" lon="5.48128">
        <ele>1615.15</ele>
        <time>2012-09-09T07:01:56Z</time>
      </trkpt>
      <trkpt lat="44.75741" lon="5.48138">
        <ele>1598.33</ele>
        <time>2012-09-09T07:01:38Z</time>
      </trkpt>
      <trkpt lat="44.75734" lon="5.48137">
        <ele>1592.56</ele>
        <time>2012-09-09T07:01:16Z</time>
      </trkpt>
      <trkpt lat="44.75737" lon="5.48132">
        <ele>1591.12</ele>
        <time>2012-09-09T07:01:13Z</time>
      </trkpt>
      <trkpt lat="44.75708" lon="5.48144">
        <ele>1588.24</ele>
        <time>2012-09-09T07:00:46Z</time>
      </trkpt>
      <trkpt lat="44.7568" lon="5.48151">
        <ele>1587.27</ele>
        <time>2012-09-09T07:00:22Z</time>
      </trkpt>
      <trkpt lat="44.75654" lon="5.48146">
        <ele>1588.72</ele>
        <time>2012-09-09T07:00:01Z</time>
      </trkpt>
      <trkpt lat="44.75643" lon="5.48141">
        <ele>1581.99</ele>
        <time>2012-09-09T06:59:30Z</time>
      </trkpt>
      <trkpt lat="44.75657" lon="5.48155">
        <ele>1575.74</ele>
        <time>2012-09-09T06:59:12Z</time>
      </trkpt>
      <trkpt lat="44.75654" lon="5.48153">
        <ele>1574.78</ele>
        <time>2012-09-09T06:58:43Z</time>
      </trkpt>
      <trkpt lat="44.75687" lon="5.48132">
        <ele>1569.97</ele>
        <time>2012-09-09T06:58:23Z</time>
      </trkpt>
      <trkpt lat="44.75715" lon="5.48124">
        <ele>1514.21</ele>
        <time>2012-09-09T06:57:55Z</time>
      </trkpt>
      <trkpt lat="44.75791" lon="5.48137">
        <ele>1468.07</ele>
        <time>2012-09-09T06:57:25Z</time>
      </trkpt>
      <trkpt lat="44.75824" lon="5.48226">
        <ele>1440.67</ele>
        <time>2012-09-09T06:56:51Z</time>
      </trkpt>
      <trkpt lat="44.75848" lon="5.48302">
        <ele>1428.18</ele>
        <time>2012-09-09T06:56:21Z</time>
      </trkpt>
      <trkpt lat="44.75889" lon="5.48364">
        <ele>1416.16</ele>
        <time>2012-09-09T06:55:58Z</time>
      </trkpt>
      <trkpt lat="44.75907" lon="5.48391">
        <ele>1408.47</ele>
        <time>2012-09-09T06:55:49Z</time>
      </trkpt>
      <trkpt lat="44.75941" lon="5.48426">
        <ele>1394.05</ele>
        <time>2012-09-09T06:55:36Z</time>
      </trkpt>
      <trkpt lat="44.76003" lon="5.48471">
        <ele>1368.09</ele>
        <time>2012-09-09T06:55:11Z</time>
      </trkpt>
      <trkpt lat="44.76012" lon="5.48518">
        <ele>1353.19</ele>
        <time>2012-09-09T06:54:52Z</time>
      </trkpt>
      <trkpt lat="44.76001" lon="5.48525">
        <ele>1340.22</ele>
        <time>2012-09-09T06:54:30Z</time>
      </trkpt>
      <trkpt lat="44.75999" lon="5.48525">
        <ele>1335.41</ele>
        <time>2012-09-09T06:54:27Z</time>
      </trkpt>
      <trkpt lat="44.75982" lon="5.48531">
        <ele>1324.83</ele>
        <time>2012-09-09T06:54:04Z</time>
      </trkpt>
      <trkpt lat="44.75971" lon="5.48533">
        <ele>1319.55</ele>
        <time>2012-09-09T06:53:46Z</time>
      </trkpt>
      <trkpt lat="44.7596" lon="5.48535">
        <ele>1317.14</ele>
        <time>2012-09-09T06:53:26Z</time>
      </trkpt>
      <trkpt lat="44.7595" lon="5.48534">
        <ele>1313.78</ele>
        <time>2012-09-09T06:53:08Z</time>
      </trkpt>
      <trkpt lat="44.75943" lon="5.48535">
        <ele>1310.9</ele>
        <time>2012-09-09T06:52:46Z</time>
      </trkpt>
      <trkpt lat="44.75935" lon="5.48538">
        <ele>1307.53</ele>
        <time>2012-09-09T06:52:25Z</time>
      </trkpt>
      <trkpt lat="44.75925" lon="5.48538">
        <ele>1303.69</ele>
        <time>2012-09-09T06:52:03Z</time>
      </trkpt>
      <trkpt lat="44.75916" lon="5.48538">
        <ele>1300.8</ele>
        <time>2012-09-09T06:51:46Z</time>
      </trkpt>
      <trkpt lat="44.75907" lon="5.4854">
        <ele>1298.4</ele>
        <time>2012-09-09T06:51:25Z</time>
      </trkpt>
      <trkpt lat="44.75894" lon="5.48541">
        <ele>1295.99</ele>
        <time>2012-09-09T06:51:05Z</time>
      </trkpt>
      <trkpt lat="44.75885" lon="5.48547">
        <ele>1295.03</ele>
        <time>2012-09-09T06:50:46Z</time>
      </trkpt>
      <trkpt lat="44.75877" lon="5.48557">
        <ele>1294.07</ele>
        <time>2012-09-09T06:50:28Z</time>
      </trkpt>
      <trkpt lat="44.75872" lon="5.48555">
        <ele>1288.78</ele>
        <time>2012-09-09T06:50:06Z</time>
      </trkpt>
      <trkpt lat="44.75866" lon="5.48553">
        <ele>1285.42</ele>
        <time>2012-09-09T06:49:49Z</time>
      </trkpt>
      <trkpt lat="44.75858" lon="5.48557">
        <ele>1283.98</ele>
        <time>2012-09-09T06:49:32Z</time>
      </trkpt>
      <trkpt lat="44.75855" lon="5.48555">
        <ele>1280.61</ele>
        <time>2012-09-09T06:49:15Z</time>
      </trkpt>
      <trkpt lat="44.75853" lon="5.48561">
        <ele>1274.85</ele>
        <time>2012-09-09T06:48:47Z</time>
      </trkpt>
      <trkpt lat="44.75846" lon="5.48563">
        <ele>1274.85</ele>
        <time>2012-09-09T06:48:30Z</time>
      </trkpt>
      <trkpt lat="44.75838" lon="5.48568">
        <ele>1272.44</ele>
        <time>2012-09-09T06:48:12Z</time>
      </trkpt>
      <trkpt lat="44.7583" lon="5.48575">
        <ele>1271.96</ele>
        <time>2012-09-09T06:47:52Z</time>
      </trkpt>
      <trkpt lat="44.75825" lon="5.48582">
        <ele>1269.08</ele>
        <time>2012-09-09T06:47:33Z</time>
      </trkpt>
      <trkpt lat="44.7582" lon="5.48584">
        <ele>1264.27</ele>
        <time>2012-09-09T06:47:06Z</time>
      </trkpt>
      <trkpt lat="44.75821" lon="5.48587">
        <ele>1263.31</ele>
        <time>2012-09-09T06:46:41Z</time>
      </trkpt>
      <trkpt lat="44.75814" lon="5.48592">
        <ele>1260.43</ele>
        <time>2012-09-09T06:46:23Z</time>
      </trkpt>
      <trkpt lat="44.75807" lon="5.48592">
        <ele>1255.14</ele>
        <time>2012-09-09T06:46:04Z</time>
      </trkpt>
      <trkpt lat="44.758" lon="5.48592">
        <ele>1249.85</ele>
        <time>2012-09-09T06:45:33Z</time>
      </trkpt>
      <trkpt lat="44.75795" lon="5.48596">
        <ele>1249.37</ele>
        <time>2012-09-09T06:45:13Z</time>
      </trkpt>
      <trkpt lat="44.75784" lon="5.48599">
        <ele>1247.93</ele>
        <time>2012-09-09T06:44:53Z</time>
      </trkpt>
      <trkpt lat="44.75776" lon="5.48608">
        <ele>1245.04</ele>
        <time>2012-09-09T06:44:37Z</time>
      </trkpt>
      <trkpt lat="44.75768" lon="5.48613">
        <ele>1244.56</ele>
        <time>2012-09-09T06:44:20Z</time>
      </trkpt>
      <trkpt lat="44.75757" lon="5.48617">
        <ele>1246.49</ele>
        <time>2012-09-09T06:44:00Z</time>
      </trkpt>
      <trkpt lat="44.75749" lon="5.48614">
        <ele>1243.6</ele>
        <time>2012-09-09T06:43:43Z</time>
      </trkpt>
      <trkpt lat="44.75744" lon="5.48601">
        <ele>1239.76</ele>
        <time>2012-09-09T06:43:24Z</time>
      </trkpt>
      <trkpt lat="44.75738" lon="5.48605">
        <ele>1237.35</ele>
        <time>2012-09-09T06:43:00Z</time>
      </trkpt>
      <trkpt lat="44.75733" lon="5.48612">
        <ele>1235.91</ele>
        <time>2012-09-09T06:42:40Z</time>
      </trkpt>
      <trkpt lat="44.75728" lon="5.48625">
        <ele>1231.59</ele>
        <time>2012-09-09T06:42:19Z</time>
      </trkpt>
      <trkpt lat="44.75724" lon="5.48634">
        <ele>1229.66</ele>
        <time>2012-09-09T06:42:01Z</time>
      </trkpt>
      <trkpt lat="44.75718" lon="5.48645">
        <ele>1225.82</ele>
        <time>2012-09-09T06:41:42Z</time>
      </trkpt>
      <trkpt lat="44.75714" lon="5.48654">
        <ele>1223.9</ele>
        <time>2012-09-09T06:41:22Z</time>
      </trkpt>
      <trkpt lat="44.75711" lon="5.48661">
        <ele>1221.97</ele>
        <time>2012-09-09T06:40:58Z</time>
      </trkpt>
      <trkpt lat="44.75707" lon="5.48666">
        <ele>1220.05</ele>
        <time>2012-09-09T06:40:39Z</time>
      </trkpt>
      <trkpt lat="44.75703" lon="5.48666">
        <ele>1217.17</ele>
        <time>2012-09-09T06:40:21Z</time>
      </trkpt>
      <trkpt lat="44.75699" lon="5.48668">
        <ele>1215.72</ele>
        <time>2012-09-09T06:40:04Z</time>
      </trkpt>
      <trkpt lat="44.75691" lon="5.48675">
        <ele>1215.72</ele>
        <time>2012-09-09T06:39:45Z</time>
      </trkpt>
      <trkpt lat="44.75686" lon="5.48683">
        <ele>1211.88</ele>
        <time>2012-09-09T06:39:27Z</time>
      </trkpt>
      <trkpt lat="44.75681" lon="5.48691">
        <ele>1207.07</ele>
        <time>2012-09-09T06:39:04Z</time>
      </trkpt>
      <trkpt lat="44.75677" lon="5.48694">
        <ele>1201.3</ele>
        <time>2012-09-09T06:38:45Z</time>
      </trkpt>
      <trkpt lat="44.75672" lon="5.48699">
        <ele>1199.38</ele>
        <time>2012-09-09T06:38:28Z</time>
      </trkpt>
      <trkpt lat="44.75666" lon="5.48702">
        <ele>1195.06</ele>
        <time>2012-09-09T06:38:06Z</time>
      </trkpt>
      <trkpt lat="44.75662" lon="5.48709">
        <ele>1190.25</ele>
        <time>2012-09-09T06:37:49Z</time>
      </trkpt>
      <trkpt lat="44.75656" lon="5.48713">
        <ele>1190.73</ele>
        <time>2012-09-09T06:37:32Z</time>
      </trkpt>
      <trkpt lat="44.75649" lon="5.48722">
        <ele>1190.73</ele>
        <time>2012-09-09T06:37:13Z</time>
      </trkpt>
      <trkpt lat="44.75643" lon="5.48729">
        <ele>1192.65</ele>
        <time>2012-09-09T06:36:56Z</time>
      </trkpt>
      <trkpt lat="44.75636" lon="5.48736">
        <ele>1190.73</ele>
        <time>2012-09-09T06:36:35Z</time>
      </trkpt>
      <trkpt lat="44.75628" lon="5.48744">
        <ele>1187.85</ele>
        <time>2012-09-09T06:36:14Z</time>
      </trkpt>
      <trkpt lat="44.75623" lon="5.4875">
        <ele>1184.96</ele>
        <time>2012-09-09T06:35:55Z</time>
      </trkpt>
      <trkpt lat="44.75616" lon="5.4876">
        <ele>1181.6</ele>
        <time>2012-09-09T06:35:32Z</time>
      </trkpt>
      <trkpt lat="44.7561" lon="5.48768">
        <ele>1181.12</ele>
        <time>2012-09-09T06:35:13Z</time>
      </trkpt>
      <trkpt lat="44.75603" lon="5.48778">
        <ele>1176.79</ele>
        <time>2012-09-09T06:34:53Z</time>
      </trkpt>
      <trkpt lat="44.75597" lon="5.48787">
        <ele>1173.91</ele>
        <time>2012-09-09T06:34:35Z</time>
      </trkpt>
      <trkpt lat="44.75592" lon="5.48801">
        <ele>1169.1</ele>
        <time>2012-09-09T06:34:14Z</time>
      </trkpt>
      <trkpt lat="44.75585" lon="5.48816">
        <ele>1165.26</ele>
        <time>2012-09-09T06:33:53Z</time>
      </trkpt>
      <trkpt lat="44.75577" lon="5.48826">
        <ele>1163.81</ele>
        <time>2012-09-09T06:33:34Z</time>
      </trkpt>
      <trkpt lat="44.7557" lon="5.48839">
        <ele>1160.93</ele>
        <time>2012-09-09T06:33:13Z</time>
      </trkpt>
      <trkpt lat="44.75565" lon="5.4885">
        <ele>1158.53</ele>
        <time>2012-09-09T06:32:54Z</time>
      </trkpt>
      <trkpt lat="44.7556" lon="5.48855">
        <ele>1156.12</ele>
        <time>2012-09-09T06:32:36Z</time>
      </trkpt>
      <trkpt lat="44.75554" lon="5.48865">
        <ele>1152.28</ele>
        <time>2012-09-09T06:32:15Z</time>
      </trkpt>
      <trkpt lat="44.75548" lon="5.48874">
        <ele>1148.91</ele>
        <time>2012-09-09T06:31:56Z</time>
      </trkpt>
      <trkpt lat="44.75543" lon="5.48882">
        <ele>1145.07</ele>
        <time>2012-09-09T06:31:39Z</time>
      </trkpt>
      <trkpt lat="44.75534" lon="5.4889">
        <ele>1141.7</ele>
        <time>2012-09-09T06:31:18Z</time>
      </trkpt>
      <trkpt lat="44.75524" lon="5.48899">
        <ele>1139.78</ele>
        <time>2012-09-09T06:30:59Z</time>
      </trkpt>
      <trkpt lat="44.75515" lon="5.48913">
        <ele>1139.78</ele>
        <time>2012-09-09T06:30:43Z</time>
      </trkpt>
      <trkpt lat="44.75511" lon="5.4893">
        <ele>1139.78</ele>
        <time>2012-09-09T06:30:28Z</time>
      </trkpt>
      <trkpt lat="44.75513" lon="5.48929">
        <ele>1136.9</ele>
        <time>2012-09-09T06:30:10Z</time>
      </trkpt>
      <trkpt lat="44.75513" lon="5.4894">
        <ele>1134.01</ele>
        <time>2012-09-09T06:29:35Z</time>
      </trkpt>
      <trkpt lat="44.7551" lon="5.4895">
        <ele>1133.05</ele>
        <time>2012-09-09T06:29:16Z</time>
      </trkpt>
      <trkpt lat="44.75505" lon="5.48965">
        <ele>1131.13</ele>
        <time>2012-09-09T06:28:57Z</time>
      </trkpt>
      <trkpt lat="44.75502" lon="5.48973">
        <ele>1128.73</ele>
        <time>2012-09-09T06:28:38Z</time>
      </trkpt>
      <trkpt lat="44.75498" lon="5.48982">
        <ele>1124.4</ele>
        <time>2012-09-09T06:28:18Z</time>
      </trkpt>
      <trkpt lat="44.75494" lon="5.48994">
        <ele>1123.44</ele>
        <time>2012-09-09T06:28:00Z</time>
      </trkpt>
      <trkpt lat="44.75491" lon="5.4902">
        <ele>1122.48</ele>
        <time>2012-09-09T06:27:40Z</time>
      </trkpt>
      <trkpt lat="44.75484" lon="5.49013">
        <ele>1121.03</ele>
        <time>2012-09-09T06:27:19Z</time>
      </trkpt>
      <trkpt lat="44.75482" lon="5.49024">
        <ele>1119.59</ele>
        <time>2012-09-09T06:27:01Z</time>
      </trkpt>
      <trkpt lat="44.75476" lon="5.4904">
        <ele>1118.15</ele>
        <time>2012-09-09T06:26:40Z</time>
      </trkpt>
      <trkpt lat="44.7547" lon="5.49053">
        <ele>1116.71</ele>
        <time>2012-09-09T06:26:22Z</time>
      </trkpt>
      <trkpt lat="44.75464" lon="5.49057">
        <ele>1115.75</ele>
        <time>2012-09-09T06:25:58Z</time>
      </trkpt>
      <trkpt lat="44.75457" lon="5.49059">
        <ele>1110.94</ele>
        <time>2012-09-09T06:25:34Z</time>
      </trkpt>
      <trkpt lat="44.75456" lon="5.49067">
        <ele>1106.13</ele>
        <time>2012-09-09T06:25:15Z</time>
      </trkpt>
      <trkpt lat="44.75452" lon="5.49071">
        <ele>1104.69</ele>
        <time>2012-09-09T06:24:58Z</time>
      </trkpt>
      <trkpt lat="44.75445" lon="5.49078">
        <ele>1102.77</ele>
        <time>2012-09-09T06:24:39Z</time>
      </trkpt>
      <trkpt lat="44.75438" lon="5.49087">
        <ele>1098.92</ele>
        <time>2012-09-09T06:24:20Z</time>
      </trkpt>
      <trkpt lat="44.75431" lon="5.49077">
        <ele>1092.68</ele>
        <time>2012-09-09T06:23:58Z</time>
      </trkpt>
      <trkpt lat="44.75429" lon="5.4907">
        <ele>1088.83</ele>
        <time>2012-09-09T06:23:39Z</time>
      </trkpt>
      <trkpt lat="44.75424" lon="5.49069">
        <ele>1084.02</ele>
        <time>2012-09-09T06:23:19Z</time>
      </trkpt>
      <trkpt lat="44.75417" lon="5.49071">
        <ele>1081.62</ele>
        <time>2012-09-09T06:23:04Z</time>
      </trkpt>
      <trkpt lat="44.75412" lon="5.49069">
        <ele>1080.66</ele>
        <time>2012-09-09T06:22:48Z</time>
      </trkpt>
      <trkpt lat="44.75411" lon="5.49058">
        <ele>1081.14</ele>
        <time>2012-09-09T06:22:32Z</time>
      </trkpt>
      <trkpt lat="44.75408" lon="5.49048">
        <ele>1080.18</ele>
        <time>2012-09-09T06:22:13Z</time>
      </trkpt>
      <trkpt lat="44.754" lon="5.49053">
        <ele>1077.29</ele>
        <time>2012-09-09T06:21:54Z</time>
      </trkpt>
      <trkpt lat="44.75399" lon="5.4905">
        <ele>1072.01</ele>
        <time>2012-09-09T06:21:25Z</time>
      </trkpt>
      <trkpt lat="44.75393" lon="5.49061">
        <ele>1067.68</ele>
        <time>2012-09-09T06:21:05Z</time>
      </trkpt>
      <trkpt lat="44.7539" lon="5.49065">
        <ele>1065.76</ele>
        <time>2012-09-09T06:20:54Z</time>
      </trkpt>
      <trkpt lat="44.75386" lon="5.49076">
        <ele>1063.84</ele>
        <time>2012-09-09T06:20:34Z</time>
      </trkpt>
      <trkpt lat="44.75383" lon="5.49086">
        <ele>1061.91</ele>
        <time>2012-09-09T06:20:16Z</time>
      </trkpt>
      <trkpt lat="44.7538" lon="5.49102">
        <ele>1059.51</ele>
        <time>2012-09-09T06:19:55Z</time>
      </trkpt>
      <trkpt lat="44.75376" lon="5.49111">
        <ele>1058.07</ele>
        <time>2012-09-09T06:19:40Z</time>
      </trkpt>
      <trkpt lat="44.75376" lon="5.49129">
        <ele>1055.67</ele>
        <time>2012-09-09T06:19:17Z</time>
      </trkpt>
      <trkpt lat="44.75379" lon="5.4914">
        <ele>1055.18</ele>
        <time>2012-09-09T06:18:59Z</time>
      </trkpt>
      <trkpt lat="44.75379" lon="5.49141">
        <ele>1055.18</ele>
        <time>2012-09-09T06:18:58Z</time>
      </trkpt>
      <trkpt lat="44.75382" lon="5.49153">
        <ele>1053.26</ele>
        <time>2012-09-09T06:18:39Z</time>
      </trkpt>
      <trkpt lat="44.75385" lon="5.49164">
        <ele>1051.82</ele>
        <time>2012-09-09T06:18:22Z</time>
      </trkpt>
      <trkpt lat="44.75385" lon="5.49179">
        <ele>1050.38</ele>
        <time>2012-09-09T06:18:02Z</time>
      </trkpt>
      <trkpt lat="44.75387" lon="5.49191">
        <ele>1047.97</ele>
        <time>2012-09-09T06:17:40Z</time>
      </trkpt>
      <trkpt lat="44.75382" lon="5.49202">
        <ele>1045.09</ele>
        <time>2012-09-09T06:17:19Z</time>
      </trkpt>
      <trkpt lat="44.75373" lon="5.49197">
        <ele>1041.73</ele>
        <time>2012-09-09T06:16:57Z</time>
      </trkpt>
      <trkpt lat="44.75365" lon="5.492">
        <ele>1039.8</ele>
        <time>2012-09-09T06:16:38Z</time>
      </trkpt>
      <trkpt lat="44.75359" lon="5.49203">
        <ele>1038.36</ele>
        <time>2012-09-09T06:16:15Z</time>
      </trkpt>
      <trkpt lat="44.75349" lon="5.49206">
        <ele>1036.92</ele>
        <time>2012-09-09T06:15:53Z</time>
      </trkpt>
      <trkpt lat="44.75344" lon="5.49211">
        <ele>1035</ele>
        <time>2012-09-09T06:15:32Z</time>
      </trkpt>
      <trkpt lat="44.75333" lon="5.49216">
        <ele>1031.63</ele>
        <time>2012-09-09T06:15:11Z</time>
      </trkpt>
      <trkpt lat="44.75322" lon="5.49221">
        <ele>1029.23</ele>
        <time>2012-09-09T06:14:50Z</time>
      </trkpt>
      <trkpt lat="44.75314" lon="5.49234">
        <ele>1023.46</ele>
        <time>2012-09-09T06:14:28Z</time>
      </trkpt>
      <trkpt lat="44.75304" lon="5.4924">
        <ele>1019.62</ele>
        <time>2012-09-09T06:14:03Z</time>
      </trkpt>
      <trkpt lat="44.75296" lon="5.49249">
        <ele>1016.73</ele>
        <time>2012-09-09T06:13:43Z</time>
      </trkpt>
      <trkpt lat="44.75291" lon="5.49251">
        <ele>1014.33</ele>
        <time>2012-09-09T06:13:20Z</time>
      </trkpt>
      <trkpt lat="44.75282" lon="5.49258">
        <ele>1012.41</ele>
        <time>2012-09-09T06:13:03Z</time>
      </trkpt>
      <trkpt lat="44.75274" lon="5.4926">
        <ele>1008.56</ele>
        <time>2012-09-09T06:12:42Z</time>
      </trkpt>
      <trkpt lat="44.75266" lon="5.49269">
        <ele>1003.27</ele>
        <time>2012-09-09T06:12:23Z</time>
      </trkpt>
      <trkpt lat="44.75257" lon="5.4928">
        <ele>998.47</ele>
        <time>2012-09-09T06:12:01Z</time>
      </trkpt>
      <trkpt lat="44.75253" lon="5.49286">
        <ele>996.06</ele>
        <time>2012-09-09T06:11:44Z</time>
      </trkpt>
      <trkpt lat="44.7525" lon="5.49288">
        <ele>997.99</ele>
        <time>2012-09-09T06:11:21Z</time>
      </trkpt>
      <trkpt lat="44.75252" lon="5.49286">
        <ele>996.06</ele>
        <time>2012-09-09T06:11:01Z</time>
      </trkpt>
      <trkpt lat="44.75249" lon="5.49286">
        <ele>996.06</ele>
        <time>2012-09-09T06:10:40Z</time>
      </trkpt>
      <trkpt lat="44.75251" lon="5.49287">
        <ele>997.02</ele>
        <time>2012-09-09T06:10:13Z</time>
      </trkpt>
      <trkpt lat="44.75249" lon="5.49287">
        <ele>996.54</ele>
        <time>2012-09-09T06:09:51Z</time>
      </trkpt>
      <trkpt lat="44.7525" lon="5.49284">
        <ele>994.62</ele>
        <time>2012-09-09T06:09:24Z</time>
      </trkpt>
      <trkpt lat="44.75248" lon="5.49287">
        <ele>994.62</ele>
        <time>2012-09-09T06:08:59Z</time>
      </trkpt>
      <trkpt lat="44.75241" lon="5.49299">
        <ele>993.66</ele>
        <time>2012-09-09T06:08:39Z</time>
      </trkpt>
      <trkpt lat="44.75233" lon="5.49306">
        <ele>992.7</ele>
        <time>2012-09-09T06:08:18Z</time>
      </trkpt>
      <trkpt lat="44.75227" lon="5.49314">
        <ele>993.18</ele>
        <time>2012-09-09T06:08:00Z</time>
      </trkpt>
      <trkpt lat="44.75218" lon="5.49313">
        <ele>992.22</ele>
        <time>2012-09-09T06:07:41Z</time>
      </trkpt>
      <trkpt lat="44.75218" lon="5.49325">
        <ele>992.22</ele>
        <time>2012-09-09T06:07:24Z</time>
      </trkpt>
      <trkpt lat="44.75226" lon="5.49338">
        <ele>988.85</ele>
        <time>2012-09-09T06:07:04Z</time>
      </trkpt>
      <trkpt lat="44.75225" lon="5.49347">
        <ele>984.53</ele>
        <time>2012-09-09T06:06:47Z</time>
      </trkpt>
      <trkpt lat="44.75224" lon="5.49362">
        <ele>980.68</ele>
        <time>2012-09-09T06:06:26Z</time>
      </trkpt>
      <trkpt lat="44.75222" lon="5.49372">
        <ele>977.8</ele>
        <time>2012-09-09T06:06:11Z</time>
      </trkpt>
      <trkpt lat="44.7521" lon="5.4937">
        <ele>970.59</ele>
        <time>2012-09-09T06:05:48Z</time>
      </trkpt>
      <trkpt lat="44.75201" lon="5.4937">
        <ele>966.74</ele>
        <time>2012-09-09T06:05:29Z</time>
      </trkpt>
      <trkpt lat="44.75194" lon="5.49368">
        <ele>965.3</ele>
        <time>2012-09-09T06:05:09Z</time>
      </trkpt>
      <trkpt lat="44.75184" lon="5.49366">
        <ele>962.9</ele>
        <time>2012-09-09T06:04:49Z</time>
      </trkpt>
      <trkpt lat="44.7518" lon="5.49365">
        <ele>957.61</ele>
        <time>2012-09-09T06:04:30Z</time>
      </trkpt>
      <trkpt lat="44.75174" lon="5.49363">
        <ele>956.17</ele>
        <time>2012-09-09T06:04:12Z</time>
      </trkpt>
      <trkpt lat="44.75167" lon="5.49363">
        <ele>954.25</ele>
        <time>2012-09-09T06:03:55Z</time>
      </trkpt>
      <trkpt lat="44.75162" lon="5.49363">
        <ele>952.32</ele>
        <time>2012-09-09T06:03:39Z</time>
      </trkpt>
      <trkpt lat="44.75153" lon="5.49361">
        <ele>948.96</ele>
        <time>2012-09-09T06:03:19Z</time>
      </trkpt>
      <trkpt lat="44.75142" lon="5.49363">
        <ele>945.59</ele>
        <time>2012-09-09T06:03:01Z</time>
      </trkpt>
      <trkpt lat="44.75134" lon="5.49364">
        <ele>940.79</ele>
        <time>2012-09-09T06:02:40Z</time>
      </trkpt>
      <trkpt lat="44.75125" lon="5.49371">
        <ele>939.35</ele>
        <time>2012-09-09T06:02:18Z</time>
      </trkpt>
      <trkpt lat="44.75116" lon="5.49377">
        <ele>936.46</ele>
        <time>2012-09-09T06:01:58Z</time>
      </trkpt>
      <trkpt lat="44.75109" lon="5.49384">
        <ele>933.1</ele>
        <time>2012-09-09T06:01:40Z</time>
      </trkpt>
      <trkpt lat="44.75102" lon="5.49397">
        <ele>932.62</ele>
        <time>2012-09-09T06:01:20Z</time>
      </trkpt>
      <trkpt lat="44.75091" lon="5.49407">
        <ele>930.21</ele>
        <time>2012-09-09T06:01:00Z</time>
      </trkpt>
      <trkpt lat="44.75083" lon="5.49412">
        <ele>927.81</ele>
        <time>2012-09-09T06:00:46Z</time>
      </trkpt>
      <trkpt lat="44.75076" lon="5.49425">
        <ele>923.96</ele>
        <time>2012-09-09T06:00:26Z</time>
      </trkpt>
      <trkpt lat="44.75066" lon="5.49432">
        <ele>920.6</ele>
        <time>2012-09-09T06:00:05Z</time>
      </trkpt>
      <trkpt lat="44.75056" lon="5.49438">
        <ele>918.68</ele>
        <time>2012-09-09T05:59:46Z</time>
      </trkpt>
      <trkpt lat="44.75046" lon="5.49445">
        <ele>915.31</ele>
        <time>2012-09-09T05:59:25Z</time>
      </trkpt>
      <trkpt lat="44.75036" lon="5.49449">
        <ele>913.39</ele>
        <time>2012-09-09T05:59:05Z</time>
      </trkpt>
      <trkpt lat="44.75025" lon="5.49454">
        <ele>910.99</ele>
        <time>2012-09-09T05:58:45Z</time>
      </trkpt>
      <trkpt lat="44.75016" lon="5.49462">
        <ele>906.18</ele>
        <time>2012-09-09T05:58:22Z</time>
      </trkpt>
      <trkpt lat="44.75007" lon="5.49471">
        <ele>903.3</ele>
        <time>2012-09-09T05:58:03Z</time>
      </trkpt>
      <trkpt lat="44.74997" lon="5.4948">
        <ele>899.45</ele>
        <time>2012-09-09T05:57:44Z</time>
      </trkpt>
      <trkpt lat="44.7499" lon="5.49488">
        <ele>896.09</ele>
        <time>2012-09-09T05:57:26Z</time>
      </trkpt>
      <trkpt lat="44.74981" lon="5.49498">
        <ele>892.72</ele>
        <time>2012-09-09T05:57:06Z</time>
      </trkpt>
      <trkpt lat="44.74971" lon="5.49506">
        <ele>890.32</ele>
        <time>2012-09-09T05:56:47Z</time>
      </trkpt>
      <trkpt lat="44.74962" lon="5.49516">
        <ele>889.36</ele>
        <time>2012-09-09T05:56:27Z</time>
      </trkpt>
      <trkpt lat="44.74953" lon="5.49528">
        <ele>886.95</ele>
        <time>2012-09-09T05:56:07Z</time>
      </trkpt>
      <trkpt lat="44.74944" lon="5.4954">
        <ele>885.51</ele>
        <time>2012-09-09T05:55:49Z</time>
      </trkpt>
      <trkpt lat="44.74934" lon="5.49549">
        <ele>883.11</ele>
        <time>2012-09-09T05:55:30Z</time>
      </trkpt>
      <trkpt lat="44.74927" lon="5.49551">
        <ele>880.71</ele>
        <time>2012-09-09T05:55:13Z</time>
      </trkpt>
      <trkpt lat="44.74928" lon="5.49565">
        <ele>878.3</ele>
        <time>2012-09-09T05:54:56Z</time>
      </trkpt>
      <trkpt lat="44.74928" lon="5.49587">
        <ele>876.38</ele>
        <time>2012-09-09T05:54:34Z</time>
      </trkpt>
      <trkpt lat="44.74924" lon="5.49602">
        <ele>872.05</ele>
        <time>2012-09-09T05:54:17Z</time>
      </trkpt>
      <trkpt lat="44.74919" lon="5.49615">
        <ele>867.73</ele>
        <time>2012-09-09T05:54:00Z</time>
      </trkpt>
      <trkpt lat="44.74912" lon="5.49629">
        <ele>867.25</ele>
        <time>2012-09-09T05:53:43Z</time>
      </trkpt>
      <trkpt lat="44.74911" lon="5.49646">
        <ele>865.8</ele>
        <time>2012-09-09T05:53:26Z</time>
      </trkpt>
      <trkpt lat="44.74907" lon="5.49657">
        <ele>862.92</ele>
        <time>2012-09-09T05:53:12Z</time>
      </trkpt>
      <trkpt lat="44.74897" lon="5.49671">
        <ele>860.04</ele>
        <time>2012-09-09T05:52:53Z</time>
      </trkpt>
      <trkpt lat="44.74888" lon="5.49676">
        <ele>858.11</ele>
        <time>2012-09-09T05:52:42Z</time>
      </trkpt>
      <trkpt lat="44.74882" lon="5.49681">
        <ele>857.15</ele>
        <time>2012-09-09T05:52:34Z</time>
      </trkpt>
      <trkpt lat="44.74877" lon="5.49685">
        <ele>856.67</ele>
        <time>2012-09-09T05:52:27Z</time>
      </trkpt>
      <trkpt lat="44.74866" lon="5.49692">
        <ele>853.79</ele>
        <time>2012-09-09T05:52:10Z</time>
      </trkpt>
      <trkpt lat="44.74856" lon="5.49701">
        <ele>852.83</ele>
        <time>2012-09-09T05:51:51Z</time>
      </trkpt>
      <trkpt lat="44.74844" lon="5.49712">
        <ele>851.38</ele>
        <time>2012-09-09T05:51:33Z</time>
      </trkpt>
      <trkpt lat="44.74832" lon="5.49731">
        <ele>848.98</ele>
        <time>2012-09-09T05:51:12Z</time>
      </trkpt>
      <trkpt lat="44.74829" lon="5.49755">
        <ele>847.54</ele>
        <time>2012-09-09T05:50:55Z</time>
      </trkpt>
      <trkpt lat="44.74824" lon="5.49764">
        <ele>846.1</ele>
        <time>2012-09-09T05:50:47Z</time>
      </trkpt>
      <trkpt lat="44.74808" lon="5.49781">
        <ele>844.18</ele>
        <time>2012-09-09T05:50:26Z</time>
      </trkpt>
      <trkpt lat="44.74797" lon="5.49794">
        <ele>841.77</ele>
        <time>2012-09-09T05:50:07Z</time>
      </trkpt>
      <trkpt lat="44.74786" lon="5.49807">
        <ele>839.85</ele>
        <time>2012-09-09T05:49:47Z</time>
      </trkpt>
      <trkpt lat="44.74781" lon="5.49824">
        <ele>837.45</ele>
        <time>2012-09-09T05:49:29Z</time>
      </trkpt>
      <trkpt lat="44.74779" lon="5.49839">
        <ele>835.04</ele>
        <time>2012-09-09T05:49:12Z</time>
      </trkpt>
      <trkpt lat="44.74778" lon="5.49852">
        <ele>830.72</ele>
        <time>2012-09-09T05:48:53Z</time>
      </trkpt>
      <trkpt lat="44.74775" lon="5.49866">
        <ele>827.35</ele>
        <time>2012-09-09T05:48:35Z</time>
      </trkpt>
      <trkpt lat="44.74772" lon="5.49889">
        <ele>824.95</ele>
        <time>2012-09-09T05:48:16Z</time>
      </trkpt>
      <trkpt lat="44.74769" lon="5.499">
        <ele>823.51</ele>
        <time>2012-09-09T05:48:08Z</time>
      </trkpt>
      <trkpt lat="44.74763" lon="5.49926">
        <ele>815.82</ele>
        <time>2012-09-09T05:47:47Z</time>
      </trkpt>
      <trkpt lat="44.7476" lon="5.49959">
        <ele>811.97</ele>
        <time>2012-09-09T05:47:24Z</time>
      </trkpt>
      <trkpt lat="44.74759" lon="5.49994">
        <ele>805.72</ele>
        <time>2012-09-09T05:47:01Z</time>
      </trkpt>
      <trkpt lat="44.7476" lon="5.50009">
        <ele>805.24</ele>
        <time>2012-09-09T05:46:51Z</time>
      </trkpt>
      <trkpt lat="44.74757" lon="5.5002">
        <ele>804.76</ele>
        <time>2012-09-09T05:46:29Z</time>
      </trkpt>
      <trkpt lat="44.7476" lon="5.50023">
        <ele>801.88</ele>
        <time>2012-09-09T05:45:56Z</time>
      </trkpt>
      <trkpt lat="44.74758" lon="5.50028">
        <ele>801.4</ele>
        <time>2012-09-09T05:45:35Z</time>
      </trkpt>
      <trkpt lat="44.74754" lon="5.50038">
        <ele>800.44</ele>
        <time>2012-09-09T05:45:25Z</time>
      </trkpt>
      <trkpt lat="44.74755" lon="5.50046">
        <ele>799.95</ele>
        <time>2012-09-09T05:45:18Z</time>
      </trkpt>
      <trkpt lat="44.74753" lon="5.50051">
        <ele>799.95</ele>
        <time>2012-09-09T05:45:13Z</time>
      </trkpt>
      <trkpt lat="44.74752" lon="5.50061">
        <ele>799.47</ele>
        <time>2012-09-09T05:45:04Z</time>
      </trkpt>
      <trkpt lat="44.7475" lon="5.50063">
        <ele>799.95</ele>
        <time>2012-09-09T05:45:00Z</time>
      </trkpt>
      <trkpt lat="44.74749" lon="5.50066">
        <ele>799.47</ele>
        <time>2012-09-09T05:44:57Z</time>
      </trkpt>
      <trkpt lat="44.74742" lon="5.5009">
        <ele>797.07</ele>
        <time>2012-09-09T05:44:36Z</time>
      </trkpt>
      <trkpt lat="44.74739" lon="5.50111">
        <ele>799.47</ele>
        <time>2012-09-09T05:44:21Z</time>
      </trkpt>
      <trkpt lat="44.74741" lon="5.50123">
        <ele>799.95</ele>
        <time>2012-09-09T05:44:14Z</time>
      </trkpt>
      <trkpt lat="44.74741" lon="5.50144">
        <ele>796.11</ele>
        <time>2012-09-09T05:43:56Z</time>
      </trkpt>
      <trkpt lat="44.74724" lon="5.50162">
        <ele>792.26</ele>
        <time>2012-09-09T05:43:34Z</time>
      </trkpt>
      <trkpt lat="44.74724" lon="5.50175">
        <ele>791.78</ele>
        <time>2012-09-09T05:43:24Z</time>
      </trkpt>
      <trkpt lat="44.74721" lon="5.50187">
        <ele>791.78</ele>
        <time>2012-09-09T05:43:16Z</time>
      </trkpt>
      <trkpt lat="44.74718" lon="5.50206">
        <ele>791.3</ele>
        <time>2012-09-09T05:43:03Z</time>
      </trkpt>
      <trkpt lat="44.74718" lon="5.50212">
        <ele>790.82</ele>
        <time>2012-09-09T05:42:59Z</time>
      </trkpt>
      <trkpt lat="44.74717" lon="5.5023">
        <ele>790.34</ele>
        <time>2012-09-09T05:42:48Z</time>
      </trkpt>
      <trkpt lat="44.74717" lon="5.5024">
        <ele>790.82</ele>
        <time>2012-09-09T05:42:42Z</time>
      </trkpt>
      <trkpt lat="44.74714" lon="5.5025">
        <ele>791.78</ele>
        <time>2012-09-09T05:42:22Z</time>
      </trkpt>
      <trkpt lat="44.74709" lon="5.50271">
        <ele>791.3</ele>
        <time>2012-09-09T05:42:04Z</time>
      </trkpt>
      <trkpt lat="44.74699" lon="5.50294">
        <ele>789.86</ele>
        <time>2012-09-09T05:41:46Z</time>
      </trkpt>
      <trkpt lat="44.74682" lon="5.50322">
        <ele>788.42</ele>
        <time>2012-09-09T05:41:22Z</time>
      </trkpt>
      <trkpt lat="44.74672" lon="5.50335">
        <ele>787.46</ele>
        <time>2012-09-09T05:41:11Z</time>
      </trkpt>
      <trkpt lat="44.7467" lon="5.5034">
        <ele>786.98</ele>
        <time>2012-09-09T05:41:06Z</time>
      </trkpt>
      <trkpt lat="44.74663" lon="5.50358">
        <ele>782.65</ele>
        <time>2012-09-09T05:40:49Z</time>
      </trkpt>
      <trkpt lat="44.74659" lon="5.50374">
        <ele>782.65</ele>
        <time>2012-09-09T05:40:37Z</time>
      </trkpt>
      <trkpt lat="44.74648" lon="5.50399">
        <ele>782.65</ele>
        <time>2012-09-09T05:40:16Z</time>
      </trkpt>
      <trkpt lat="44.74645" lon="5.50407">
        <ele>783.61</ele>
        <time>2012-09-09T05:40:07Z</time>
      </trkpt>
      <trkpt lat="44.74641" lon="5.5042">
        <ele>783.13</ele>
        <time>2012-09-09T05:39:49Z</time>
      </trkpt>
      <trkpt lat="44.74621" lon="5.50427">
        <ele>782.17</ele>
        <time>2012-09-09T05:39:25Z</time>
      </trkpt>
      <trkpt lat="44.74618" lon="5.50461">
        <ele>781.69</ele>
        <time>2012-09-09T05:39:03Z</time>
      </trkpt>
      <trkpt lat="44.74618" lon="5.50462">
        <ele>781.21</ele>
        <time>2012-09-09T05:39:02Z</time>
      </trkpt>
      <trkpt lat="44.74621" lon="5.50499">
        <ele>778.32</ele>
        <time>2012-09-09T05:38:38Z</time>
      </trkpt>
      <trkpt lat="44.74646" lon="5.5051">
        <ele>774.96</ele>
        <time>2012-09-09T05:38:16Z</time>
      </trkpt>
      <trkpt lat="44.74646" lon="5.50519">
        <ele>774</ele>
        <time>2012-09-09T05:38:09Z</time>
      </trkpt>
      <trkpt lat="44.74644" lon="5.50532">
        <ele>773.04</ele>
        <time>2012-09-09T05:38:01Z</time>
      </trkpt>
      <trkpt lat="44.74645" lon="5.50552">
        <ele>773.04</ele>
        <time>2012-09-09T05:37:50Z</time>
      </trkpt>
      <trkpt lat="44.7464" lon="5.50578">
        <ele>771.6</ele>
        <time>2012-09-09T05:37:32Z</time>
      </trkpt>
      <trkpt lat="44.74644" lon="5.50594">
        <ele>771.6</ele>
        <time>2012-09-09T05:37:23Z</time>
      </trkpt>
      <trkpt lat="44.74641" lon="5.50609">
        <ele>769.19</ele>
        <time>2012-09-09T05:37:08Z</time>
      </trkpt>
      <trkpt lat="44.74649" lon="5.50627">
        <ele>769.19</ele>
        <time>2012-09-09T05:36:58Z</time>
      </trkpt>
      <trkpt lat="44.7466" lon="5.50665">
        <ele>767.75</ele>
        <time>2012-09-09T05:36:35Z</time>
      </trkpt>
      <trkpt lat="44.7466" lon="5.50672">
        <ele>765.83</ele>
        <time>2012-09-09T05:36:27Z</time>
      </trkpt>
      <trkpt lat="44.74647" lon="5.50687">
        <ele>764.39</ele>
        <time>2012-09-09T05:36:09Z</time>
      </trkpt>
      <trkpt lat="44.74644" lon="5.50687">
        <ele>764.39</ele>
        <time>2012-09-09T05:36:07Z</time>
      </trkpt>
      <trkpt lat="44.74621" lon="5.50696">
        <ele>764.87</ele>
        <time>2012-09-09T05:35:42Z</time>
      </trkpt>
      <trkpt lat="44.74599" lon="5.50704">
        <ele>765.83</ele>
        <time>2012-09-09T05:35:21Z</time>
      </trkpt>
      <trkpt lat="44.74596" lon="5.50706">
        <ele>765.83</ele>
        <time>2012-09-09T05:35:17Z</time>
      </trkpt>
      <trkpt lat="44.74584" lon="5.50705">
        <ele>767.27</ele>
        <time>2012-09-09T05:35:02Z</time>
      </trkpt>
      <trkpt lat="44.7458" lon="5.50703">
        <ele>766.79</ele>
        <time>2012-09-09T05:34:57Z</time>
      </trkpt>
      <trkpt lat="44.74569" lon="5.50673">
        <ele>765.83</ele>
        <time>2012-09-09T05:34:37Z</time>
      </trkpt>
      <trkpt lat="44.74557" lon="5.50652">
        <ele>767.75</ele>
        <time>2012-09-09T05:34:18Z</time>
      </trkpt>
      <trkpt lat="44.74545" lon="5.50651">
        <ele>768.23</ele>
        <time>2012-09-09T05:34:04Z</time>
      </trkpt>
      <trkpt lat="44.7453" lon="5.50658">
        <ele>769.67</ele>
        <time>2012-09-09T05:33:51Z</time>
      </trkpt>
      <trkpt lat="44.74521" lon="5.50662">
        <ele>770.63</ele>
        <time>2012-09-09T05:33:41Z</time>
      </trkpt>
      <trkpt lat="44.74515" lon="5.50666">
        <ele>771.6</ele>
        <time>2012-09-09T05:33:36Z</time>
      </trkpt>
      <trkpt lat="44.74514" lon="5.5067">
        <ele>773.52</ele>
        <time>2012-09-09T05:33:29Z</time>
      </trkpt>
      <trkpt lat="44.74502" lon="5.50702">
        <ele>776.4</ele>
        <time>2012-09-09T05:33:04Z</time>
      </trkpt>
      <trkpt lat="44.74501" lon="5.50709">
        <ele>776.88</ele>
        <time>2012-09-09T05:32:59Z</time>
      </trkpt>
      <trkpt lat="44.74509" lon="5.50721">
        <ele>778.32</ele>
        <time>2012-09-09T05:32:45Z</time>
      </trkpt>
      <trkpt lat="44.74516" lon="5.5072">
        <ele>777.84</ele>
        <time>2012-09-09T05:32:37Z</time>
      </trkpt>
      <trkpt lat="44.74522" lon="5.50711">
        <ele>778.32</ele>
        <time>2012-09-09T05:32:20Z</time>
      </trkpt>
      <trkpt lat="44.74526" lon="5.5071">
        <ele>777.36</ele>
        <time>2012-09-09T05:32:00Z</time>
      </trkpt>
      <trkpt lat="44.74525" lon="5.50711">
        <ele>777.36</ele>
        <time>2012-09-09T05:31:36Z</time>
      </trkpt>
      <trkpt lat="44.74523" lon="5.5071">
        <ele>779.29</ele>
        <time>2012-09-09T05:31:17Z</time>
      </trkpt>
      <trkpt lat="44.7452" lon="5.5071">
        <ele>784.09</ele>
        <time>2012-09-09T05:30:56Z</time>
      </trkpt>
      <trkpt lat="44.7452" lon="5.50711">
        <ele>784.09</ele>
        <time>2012-09-09T05:30:31Z</time>
      </trkpt>
      <trkpt lat="44.74522" lon="5.50711">
        <ele>785.05</ele>
        <time>2012-09-09T05:30:03Z</time>
      </trkpt>
      <trkpt lat="44.74521" lon="5.50711">
        <ele>778.32</ele>
        <time>2012-09-09T05:29:30Z</time>
      </trkpt>
    </trkseg>
  </trk>
</gpx>